[[{"header":{"parameterUnit":"m.s-1","parameterCategory":1,"la1":30.6,"la2":28.766,"lo1":-90.7593,"lo2":-88.6598,"dy":0.0162,"dx":0.0183,"nx":116,"ny":114,"refTime":"2023-04-29T12:00:00:Z","depth":0,"parameterNumber":2,"parameterNumberName":"U-component_of_WINDS"},"data":[0.0,0.0,0.0,0.0,0.0,0.0,0.0,0.0,0.0,0.0,0.0,0.0,0.0,0.0,0.0,0.0,0.0,0.0,0.0,0.0,0.0,0.0,0.0,0.0,0.0,0.0,0.0,0.0,0.0,0.0,0.0,0.0,0.0,0.0,0.0,0.0,0.0,0.0,0.0,0.0,0.0,0.0,0.0,0.0,0.0,0.0,0.0,0.0,0.0,0.0,0.0,0.0,0.0,0.0,0.0,0.0,0.0,0.0,0.0,0.0,0.0,0.0,0.0,0.0,0.0,0.0,0.0,0.0,0.0,0.0,0.0,0.0,0.0,0.0,0.0,0.0,0.0,0.0,0.0,0.0,0.0,0.0,0.0,0.0,0.0,0.0,0.0,0.0,0.0,0.0,0.0,0.0,0.0,0.0,0.0,0.0,0.0,0.0,0.0,0.0,0.0,0.0,0.0,0.0,0.0,0.0,0.0,0.0,0.0,0.0,0.0,0.0,0.0,0.0,0.0,0.0,0.0,0.0,0.0,0.0,0.0,0.0,0.0,0.0,0.0,0.0,0.0,0.0,0.0,0.0,0.0,0.0,0.0,0.0,0.0,0.0,0.0,0.0,0.0,0.0,0.0,0.0,0.0,0.0,0.0,0.0,0.0,0.0,0.0,0.0,0.0,0.0,0.0,0.0,0.0,0.0,0.0,0.0,0.0,0.0,0.0,0.0,0.0,0.0,0.0,0.0,0.0,0.0,0.0,0.0,0.0,0.0,0.0,0.0,0.0,0.0,0.0,0.0,0.0,0.0,0.0,0.0,0.0,0.0,0.0,0.0,0.0,0.0,0.0,0.0,0.0,0.0,0.0,0.0,0.0,0.0,0.0,0.0,0.0,0.0,0.0,0.0,0.0,0.0,0.0,0.0,0.0,0.0,0.0,0.0,0.0,0.0,0.0,0.0,0.0,0.0,0.0,0.0,0.0,0.0,0.0,0.0,0.0,0.0,0.0,0.0,0.0,0.0,0.0,0.0,0.0,0.0,0.0,0.0,0.0,0.0,0.0,0.0,0.0,0.0,0.0,0.0,0.0,0.0,0.0,0.0,0.0,0.0,0.0,0.0,0.0,0.0,0.0,0.0,0.0,0.0,0.0,0.0,0.0,0.0,0.0,0.0,0.0,0.0,0.0,0.0,0.0,0.0,0.0,0.0,0.0,0.0,0.0,0.0,0.0,0.0,0.0,0.0,0.0,0.0,0.0,0.0,0.0,0.0,0.0,0.0,0.0,0.0,0.0,0.0,0.0,0.0,0.0,0.0,0.0,0.0,0.0,0.0,0.0,0.0,0.0,0.0,0.0,0.0,0.0,0.0,0.0,0.0,0.0,0.0,0.0,0.0,0.0,0.0,0.0,0.0,0.0,0.0,0.0,0.0,0.0,0.0,0.0,0.0,0.0,0.0,0.0,0.0,0.0,0.0,0.0,0.0,0.0,0.0,0.0,0.0,0.0,0.0,0.0,0.0,0.0,0.0,0.0,0.0,0.0,0.0,0.0,0.0,0.0,0.0,0.0,0.0,0.0,0.0,0.0,0.0,0.0,0.0,0.0,0.0,0.0,0.0,0.0,0.0,0.0,0.0,0.0,0.0,0.0,0.0,0.0,0.0,0.0,0.0,0.0,0.0,0.0,0.0,0.0,0.0,0.0,0.0,0.0,0.0,0.0,0.0,0.0,0.0,0.0,0.0,0.0,0.0,0.0,0.0,0.0,0.0,0.0,0.0,0.0,0.0,0.0,0.0,0.0,0.0,0.0,0.0,0.0,0.0,0.0,0.0,0.0,0.0,0.0,0.0,0.0,0.0,0.0,0.0,0.0,0.0,0.0,0.0,0.0,0.0,0.0,0.0,0.0,0.0,0.0,0.0,0.0,0.0,0.0,0.0,0.0,0.0,0.0,0.0,0.0,0.0,0.0,0.0,0.0,0.0,0.0,0.0,0.0,0.0,0.0,0.0,0.0,0.0,0.0,0.0,0.0,0.0,0.0,0.0,0.0,0.0,0.0,0.0,0.0,0.0,0.0,0.0,0.0,0.0,0.0,0.0,0.0,0.0,0.0,0.0,0.0,0.0,0.0,0.0,0.0,0.0,0.0,0.0,0.0,0.0,0.0,0.0,0.0,0.0,0.0,0.0,0.0,0.0,0.0,0.0,0.0,0.0,0.0,0.0,0.0,0.0,0.0,0.0,0.0,0.0,0.0,0.0,0.0,0.0,0.0,0.0,0.0,0.0,0.0,0.0,0.0,0.0,0.0,0.0,0.0,0.0,0.0,0.0,0.0,0.0,0.0,0.0,0.0,0.0,0.0,0.0,0.0,0.0,0.0,0.0,0.0,0.0,0.0,0.0,0.0,0.0,0.0,0.0,0.0,0.0,0.0,0.0,0.0,0.0,0.0,0.0,0.0,0.0,0.0,0.0,0.0,0.0,0.0,0.0,0.0,0.0,0.0,0.0,0.0,0.0,0.0,0.0,0.0,0.0,0.0,0.0,0.0,0.0,0.0,0.0,0.0,0.0,0.0,0.0,0.0,0.0,0.0,0.0,0.0,0.0,0.0,0.0,0.0,0.0,0.0,0.0,0.0,0.0,0.0,0.0,0.0,0.0,0.0,0.0,0.0,0.0,0.0,0.0,0.0,0.0,0.0,0.0,0.0,0.0,0.0,0.0,0.0,0.0,0.0,0.0,0.0,0.0,0.0,0.0,0.0,0.0,0.0,0.0,0.0,0.0,0.0,0.0,0.0,0.0,0.0,0.0,0.0,0.0,0.0,0.0,0.0,0.0,0.0,0.0,0.0,0.0,0.0,0.0,0.0,0.0,0.0,0.0,0.0,0.0,0.0,0.0,0.0,0.0,0.0,0.0,0.0,0.0,0.0,0.0,0.0,0.0,0.0,0.0,0.0,0.0,0.0,0.0,0.0,0.0,0.0,0.0,0.0,0.0,0.0,0.0,0.0,0.0,0.0,0.0,0.0,0.0,0.0,0.0,0.0,0.0,0.0,0.0,0.0,0.0,0.0,0.0,0.0,0.0,0.0,0.0,0.0,0.0,0.0,0.0,0.0,0.0,0.0,0.0,0.0,0.0,0.0,0.0,0.0,0.0,0.0,0.0,0.0,0.0,0.0,0.0,0.0,0.0,0.0,0.0,0.0,0.0,0.0,0.0,0.0,0.0,0.0,0.0,0.0,0.0,0.0,0.0,0.0,0.0,0.0,0.0,0.0,0.0,0.0,0.0,0.0,0.0,0.0,0.0,0.0,0.0,0.0,0.0,0.0,0.0,0.0,0.0,0.0,0.0,0.0,0.0,0.0,0.0,0.0,0.0,0.0,0.0,0.0,0.0,0.0,0.0,0.0,0.0,0.0,0.0,0.0,0.0,0.0,0.0,0.0,0.0,0.0,0.0,0.0,0.0,0.0,0.0,0.0,0.0,0.0,0.0,0.0,0.0,0.0,0.0,0.0,0.0,0.0,0.0,0.0,0.0,0.0,0.0,0.0,0.0,0.0,0.0,0.0,0.0,0.0,0.0,0.0,0.0,0.0,0.0,0.0,0.0,0.0,0.0,0.0,0.0,0.0,0.0,0.0,0.0,0.0,0.0,0.0,0.0,0.0,0.0,0.0,0.0,0.0,0.0,0.0,0.0,0.0,0.0,0.0,0.0,0.0,0.0,0.0,0.0,0.0,0.0,0.0,0.0,0.0,0.0,0.0,0.0,0.0,0.0,0.0,0.0,0.0,0.0,0.0,0.0,0.0,0.0,0.0,0.0,0.0,0.0,0.0,0.0,0.0,0.0,0.0,0.0,0.0,0.0,0.0,0.0,0.0,0.0,0.0,0.0,0.0,0.0,0.0,0.0,0.0,0.0,0.0,0.0,0.0,0.0,0.0,0.0,0.0,0.0,0.0,0.0,0.0,0.0,0.0,0.0,0.0,0.0,0.0,0.0,0.0,0.0,0.0,0.0,0.0,0.0,0.0,0.0,0.0,0.0,0.0,0.0,0.0,0.0,0.0,0.0,0.0,0.0,0.0,0.0,0.0,0.0,0.0,0.0,0.0,0.0,0.0,0.0,0.0,0.0,0.0,0.0,0.0,0.0,0.0,0.0,0.0,0.0,0.0,0.0,0.0,0.0,0.0,0.0,0.0,0.0,0.0,0.0,0.0,0.0,0.0,0.0,0.0,0.0,0.0,0.0,0.0,0.0,0.0,0.0,0.0,0.0,0.0,0.0,0.0,0.0,0.0,0.0,0.0,0.0,0.0,0.0,0.0,0.0,0.0,0.0,0.0,0.0,0.0,0.0,0.0,0.0,0.0,0.0,0.0,0.0,0.0,0.0,0.0,0.0,0.0,0.0,0.0,0.0,0.0,0.0,0.0,0.0,0.0,0.0,0.0,0.0,0.0,0.0,0.0,0.0,0.0,0.0,0.0,0.0,0.0,0.0,0.0,0.0,0.0,0.0,0.0,0.0,0.0,0.0,0.0,0.0,0.0,0.0,0.0,0.0,0.0,0.0,0.0,0.0,0.0,0.0,0.0,0.0,0.0,0.0,0.0,0.0,0.0,0.0,0.0,0.0,0.0,0.0,0.0,0.0,0.0,0.0,0.0,0.0,0.0,0.0,0.0,0.0,0.0,0.0,0.0,0.0,0.0,0.0,0.0,0.0,0.0,0.0,0.0,0.0,0.0,0.0,0.0,0.0,0.0,0.0,0.0,0.0,0.0,0.0,0.0,0.0,0.0,0.0,0.0,0.0,0.0,0.0,0.0,0.0,0.0,0.0,0.0,0.0,0.0,0.0,0.0,0.0,0.0,0.0,0.0,0.0,0.0,0.0,0.0,0.0,0.0,0.0,0.0,0.0,0.0,0.0,0.0,0.0,0.0,0.0,0.0,0.0,0.0,0.0,0.0,0.0,0.0,0.0,0.0,0.0,0.0,0.0,0.0,0.0,0.0,0.0,0.0,0.0,0.0,0.0,0.0,0.0,0.0,0.0,0.0,0.0,0.0,0.0,0.0,0.0,0.0,0.0,0.0,0.0,0.0,0.0,0.0,0.0,0.0,0.0,0.0,0.0,0.0,0.0,0.0,0.0,0.0,0.0,0.0,0.0,0.0,0.0,0.0,0.0,0.0,0.0,0.0,0.0,0.0,0.0,0.0,0.0,0.0,0.0,0.0,0.0,0.0,0.0,0.0,0.0,0.0,0.0,0.0,0.0,0.0,0.0,0.0,0.0,0.0,0.0,0.0,0.0,0.0,0.0,0.0,0.0,0.0,0.0,0.0,0.0,0.0,0.0,0.0,0.0,0.0,0.0,0.0,0.0,0.0,0.0,0.0,0.0,0.0,0.0,0.0,0.0,0.0,0.0,0.0,0.0,0.0,0.0,0.0,0.0,0.0,0.0,0.0,0.0,0.0,0.0,0.0,0.0,0.0,0.0,0.0,0.0,0.0,0.0,0.0,0.0,0.0,0.0,0.0,0.0,0.0,0.0,0.0,0.0,0.0,0.0,0.0,0.0,0.0,0.0,0.0,0.0,0.0,0.0,0.0,0.0,0.0,0.0,0.0,0.0,0.0,0.0,0.0,0.0,0.0,0.0,0.0,0.0,0.0,0.0,0.0,0.0,0.0,0.0,0.0,0.0,0.0,0.0,0.0,0.0,0.0,0.0,0.0,0.0,0.0,0.0,0.0,0.0,0.0,0.0,0.0,0.0,0.0,0.0,0.0,0.0,0.0,0.0,0.0,0.0,0.0,0.0,0.0,0.0,0.0,0.0,0.0,0.0,0.0,0.0,0.0,0.0,0.0,0.0,0.0,0.0,0.0,0.0,0.0,0.0,0.0,0.0,0.0,0.0,0.0,0.0,0.0,0.0,0.0,0.0,0.0,0.0,0.0,0.0,0.0,0.0,0.0,0.0,0.0,0.0,0.0,0.0,0.0,0.0,0.0,0.0,0.0,0.0,0.0,0.0,0.0,0.0,0.0,0.0,0.0,0.0,0.0,0.0,0.0,0.0,0.0,0.0,0.0,0.0,0.0,0.0,0.0,0.0,0.0,0.0,0.0,0.0,0.0,0.0,0.0,0.0,2.0712,0.0,0.0,0.0,0.0,0.0,0.0,0.0,0.0,0.0,0.0,0.0,0.0,0.0,0.0,0.0,0.0,0.0,0.0,0.0,0.0,0.0,0.0,0.0,0.0,0.0,0.0,0.0,0.0,0.0,0.0,0.0,0.0,0.0,0.0,0.0,0.0,0.0,0.0,0.0,0.0,0.0,0.0,0.0,0.0,0.0,0.0,0.0,0.0,0.0,0.0,0.0,0.0,0.0,0.0,0.0,0.0,0.0,0.0,0.0,0.0,0.0,0.0,0.0,0.0,0.0,0.0,0.0,0.0,0.0,0.0,0.0,0.0,0.0,0.0,0.0,0.0,0.0,0.0,0.0,0.0,0.0,0.0,0.0,0.0,0.0,0.0,0.0,0.0,0.0,0.0,0.0,0.0,0.0,0.0,0.0,0.0,0.0,0.0,0.0,0.0,0.0,0.0,0.0,0.0,0.0,0.0,0.0,0.0,0.0,0.0,0.0,0.0,0.0,0.0,0.0,0.0,2.0646,0.0,0.0,0.0,0.0,0.0,0.0,0.0,0.0,0.0,0.0,0.0,0.0,0.0,0.0,0.0,0.0,0.0,0.0,0.0,0.0,0.0,0.0,0.0,0.0,0.0,0.0,0.0,0.0,0.0,0.0,0.0,0.0,0.0,0.0,0.0,0.0,0.0,0.0,0.0,0.0,0.0,0.0,0.0,0.0,0.0,0.0,0.0,0.0,0.0,0.0,0.0,0.0,0.0,0.0,0.0,0.0,0.0,0.0,0.0,0.0,0.0,0.0,0.0,0.0,0.0,0.0,0.0,0.0,0.0,0.0,0.0,0.0,0.0,0.0,0.0,0.0,0.0,0.0,0.0,0.0,0.0,0.0,0.0,0.0,0.0,0.0,0.0,0.0,0.0,0.0,0.0,0.0,0.0,0.0,0.0,0.0,0.0,0.0,0.0,0.0,0.0,0.0,0.0,0.0,0.0,0.0,0.0,0.0,2.1708,2.2148,2.1995,2.2848,2.3221,2.3039,2.1836,2.1275,2.1193,2.0957,0.0,0.0,0.0,0.0,0.0,0.0,0.0,0.0,0.0,0.0,0.0,0.0,0.0,0.0,0.0,0.0,0.0,0.0,0.0,0.0,0.0,0.0,0.0,0.0,0.0,0.0,0.0,0.0,0.0,0.0,0.0,0.0,0.0,0.0,0.0,0.0,0.0,0.0,0.0,0.0,0.0,0.0,0.0,0.0,0.0,0.0,0.0,0.0,0.0,0.0,0.0,0.0,0.0,0.0,0.0,0.0,0.0,0.0,0.0,0.0,0.0,0.0,0.0,0.0,0.0,0.0,0.0,0.0,0.0,0.0,0.0,0.0,0.0,0.0,0.0,0.0,0.0,0.0,0.0,0.0,0.0,0.0,0.0,0.0,0.0,0.0,1.8858,1.9131,0.0,0.0,0.0,0.0,0.0,0.0,0.0,0.0,0.0,0.0,0.0,0.0,0.0,2.023,2.0514,2.0947,2.1137,2.1082,2.2057,2.2561,2.2619,2.324,2.3583,2.3585,2.3405,0.0,2.2472,2.2615,0.0,0.0,0.0,0.0,0.0,0.0,0.0,0.0,0.0,0.0,0.0,0.0,0.0,0.0,0.0,0.0,0.0,0.0,0.0,0.0,0.0,0.0,0.0,0.0,0.0,0.0,0.0,0.0,0.0,0.0,0.0,0.0,0.0,0.0,0.0,0.0,0.0,0.0,0.0,0.0,0.0,0.0,0.0,0.0,0.0,0.0,0.0,0.0,0.0,0.0,0.0,0.0,0.0,0.0,0.0,0.0,0.0,0.0,0.0,0.0,0.0,0.0,0.0,0.0,0.0,0.0,0.0,0.0,0.0,0.0,0.0,0.0,0.0,0.0,0.0,0.0,0.0,0.0,0.0,0.0,0.0,0.0,0.0,0.0,0.0,1.837,1.8734,1.9168,1.8859,1.8746,0.0,0.0,0.0,0.0,0.0,0.0,0.0,0.0,0.0,2.0965,2.0841,2.0914,2.1097,2.14,2.1735,2.2181,2.2993,2.3842,2.4627,2.5115,2.5224,2.5024,2.5301,2.4611,2.3293,2.2979,2.224,2.1315,0.0,0.0,0.0,0.0,2.1822,2.1595,0.0,0.0,0.0,0.0,0.0,0.0,0.0,0.0,0.0,0.0,0.0,0.0,0.0,0.0,0.0,0.0,0.0,0.0,0.0,0.0,0.0,0.0,0.0,0.0,0.0,0.0,0.0,0.0,0.0,0.0,0.0,0.0,0.0,0.0,0.0,0.0,0.0,0.0,0.0,0.0,0.0,0.0,0.0,0.0,0.0,0.0,0.0,0.0,0.0,0.0,0.0,0.0,0.0,0.0,0.0,0.0,0.0,0.0,0.0,0.0,0.0,0.0,0.0,0.0,0.0,0.0,0.0,0.0,0.0,0.0,0.0,0.0,0.0,0.0,0.0,0.0,0.0,1.8112,1.862,1.8955,1.9056,1.9198,0.0,0.0,0.0,0.0,0.0,0.0,2.0646,2.0709,2.1037,2.1724,2.1689,2.1722,2.1821,2.213,2.2547,2.3089,2.3856,2.4752,2.5787,2.6241,2.6271,2.6005,2.6411,2.5681,2.4189,2.3475,2.2513,2.1566,2.2036,2.2077,2.1872,2.2239,2.228,2.2103,0.0,0.0,0.0,0.0,0.0,0.0,0.0,0.0,0.0,0.0,0.0,0.0,0.0,0.0,0.0,0.0,0.0,0.0,0.0,0.0,0.0,0.0,0.0,0.0,0.0,0.0,0.0,0.0,0.0,0.0,0.0,0.0,0.0,0.0,0.0,0.0,0.0,0.0,0.0,0.0,0.0,0.0,0.0,0.0,0.0,0.0,0.0,0.0,0.0,0.0,0.0,0.0,0.0,0.0,0.0,0.0,0.0,0.0,0.0,0.0,0.0,0.0,0.0,0.0,0.0,0.0,0.0,0.0,0.0,0.0,0.0,0.0,0.0,0.0,0.0,0.0,0.0,0.0,0.0,1.76,1.859,0.0,0.0,0.0,0.0,1.942,1.9759,2.0232,2.0841,2.0957,2.152,2.2693,2.2437,2.2485,2.2987,2.3341,2.3523,2.3602,2.4453,2.4907,2.4985,2.5495,2.5849,2.6001,2.6016,2.5803,2.5345,2.4744,2.3998,2.3172,2.3362,2.3434,2.3505,2.3505,2.3591,2.3691,0.0,0.0,0.0,0.0,0.0,0.0,0.0,0.0,0.0,0.0,0.0,0.0,0.0,0.0,0.0,0.0,0.0,0.0,0.0,0.0,0.0,0.0,0.0,0.0,0.0,0.0,0.0,0.0,0.0,0.0,0.0,0.0,0.0,0.0,0.0,0.0,0.0,0.0,0.0,0.0,0.0,0.0,0.0,0.0,0.0,0.0,0.0,0.0,0.0,0.0,0.0,0.0,0.0,0.0,0.0,0.0,0.0,0.0,0.0,0.0,0.0,0.0,0.0,0.0,0.0,0.0,0.0,0.0,0.0,0.0,0.0,0.0,0.0,0.0,0.0,0.0,0.0,0.0,0.0,1.8232,1.8685,0.0,1.954,1.9344,1.9636,2.0641,2.0771,2.1134,2.1852,2.1891,2.2088,2.2549,2.2432,2.2312,2.2146,2.243,2.2694,2.2897,2.3797,2.4665,2.5644,2.622,2.6377,2.615,2.65,2.5976,2.4907,2.5122,2.4657,2.3894,2.4044,2.3896,2.3595,2.3595,2.3638,2.3653,0.0,0.0,0.0,0.0,0.0,0.0,0.0,0.0,0.0,0.0,0.0,0.0,0.0,0.0,0.0,0.0,0.0,0.0,0.0,0.0,0.0,0.0,0.0,0.0,0.0,0.0,0.0,0.0,0.0,0.0,0.0,0.0,0.0,0.0,0.0,0.0,0.0,0.0,0.0,0.0,0.0,0.0,-0.1778,0.0,0.0,0.0,0.0,0.0,0.0,0.0,0.0,0.0,0.0,0.0,0.0,0.0,0.0,0.0,0.0,0.0,0.0,0.0,0.0,0.0,0.0,0.0,0.0,0.0,0.0,0.0,0.0,0.0,0.0,0.0,0.0,0.0,0.0,0.0,1.8433,1.8585,1.912,1.9687,2.0285,2.0151,2.0514,2.1614,2.16,2.1809,2.2348,2.238,2.2519,2.27,2.2693,2.2642,2.243,2.2723,2.2984,2.3245,2.4118,2.5097,2.6162,2.6718,2.6953,2.6878,2.7039,2.6547,2.564,2.5844,2.5471,2.4787,2.4707,2.443,2.4134,2.4224,2.4268,2.4194,0.0,0.0,0.0,0.0,0.0,0.0,0.0,0.0,0.0,0.0,0.0,0.0,0.0,0.0,0.0,0.0,0.0,0.0,0.0,0.0,0.0,0.0,0.0,0.0,0.0,0.0,0.0,0.0,0.0,0.0,0.0,0.0,0.0,0.0,0.0,0.0,0.0,0.0,0.0,0.0,0.0,0.0,-0.4421,0.0,0.0,0.0,0.0,0.0,0.0,0.0,0.0,0.0,0.0,0.0,0.0,0.0,0.0,0.0,0.0,0.0,0.0,0.0,0.0,0.0,0.0,0.0,0.0,0.0,0.0,0.0,0.0,0.0,0.0,0.0,0.0,0.0,1.7523,1.8061,1.8585,1.8589,1.9836,2.0715,2.0637,2.13,2.1852,2.2153,2.2111,2.2247,2.2465,2.2483,2.274,2.333,2.3331,2.3594,2.4083,2.4409,2.4551,2.4539,2.5445,2.6008,2.6363,2.6936,2.7544,2.8168,2.7554,2.7478,2.7654,2.7099,2.6564,2.5994,2.5452,2.5206,2.5254,2.5506,2.5568,2.5322,0.0,0.0,0.0,0.0,0.0,0.0,0.0,0.0,0.0,0.0,0.0,0.0,0.0,0.0,0.0,0.0,0.0,0.0,0.0,0.0,0.0,0.0,0.0,0.0,0.0,0.0,0.0,0.0,0.0,0.0,0.0,0.0,0.0,0.0,0.0,0.0,0.0,0.0,0.0,0.0,0.0,0.0,-0.5851,0.0,0.0,0.0,0.0,0.0,0.0,0.0,0.0,0.0,0.0,0.0,0.0,0.0,0.0,0.0,0.0,0.0,0.0,0.0,0.0,0.0,0.0,0.0,0.0,0.0,0.0,0.0,0.0,0.0,0.0,0.0,0.0,1.7777,1.8408,1.9101,1.9812,2.0374,2.0841,2.1138,2.1387,2.1604,2.2259,2.3328,2.305,2.3439,2.4784,2.4054,2.3903,2.452,2.4137,2.3818,2.3568,2.3701,2.3646,2.338,2.4214,2.4976,2.5746,2.6512,2.7203,2.7937,2.7825,2.7912,2.8053,2.7993,2.7657,2.7137,2.617,2.5536,2.5236,2.5411,2.5254,2.481,0.0,0.0,0.0,0.0,0.0,0.0,0.0,0.0,0.0,0.0,0.0,0.0,0.0,0.0,0.0,0.0,0.0,0.0,0.0,0.0,0.0,0.0,0.0,0.0,0.0,0.0,0.0,0.0,0.0,0.0,0.0,0.0,0.0,0.0,0.0,0.0,0.0,0.0,0.0,0.0,0.0,0.0,-0.7493,-0.7718,-0.5815,-0.2571,0.1046,0.5977,1.124,1.4323,0.0,0.0,0.0,0.0,0.0,0.0,0.0,0.0,0.0,0.0,0.0,0.0,0.0,0.0,0.0,0.0,0.0,0.0,0.0,0.0,0.0,0.0,0.0,0.0,1.8036,1.8334,1.9613,1.9866,2.0394,2.1724,2.1882,2.2055,2.2441,2.2519,2.2774,2.333,2.3115,2.3417,2.4591,2.4183,2.4049,2.4396,2.4266,2.4032,2.3711,2.3711,2.3642,2.3444,2.4169,2.4823,2.5529,2.6336,2.7189,0.0,2.7987,2.8172,2.8568,2.8426,2.8224,0.0,0.0,0.0,0.0,0.0,2.6081,2.5675,0.0,0.0,0.0,0.0,0.0,0.0,0.0,0.0,0.0,0.0,0.0,-0.6558,0.0,0.0,0.0,0.0,0.0,0.0,0.0,0.0,0.0,0.0006,0.0,0.0,0.0,0.0,0.0,0.0,0.0,0.0,0.0,0.0,0.0,0.0,0.0,0.0,0.0,0.0,0.0,0.0,0.0,0.0,-0.9197,-0.9857,-0.7772,-0.3954,-0.0323,0.4783,1.0457,1.4492,0.0,0.0,0.0,0.0,0.0,0.0,0.0,0.0,0.0,0.0,0.0,0.0,0.0,0.0,0.0,0.0,0.0,0.0,0.0,0.0,0.0,0.0,0.0,0.0,1.8494,1.9087,2.0707,2.0307,2.06,2.2518,2.2837,2.3081,2.3472,2.3549,2.3372,2.2809,2.2731,2.2902,2.3173,0.0,0.0,0.0,0.0,2.3886,2.3886,2.3886,2.3959,2.4043,2.4587,2.5052,2.5521,2.6239,2.7258,2.8336,2.7936,2.8215,2.8944,2.8509,2.8311,2.8111,2.7343,2.7009,2.6934,2.7247,2.7292,2.699,0.0,0.0,0.0,0.0,0.0,0.0,0.0,0.0,0.0,-0.5438,-0.5657,-0.7685,-1.3048,0.0,0.0,0.0,0.0,0.0,0.0,0.0,0.2672,-0.6669,0.1486,0.0,0.0,0.0,0.0,0.0,0.0,0.0,0.0,0.0,0.0,0.0,0.0,0.0,0.0,0.0,0.0,0.0,0.0,0.0,-1.0019,-1.12,-0.9655,-0.5914,0.1292,0.6019,0.9962,1.7272,2.0551,2.1442,2.0874,0.0,0.0,0.0,0.0,0.0,0.0,0.0,0.0,0.0,0.0,0.0,0.0,0.0,0.0,0.0,0.0,0.0,0.0,0.0,0.0,1.8557,1.8627,1.9056,2.0564,2.0432,2.0683,2.1947,2.2663,2.2944,2.2728,2.3407,2.3722,2.3433,2.3116,2.334,2.4296,2.3285,2.2752,2.3054,2.235,2.1973,2.1973,2.1973,2.2371,2.3224,0.0,0.0,2.5521,2.5812,2.6501,2.7432,2.7327,2.759,2.7967,2.8079,2.7628,2.7082,2.7381,2.6958,2.6244,2.693,2.6657,2.5932,0.0,0.0,0.0,0.0,0.0,0.0,0.0,0.0,0.0,0.0,-1.0488,-1.1695,-1.4934,-1.5153,0.0,0.0,0.0,0.0,0.0,-0.9006,-0.876,-1.5746,-1.1244,-1.229,0.0,0.0,0.0,0.0,0.0,0.0,0.0,0.0,0.0,0.0,0.0,0.0,0.0,0.0,0.0,0.0,0.0,0.0,-1.3816,-1.3084,-1.1502,-0.8477,0.0839,0.5919,0.9516,1.7799,2.0857,2.0967,1.9361,1.8729,1.8423,0.0,0.0,0.0,0.0,0.0,0.0,0.0,0.0,0.0,0.0,0.0,0.0,0.0,0.0,1.7493,0.0,0.0,1.7803,1.9073,1.8904,1.9123,2.0621,2.0452,2.0586,2.1996,2.2486,2.2657,2.249,2.295,2.295,2.2146,2.2018,2.2059,2.2285,2.1725,2.1507,2.1694,2.141,2.1268,2.1431,2.1268,2.1659,2.2381,2.236,2.2776,2.3649,2.4241,2.5016,2.575,2.642,2.6976,2.7498,2.7841,2.7565,2.6961,2.7417,2.6822,2.5995,2.7041,2.696,2.6367,0.0,0.0,0.0,0.0,0.0,0.0,0.0,0.0,0.0,0.0,0.0,-1.562,-1.5342,-1.4812,0.0,0.0,0.0,0.0,0.0,-1.6747,-1.8842,-2.3042,-2.3209,-2.5174,-2.9404,0.0,0.0,0.0,0.0,0.0,0.0,0.0,0.0,0.0,0.0,0.0,0.0,0.0,0.0,0.0,0.0,0.0,-1.8588,-1.592,-1.3033,-0.9202,0.0285,0.6137,1.0629,1.8387,2.0799,2.0087,1.7589,1.6912,1.6648,1.481,1.4926,0.0,0.0,0.0,0.0,0.0,0.0,0.0,0.0,0.0,1.7198,1.6807,1.7385,1.7716,1.6736,1.726,1.8193,1.9313,1.9112,1.9193,2.0316,2.0046,2.0236,2.1376,2.2045,2.2291,2.2178,2.2274,2.1821,2.0547,2.0469,2.0294,1.9825,2.0041,2.011,2.0197,2.0411,2.0643,2.0827,2.0653,2.0884,2.1527,2.1278,2.1364,2.1832,2.266,2.3294,2.3906,2.5169,2.6102,2.6921,2.7391,2.7351,2.704,2.7002,2.6528,2.5972,2.7174,2.729,2.6895,0.0,0.0,0.0,0.0,0.0,0.0,0.0,0.0,0.0,0.0,0.0,0.0,0.0,0.0,0.0,0.0,0.0,0.0,0.0,-1.3205,-1.4481,-2.3331,-1.9246,-2.0968,-2.9991,-3.1255,0.0,0.0,0.0,0.0,0.0,0.0,0.0,0.0,0.0,0.0,0.0,0.0,0.0,0.0,0.0,0.0,-2.2817,-2.0698,-1.3778,-0.4495,0.1437,0.8449,1.5813,2.1625,2.018,1.6036,1.6621,1.3331,0.9538,1.0927,0.0,1.2843,1.3984,1.6027,1.8053,1.8882,1.8961,1.8849,0.0,0.0,1.8172,1.8623,1.89,1.9024,1.8586,1.8735,1.8893,1.8797,1.9171,1.9278,1.866,1.9068,1.914,1.855,2.0554,2.1845,2.1339,2.1288,2.0951,2.0051,1.9246,1.9009,1.9335,1.9027,1.8886,1.9152,1.8825,1.8745,1.8745,1.8745,1.9283,2.0353,2.0353,2.0817,2.1832,2.1907,2.2048,2.2317,2.3514,2.4696,2.5804,2.5873,2.6025,2.6258,2.5581,2.5718,2.6473,2.6751,2.6466,2.6091,0.0,0.0,0.0,0.0,0.0,0.0,0.0,0.0,0.0,0.0,0.0,0.0,0.0,0.0,0.0,0.0,0.0,0.0,-1.9518,-1.8427,-1.9865,-2.4714,-2.3436,-2.4803,-2.9491,-3.0979,-3.1909,-3.2329,0.0,0.0,0.0,0.0,0.0,0.0,0.0,0.0,0.0,0.0,0.0,0.0,0.0,0.0,-2.508,-2.4363,-1.8314,-0.9078,-0.0392,0.4965,0.0,0.0,1.8707,1.5275,1.4038,1.1205,0.8592,1.003,1.1107,0.0,1.542,1.6505,0.0,0.0,1.8412,1.7609,1.7522,1.7248,1.7111,1.7092,1.7278,1.7281,1.683,1.6969,1.7261,0.0,1.7784,1.7882,1.7952,1.8205,1.8318,1.7997,1.9009,1.9562,1.9353,1.9894,1.9728,1.855,1.8238,1.8078,1.8175,1.8023,1.8023,1.8442,1.7772,1.7448,1.761,1.696,1.7269,1.8541,1.8381,1.8939,2.0148,2.0682,2.1278,2.2027,2.2553,2.3441,2.4564,2.4707,2.5158,2.5758,2.5087,2.5146,2.5697,2.6291,2.6409,2.6452,0.0,0.0,0.0,0.0,0.0,0.0,0.0,0.0,0.0,0.0,0.0,0.0,0.0,0.0,0.0,0.0,0.0,0.0,0.0,-2.2558,-2.4001,-2.5385,-2.6391,0.0,-2.87,-2.997,-3.0897,-3.1475,0.0,0.0,0.0,0.0,0.0,0.0,0.0,0.0,0.0,0.0,0.0,0.0,0.0,0.0,-2.6747,-2.7043,-2.3396,-1.6795,-0.6497,0.0412,0.0,0.0,1.408,1.3472,1.0845,0.843,0.7064,0.917,1.0461,1.2055,1.5442,0.0,0.0,1.817,1.759,1.6437,1.6271,1.6053,1.5694,1.5201,1.5345,1.5519,1.5138,1.5475,1.5955,1.6618,1.6771,1.6949,1.722,1.7334,1.7334,1.7017,1.7261,1.7082,1.6406,1.7802,1.8399,1.7269,1.7204,1.7221,1.7066,1.6976,1.7049,1.7367,1.6617,1.6288,1.6453,1.5718,1.5884,1.6935,1.6952,1.7529,1.8585,1.9441,2.0518,2.1659,2.1659,2.2328,2.3514,2.3599,2.4192,2.4862,2.4204,2.4204,2.4624,2.5145,2.5742,2.6427,0.0,0.0,0.0,0.0,0.0,0.0,0.0,0.0,0.0,0.0,0.0,0.0,0.0,0.0,0.0,0.0,0.0,0.0,0.0,-2.2565,-2.3425,-2.478,-2.5054,-2.6006,-2.7789,-2.8019,-2.8937,-3.0632,-3.0661,0.0,0.0,0.0,0.0,0.0,0.0,0.0,0.0,0.0,0.0,0.0,0.0,0.0,-2.8078,-2.8555,-2.8256,-2.6502,-1.8301,0.0,0.0,0.0,0.4824,0.9127,0.709,0.4386,0.0,0.7294,0.9713,0.0,0.0,0.0,1.5246,1.6862,1.6784,1.6271,1.607,1.5288,1.4419,1.3628,1.3939,1.4363,1.4384,1.5165,1.5896,1.6571,1.7001,1.7009,1.6296,1.6453,1.6206,1.4727,1.5296,1.4851,0.0,1.5011,1.678,1.6698,1.6402,1.617,1.617,1.5884,1.5786,1.5779,1.5289,1.5039,1.5039,1.5304,1.5553,1.5779,1.6617,1.7196,1.7521,1.8585,1.9687,2.0837,2.0837,2.1507,2.2627,2.2627,2.2925,2.322,2.2456,2.2745,2.3514,2.3021,2.3902,2.5453,0.0,0.0,0.0,0.0,0.0,0.0,0.0,0.0,0.0,0.0,0.0,0.0,0.0,0.0,0.0,0.0,0.0,0.0,0.0,-2.3426,-2.3967,-2.4704,-2.53,-2.5972,-2.6726,-2.7445,-2.812,-2.8818,-2.9472,-3.0088,0.0,0.0,0.0,0.0,0.0,0.0,0.0,0.0,0.0,0.0,0.0,0.0,-2.9578,-2.9745,-2.9302,-2.831,0.0,0.0,0.0,0.0,-0.0371,0.1099,-0.0294,0.0,0.0,0.2821,0.6972,1.0673,0.0,0.0,1.4137,1.6422,1.5999,1.4537,1.2757,1.2567,1.2166,1.0232,0.9341,0.9219,0.9901,0.9612,0.9616,1.0637,1.1388,1.1801,1.173,1.1832,1.1832,1.1412,1.1753,0.0,0.0,0.0,0.0,1.3665,1.2899,1.3074,1.4636,1.4015,1.382,1.4065,1.34,1.2717,1.2105,1.1519,1.2037,1.3484,1.5267,1.6617,1.744,1.7917,1.8718,1.9766,1.9766,2.0372,2.1441,2.1583,2.2103,2.2776,2.2134,2.2155,2.2521,2.2349,2.2787,2.3683,0.0,0.0,0.0,0.0,0.0,0.0,0.0,0.0,0.0,0.0,0.0,0.0,0.0,0.0,0.0,0.0,0.0,0.0,0.0,0.0,-2.4189,-2.4519,-2.5026,-2.5514,-2.586,-2.6504,-2.7079,-2.7537,-2.8433,-2.9062,0.0,0.0,0.0,0.0,0.0,0.0,0.0,0.0,0.0,0.0,0.0,0.0,-3.0302,-3.0275,-2.9717,0.0,0.0,0.0,0.0,0.0,0.0,-0.5937,-0.6844,-0.5466,-0.2876,0.0217,0.4103,0.7996,1.044,1.1697,1.2641,1.4266,1.3761,1.2215,0.9983,0.9632,0.9244,0.7194,0.5883,0.5306,0.5946,0.5515,0.5347,0.6166,0.709,0.7854,0.8056,0.8115,0.8245,0.8434,0.9161,0.9265,0.0,0.0,0.0,1.2032,1.1671,1.1832,1.2766,1.318,1.3382,1.3363,1.1666,1.0428,0.9812,0.9113,0.962,1.1326,1.3212,1.4552,1.5337,1.5778,1.6627,1.7794,1.7794,1.8594,1.9885,2.0041,2.073,2.1745,2.1385,2.1405,2.1558,2.1624,2.1983,2.2574,0.0,0.0,0.0,0.0,0.0,0.0,0.0,0.0,0.0,0.0,0.0,0.0,0.0,0.0,0.0,0.0,0.0,0.0,0.0,0.0,0.0,-2.4221,-2.4292,-2.4625,-2.5266,-2.5274,-2.5783,-2.6817,-2.7513,-2.8385,-2.9447,0.0,0.0,0.0,0.0,0.0,0.0,0.0,0.0,0.0,0.0,0.0,-3.0283,-3.0214,0.0,0.0,0.0,0.0,0.0,0.0,0.0,0.0,0.0,0.0,-0.3481,-0.0899,0.1285,0.3707,0.7413,0.9668,1.093,1.0473,0.9958,0.9135,0.7717,0.6585,0.557,0.4476,0.3355,0.2667,0.0,0.0,0.2904,0.3222,0.4294,0.5126,0.5231,0.5315,0.5394,0.0,0.0,0.0,0.0,0.0,0.0,1.1392,0.0,1.1785,1.0269,1.2626,1.3623,1.2808,0.9749,0.8113,0.8025,0.7891,0.8293,0.9221,1.0469,1.1219,1.1472,1.2373,1.36,1.4968,1.4975,1.6219,1.8212,1.8292,1.9036,2.0177,2.0264,2.042,2.0644,2.0819,2.1328,2.2113,0.0,0.0,0.0,0.0,0.0,0.0,0.0,0.0,0.0,0.0,0.0,0.0,0.0,0.0,0.0,0.0,0.0,0.0,0.0,0.0,0.0,0.0,0.0,0.0,0.0,0.0,0.0,0.0,0.0,-2.7608,-2.8612,-2.9433,0.0,0.0,0.0,0.0,0.0,0.0,0.0,0.0,0.0,0.0,-3.0075,0.0,0.0,0.0,0.0,0.0,0.0,0.0,0.0,0.0,0.0,-1.0161,-0.6533,-0.7017,-0.0381,0.6868,0.5746,0.7741,0.9498,0.6664,0.5146,0.4048,0.2935,0.2483,0.1642,-0.0692,-0.2214,-0.3128,0.0,0.0,0.0,-0.1199,0.0892,0.0,0.1537,0.1464,0.0,0.0,0.0,0.1506,0.1068,0.1691,0.0,0.0,0.3277,0.3798,0.4745,0.4759,0.4682,0.4511,0.3625,0.2834,0.2131,0.3804,0.4766,0.5022,0.7142,0.897,1.058,1.0761,1.2307,1.4712,1.4885,1.5734,1.6927,1.79,1.8461,1.8877,1.9932,2.0342,2.042,2.0576,2.0886,2.1185,0.0,0.0,0.0,0.0,0.0,0.0,0.0,0.0,0.0,0.0,0.0,0.0,0.0,0.0,0.0,0.0,0.0,0.0,0.0,0.0,0.0,0.0,0.0,0.0,0.0,0.0,0.0,0.0,0.0,0.0,0.0,0.0,0.0,0.0,0.0,0.0,0.0,0.0,0.0,0.0,0.0,0.0,0.0,0.0,0.0,0.0,0.0,0.0,0.0,0.0,0.0,-1.7722,-1.6325,-1.3346,-1.0098,-0.9214,0.0,0.2252,0.2439,0.4281,0.555,0.2831,0.0578,-0.1225,-0.1702,-0.2138,-0.3011,-0.5185,-0.6843,0.0,0.0,0.0,0.0,0.0,0.0,0.0,-0.2537,-0.3162,-0.3462,0.0,-0.3102,0.0,-0.2748,-0.3108,-0.3469,0.0,-0.196,-0.089,-0.0885,-0.142,-0.2043,-0.2661,-0.2661,-0.2218,-0.1422,0.0443,0.1417,0.1506,0.3894,0.5476,0.6246,0.7138,0.9057,1.1555,0.0,1.3536,1.526,1.6078,1.6895,1.773,1.8106,1.885,1.9766,1.9844,2.0245,2.0819,0.0,0.0,0.0,0.0,0.0,0.0,0.0,0.0,0.0,0.0,0.0,0.0,0.0,0.0,0.0,0.0,0.0,0.0,0.0,0.0,0.0,0.0,0.0,0.0,0.0,0.0,0.0,0.0,0.0,0.0,0.0,0.0,0.0,0.0,0.0,0.0,0.0,0.0,0.0,0.0,0.0,0.0,0.0,0.0,0.0,0.0,0.0,0.0,0.0,0.0,-2.0581,-1.9034,-1.8558,-1.6541,-1.3655,-0.9807,-0.793,-0.6244,-0.2272,-0.0655,-0.034,-0.1501,-0.4231,-0.6512,-0.6212,-0.6881,-0.7952,-0.9359,0.0,0.0,-1.1674,0.0,-0.9707,-0.952,0.0,-0.6697,-0.6374,-0.7511,-0.8001,-0.7121,-0.6708,-0.6449,-0.6364,-0.7464,-0.8384,-0.8744,-0.5247,-0.3926,-0.5841,-0.6022,-0.6557,-0.772,-0.7808,-0.6526,-0.3905,-0.2578,-0.178,-0.1602,0.08,0.1692,0.116,0.3124,0.5166,0.7365,0.8495,0.0,1.3153,1.3581,1.4913,1.6503,1.5875,1.6863,1.8798,1.8957,1.9599,2.0411,0.0,0.0,0.0,0.0,0.0,0.0,0.0,0.0,0.0,0.0,-2.2895,0.0,0.0,0.0,0.0,0.0,0.0,0.0,0.0,0.0,0.0,0.0,0.0,0.0,0.0,0.0,0.0,0.0,0.0,0.0,0.0,0.0,0.0,0.0,0.0,0.0,0.0,0.0,0.0,0.0,0.0,0.0,0.0,0.0,0.0,0.0,0.0,0.0,0.0,0.0,-2.1958,-2.0097,-1.7814,-1.672,-1.58,-1.3292,-1.2795,-1.2413,-0.9537,-0.8374,-0.803,-0.8447,-1.0013,-1.1272,-1.0076,-1.0858,0.0,0.0,0.0,-1.4568,-1.5171,-1.3742,0.0,-1.0998,0.0,0.0,0.0,0.0,-0.9769,0.0,0.0,0.0,0.0,0.0,0.0,0.0,0.0,-0.8582,-0.7489,-0.7401,-0.758,-0.7757,-0.7757,-0.757,-0.7024,-0.5247,-0.436,-0.4271,-0.1873,-0.0089,0.116,0.1878,0.3657,0.6045,0.7274,0.0,1.0134,1.1844,1.3387,1.4587,1.5299,1.63,1.7488,1.863,1.9116,1.9441,0.0,0.0,0.0,0.0,0.0,0.0,0.0,0.0,0.0,0.0,-2.3702,-2.3663,0.0,0.0,0.0,0.0,0.0,0.0,0.0,0.0,0.0,0.0,0.0,0.0,0.0,0.0,0.0,0.0,0.0,0.0,0.0,0.0,0.0,0.0,0.0,0.0,0.0,0.0,0.0,0.0,0.0,0.0,0.0,0.0,0.0,0.0,0.0,0.0,0.0,0.0,-2.263,-2.1245,-1.8585,-1.7262,-1.6441,-1.5076,-1.4429,-1.3863,-1.2608,-1.1561,-1.0827,-1.1044,-1.206,-1.2979,-1.3086,0.0,0.0,0.0,0.0,-1.7484,-1.7861,0.0,0.0,0.0,0.0,0.0,0.0,0.0,0.0,0.0,0.0,0.0,0.0,0.0,0.0,0.0,0.0,-1.2082,-0.9378,-0.9561,-0.9735,-0.9735,-0.9309,-0.9139,-0.9139,-0.7376,-0.6495,-0.6407,-0.4275,-0.2763,-0.1692,-0.0089,0.1787,0.3744,0.5863,0.0,0.8408,1.0144,1.1536,1.248,1.3146,1.4316,1.5741,1.6911,1.7738,1.839,0.0,0.0,0.0,0.0,0.0,0.0,0.0,-2.2805,-2.3723,-2.4154,-2.4284,-2.4228,-2.3837,-2.4172,-2.443,0.0,0.0,0.0,0.0,0.0,0.0,0.0,0.0,0.0,0.0,0.0,0.0,0.0,0.0,0.0,0.0,0.0,0.0,0.0,0.0,0.0,0.0,0.0,0.0,0.0,0.0,0.0,0.0,0.0,0.0,0.0,0.0,0.0,0.0,0.0,-2.33,-2.2685,-2.0336,-1.878,-1.768,-1.71,-1.6131,-1.5154,-1.4877,-1.3899,-1.297,-1.3147,-1.3628,-1.4382,-1.5913,-1.7213,0.0,0.0,0.0,-1.9987,0.0,0.0,0.0,0.0,0.0,0.0,0.0,0.0,0.0,0.0,0.0,0.0,0.0,0.0,0.0,0.0,0.0,0.0,-1.1838,-1.2116,-1.2383,-1.2383,-1.1541,-1.1117,-1.1117,-0.9474,-0.8524,-0.8352,-0.6577,-0.5336,-0.4366,-0.2141,-0.0179,0.1431,0.4005,0.0,0.0,0.8345,0.957,1.0702,1.0885,1.2151,1.4079,1.5018,1.6175,1.7326,0.0,0.0,0.0,0.0,0.0,0.0,0.0,-2.3125,-2.4133,-2.419,-2.4209,-2.419,-2.417,-2.4358,-2.4482,0.0,0.0,0.0,0.0,0.0,0.0,0.0,0.0,0.0,0.0,0.0,0.0,0.0,0.0,0.0,0.0,0.0,0.0,0.0,0.0,0.0,0.0,0.0,0.0,0.0,0.0,0.0,0.0,0.0,0.0,0.0,0.0,0.0,0.0,0.0,0.0,-2.4627,-2.3356,-2.2286,-2.1415,-2.1155,0.0,0.0,-1.8238,-1.7623,-1.7329,-1.7081,-1.7215,-1.761,-1.8613,0.0,0.0,0.0,-2.1416,-2.1667,0.0,0.0,0.0,0.0,0.0,0.0,0.0,0.0,0.0,0.0,0.0,0.0,0.0,0.0,0.0,0.0,0.0,0.0,-1.5248,-1.5022,-1.4946,-1.4946,-1.4135,-1.3646,-1.3646,-1.2049,-1.0864,-1.0009,-0.8769,-0.7007,-0.4896,-0.3833,-0.2142,-0.0089,0.152,0.0,0.0,0.5977,0.7735,0.9753,0.9753,1.1052,1.2948,1.4001,1.5087,1.6026,0.0,0.0,0.0,0.0,0.0,0.0,0.0,-2.3162,-2.419,-2.419,-2.419,-2.4191,-2.4191,-2.4321,-2.4375,0.0,0.0,0.0,0.0,0.0,0.0,0.0,0.0,0.0,0.0,0.0,0.0,0.0,0.0,0.0,0.0,0.0,0.0,0.0,0.0,0.0,0.0,0.0,0.0,0.0,0.0,0.0,0.0,0.0,0.0,0.0,0.0,0.0,0.0,0.0,0.0,0.0,-2.4734,-2.3886,0.0,0.0,-2.1204,-2.0435,-1.9396,-1.892,-1.8794,-1.8876,-1.8826,-1.9122,-2.0224,0.0,0.0,-2.2224,-2.2543,-2.2713,-2.2701,0.0,0.0,0.0,0.0,0.0,0.0,0.0,0.0,0.0,0.0,0.0,0.0,0.0,0.0,0.0,0.0,0.0,-1.9907,-1.8196,-1.7268,-1.7268,-1.6285,-1.5546,-1.4989,-1.373,-1.2644,-1.1729,-1.0255,-0.8943,-0.7709,-0.5424,-0.3655,-0.2232,0.0268,0.0,0.0,0.4556,0.5974,0.7207,0.8341,0.9479,1.0692,1.2577,1.3685,1.4273,0.0,0.0,0.0,0.0,0.0,0.0,-2.1803,-2.3162,-2.419,-2.419,-2.4209,-2.4191,-2.4191,-2.4229,-2.4266,-2.421,0.0,0.0,0.0,0.0,0.0,0.0,0.0,0.0,0.0,0.0,0.0,0.0,0.0,0.0,0.0,0.0,0.0,0.0,0.0,0.0,0.0,0.0,0.0,0.0,0.0,0.0,0.0,0.0,0.0,0.0,0.0,0.0,0.0,0.0,0.0,0.0,0.0,0.0,0.0,0.0,-2.2214,-2.1467,-2.0869,-2.0526,-2.0311,-2.0557,-2.0429,-2.0557,0.0,0.0,0.0,-2.3301,-2.3492,-2.361,-2.3774,0.0,0.0,0.0,0.0,0.0,0.0,0.0,0.0,0.0,0.0,0.0,0.0,0.0,0.0,0.0,0.0,0.0,-2.3503,-2.1435,-1.9993,-1.9404,-1.8337,-1.7527,-1.6968,-1.5561,-1.4406,-1.3587,-1.2151,-1.0864,-0.9735,-0.7358,-0.5513,-0.3835,-0.1337,0.0,0.0,0.3129,0.4289,0.5359,0.7024,0.8074,0.8952,1.1052,1.2351,1.2942,0.0,0.0,0.0,0.0,0.0,0.0,0.0,-2.3162,-2.419,-2.419,-2.419,-2.419,-2.419,-2.419,-2.419,-2.419,0.0,0.0,0.0,0.0,0.0,0.0,0.0,0.0,0.0,0.0,0.0,0.0,0.0,0.0,0.0,0.0,0.0,0.0,0.0,0.0,0.0,0.0,0.0,0.0,0.0,0.0,0.0,0.0,0.0,0.0,0.0,0.0,0.0,0.0,0.0,0.0,0.0,0.0,0.0,0.0,-2.4266,-2.3403,-2.3343,-2.2992,-2.2592,-2.2592,-2.2347,-2.2224,0.0,0.0,0.0,-2.3968,-2.4355,-2.4483,-2.3839,0.0,0.0,0.0,0.0,0.0,0.0,0.0,0.0,0.0,0.0,0.0,0.0,0.0,0.0,0.0,0.0,0.0,-2.5168,-2.4434,-2.3169,-2.1205,-2.0304,-1.9894,-1.9894,-1.7963,-1.6495,-1.5666,-1.4538,-1.276,-1.0269,-0.9735,-0.7796,0.0,0.0,0.0,0.0,0.1609,0.295,0.4736,0.5974,0.7112,0.8337,0.9497,1.1149,1.2613,0.0,0.0,0.0,0.0,0.0,0.0,0.0,-2.2703,-2.3584,-2.4135,-2.419,-2.419,-2.419,-2.419,-2.419,-2.419,0.0,0.0,0.0,0.0,0.0,0.0,0.0,0.0,0.0,0.0,0.0,0.0,0.0,0.0,0.0,0.0,0.0,0.0,0.0,0.0,0.0,0.0,0.0,0.0,0.0,0.0,0.0,0.0,0.0,0.0,0.0,0.0,0.0,0.0,0.0,0.0,0.0,0.0,0.0,0.0,0.0,0.0,-2.3352,-2.298,-2.2967,-2.3572,-2.3559,-2.3572,-2.4279,0.0,0.0,-2.4015,-2.4363,-2.4751,-2.4754,-2.5175,0.0,0.0,0.0,0.0,0.0,0.0,0.0,0.0,0.0,0.0,0.0,0.0,0.0,0.0,0.0,0.0,-2.5264,-2.5075,-2.4143,-2.2478,-2.2059,-2.1278,-2.0129,-1.9256,-1.8372,-1.7479,-1.5756,-1.4511,-1.3652,-1.1193,-0.9383,0.0,0.0,0.0,0.0,-0.0179,0.1342,0.3045,0.3842,0.4639,0.5526,0.7903,0.9126,0.9817,0.0,0.0,0.0,0.0,0.0,0.0,0.0,-2.2552,-2.3363,-2.4098,-2.4247,-2.4266,-2.4209,-2.4247,-2.4266,-2.419,0.0,0.0,0.0,0.0,0.0,0.0,0.0,0.0,0.0,0.0,0.0,0.0,0.0,0.0,0.0,0.0,0.0,0.0,0.0,0.0,0.0,0.0,0.0,0.0,0.0,0.0,-2.6774,0.0,0.0,0.0,0.0,0.0,0.0,0.0,0.0,0.0,0.0,0.0,0.0,0.0,-2.5635,0.0,0.0,-2.4226,-2.4155,-2.45,-2.4469,0.0,0.0,0.0,0.0,0.0,-2.4878,-2.5147,-2.5231,-2.5756,-2.615,0.0,0.0,0.0,0.0,0.0,0.0,0.0,0.0,0.0,0.0,0.0,0.0,0.0,0.0,0.0,-2.6976,-2.6445,-2.5545,-2.4253,-2.3599,-2.2563,-2.1288,-2.0585,-1.964,-1.8372,-1.7066,-1.5838,-1.4782,-1.2983,-1.1364,0.0,0.0,0.0,0.0,-0.1698,-0.0269,0.1256,0.2325,0.295,0.3575,0.658,0.7903,0.8424,0.0,0.0,0.0,0.0,0.0,0.0,0.0,0.0,0.0,0.0,-2.4338,-2.4355,-2.4228,-2.4321,-2.4338,0.0,0.0,0.0,0.0,0.0,0.0,0.0,0.0,0.0,0.0,0.0,0.0,-2.4692,-2.4692,-2.4513,-2.419,0.0,0.0,0.0,0.0,0.0,0.0,0.0,0.0,0.0,0.0,0.0,0.0,0.0,0.0,0.0,0.0,0.0,0.0,0.0,0.0,0.0,0.0,0.0,0.0,0.0,0.0,0.0,0.0,0.0,0.0,0.0,0.0,0.0,0.0,0.0,0.0,0.0,0.0,-2.5632,-2.5453,-2.5851,-2.6136,0.0,0.0,0.0,0.0,0.0,0.0,0.0,0.0,0.0,0.0,0.0,0.0,0.0,0.0,0.0,-2.949,-2.8206,-2.7152,-2.6408,-2.5087,-2.3902,-2.3075,-2.2103,-2.069,-1.8833,-1.8603,-1.7074,-1.4384,-1.5025,-1.3568,0.0,0.0,0.0,0.0,-0.3129,-0.188,-0.0538,0.1251,0.1965,0.2321,0.5349,0.7027,0.799,0.0,0.0,0.0,0.0,0.0,0.0,0.0,0.0,0.0,0.0,-2.4476,-2.4389,-2.4355,-2.4284,-2.4228,0.0,0.0,0.0,0.0,0.0,0.0,0.0,0.0,0.0,0.0,0.0,0.0,-2.4476,-2.4476,-2.4374,-2.419,-2.419,0.0,0.0,0.0,0.0,-2.3896,0.0,0.0,0.0,0.0,0.0,0.0,0.0,0.0,0.0,-2.5503,-2.5346,0.0,0.0,0.0,0.0,0.0,0.0,0.0,0.0,-2.6763,-2.7321,-2.7838,0.0,-2.6322,-2.6587,-2.6496,0.0,0.0,0.0,0.0,0.0,0.0,-2.6068,-2.5825,-2.6272,0.0,0.0,0.0,0.0,0.0,0.0,0.0,0.0,0.0,0.0,0.0,0.0,0.0,0.0,0.0,-2.7551,-2.8029,-2.7741,-2.7482,-2.7245,-2.6909,-2.58,-2.3841,-2.3441,-2.2616,-2.1497,-2.0613,-1.9122,-1.7017,-1.5846,-1.4518,0.0,0.0,0.0,-0.6546,-0.4625,-0.2858,-0.1164,-0.0358,0.0269,0.0985,0.259,0.3926,0.5176,0.0,0.0,0.0,0.0,0.0,0.0,0.0,0.0,0.0,0.0,0.0,0.0,0.0,0.0,0.0,0.0,0.0,0.0,0.0,0.0,0.0,0.0,0.0,0.0,0.0,0.0,0.0,0.0,0.0,-2.4409,0.0,0.0,0.0,0.0,0.0,-2.4054,-2.3795,-2.3544,-2.3786,-2.4431,-2.4788,0.0,0.0,0.0,0.0,0.0,-2.5762,-2.5556,0.0,-2.5045,-2.4966,-2.4846,0.0,0.0,0.0,0.0,-2.6595,-2.7473,-2.7842,-2.7534,-2.7086,-2.7071,-2.693,-2.6683,0.0,0.0,0.0,0.0,0.0,0.0,-2.615,0.0,0.0,0.0,0.0,0.0,0.0,0.0,0.0,0.0,0.0,0.0,0.0,0.0,0.0,0.0,0.0,-2.7729,-2.8078,-2.7778,-2.7551,-2.7552,-2.725,-2.6317,-2.4707,-2.4552,-2.3806,-2.2435,-2.1845,-2.0536,-1.8674,-1.7228,-1.5854,0.0,0.0,0.0,-0.8305,-0.6477,-0.4603,-0.2819,-0.1853,-0.1054,-0.0348,0.1128,0.2256,0.3384,0.0,0.0,0.0,0.0,0.0,0.0,0.0,0.0,0.0,0.0,0.0,0.0,0.0,0.0,0.0,0.0,0.0,0.0,0.0,0.0,0.0,0.0,0.0,0.0,0.0,0.0,0.0,0.0,0.0,0.0,0.0,0.0,-2.419,0.0,0.0,-2.4074,-2.3816,-2.3346,-2.3697,-2.4593,-2.4603,0.0,0.0,0.0,0.0,0.0,0.0,0.0,0.0,-2.5068,-2.4902,-2.4782,-2.4645,0.0,0.0,0.0,0.0,0.0,-2.7334,-2.762,-2.7769,-2.7327,-2.7034,-2.6841,0.0,0.0,0.0,0.0,0.0,0.0,0.0,0.0,0.0,0.0,0.0,0.0,0.0,0.0,0.0,0.0,0.0,0.0,0.0,0.0,0.0,0.0,0.0,-2.8434,-2.8521,-2.7969,-2.7579,-2.7605,-2.7028,-2.6317,-2.5522,-2.5408,-2.446,-2.2791,-2.272,-2.1631,-1.9731,-1.8674,-1.7236,-1.5508,0.0,0.0,-0.9765,-0.8253,-0.6445,-0.4651,-0.3189,-0.2304,-0.1511,0.0167,0.1255,0.2091,0.0,0.0,0.0,0.0,0.0,0.0,0.0,0.0,0.0,0.0,0.0,0.0,0.0,0.0,0.0,0.0,0.0,0.0,0.0,0.0,0.0,0.0,0.0,0.0,0.0,0.0,0.0,0.0,0.0,0.0,-2.419,-2.419,-2.419,-2.419,-2.419,-2.417,-2.4113,-2.3816,-2.4033,-2.4628,-2.5024,0.0,0.0,0.0,0.0,0.0,0.0,0.0,0.0,-2.4902,-2.4822,-2.4782,-2.458,0.0,0.0,0.0,0.0,0.0,-2.6918,-2.7174,-2.7258,-2.7754,-2.7675,-2.7458,0.0,0.0,0.0,0.0,0.0,0.0,0.0,0.0,0.0,0.0,0.0,0.0,0.0,0.0,0.0,0.0,0.0,0.0,0.0,0.0,0.0,0.0,0.0,-2.7302,-2.7853,-2.7758,-2.764,-2.7605,-2.7502,-2.7097,-2.6432,-2.5894,-2.509,-2.3968,-2.391,-2.2872,-2.0854,-1.974,-1.8329,-1.6651,0.0,-1.2579,-1.0883,-0.9271,-0.7379,-0.5385,-0.429,-0.3193,-0.2014,-0.1427,-0.042,0.0755,0.0,0.0,0.0,0.0,0.0,0.0,0.0,0.0,0.0,0.0,0.0,0.0,0.0,0.0,0.0,0.0,0.0,0.0,0.0,0.0,0.0,0.0,0.0,0.0,0.0,0.0,0.0,0.0,0.0,-2.4338,-2.419,-2.419,-2.419,-2.419,-2.419,-2.4113,-2.3976,-2.3544,-2.3756,-2.438,0.0,0.0,0.0,0.0,0.0,0.0,0.0,0.0,0.0,0.0,-2.4661,-2.462,-2.4539,0.0,0.0,0.0,0.0,0.0,-2.5969,-2.655,-2.7046,-2.7285,-2.747,-2.7625,0.0,0.0,0.0,0.0,0.0,0.0,0.0,0.0,0.0,0.0,0.0,0.0,0.0,0.0,0.0,0.0,0.0,0.0,0.0,0.0,0.0,0.0,0.0,0.0,-2.7518,-2.7321,-2.7184,-2.7169,-2.7169,-2.6891,-2.6254,-2.5966,-2.5519,-2.4991,-2.4116,-2.319,-2.2259,-2.0414,-1.9071,-1.815,0.0,-1.4064,-1.2747,-1.0686,-0.8882,-0.7108,-0.5496,-0.4324,-0.339,-0.2346,-0.1458,-0.0566,0.0,0.0,0.0,0.0,0.0,0.0,0.0,0.0,0.0,0.0,0.0,0.0,0.0,0.0,0.0,0.0,0.0,0.0,0.0,0.0,0.0,0.0,0.0,0.0,0.0,0.0,-2.4775,-2.4626,-2.4442,-2.4303,-2.419,-2.419,-2.419,0.0,-2.4132,-2.4085,-2.4003,-2.349,-2.378,-2.459,0.0,0.0,0.0,0.0,0.0,0.0,0.0,0.0,0.0,0.0,0.0,0.0,0.0,0.0,0.0,-2.4302,-2.4671,-2.5075,-2.5157,-2.5834,-2.6561,-2.6784,0.0,0.0,0.0,0.0,0.0,0.0,0.0,0.0,0.0,0.0,0.0,0.0,0.0,0.0,0.0,0.0,0.0,0.0,0.0,0.0,0.0,0.0,0.0,0.0,0.0,0.0,-2.7473,-2.7218,-2.7026,-2.6937,-2.6937,-2.6659,-2.6111,-2.5948,-2.585,-2.5686,-2.4327,-2.361,-2.352,-2.1209,-1.988,-1.9305,-1.7186,-1.5507,-1.4036,-1.2154,-1.0366,-0.8581,-0.6867,-0.5547,-0.4377,-0.3132,-0.2272,-0.1646,0.0,0.0,0.0,0.0,0.0,0.0,0.0,0.0,0.0,0.0,0.0,0.0,0.0,0.0,0.0,0.0,0.0,0.0,0.0,0.0,0.0,0.0,0.0,0.0,0.0,-2.4794,-2.4626,-2.4424,-2.4284,-2.4209,-2.419,-2.419,-2.417,-2.4094,-2.3917,-2.4208,-2.4802,-2.4239,-2.4708,-2.576,-2.5423,0.0,0.0,0.0,0.0,0.0,0.0,0.0,0.0,0.0,0.0,0.0,0.0,0.0,-2.4302,-2.4302,-2.4333,-2.4476,-2.4961,-2.5133,-2.5424,-2.6542,0.0,0.0,0.0,0.0,0.0,0.0,0.0,0.0,0.0,0.0,0.0,0.0,0.0,0.0,0.0,0.0,0.0,0.0,0.0,0.0,0.0,0.0,0.0,0.0,0.0,0.0,-2.7864,-2.7864,-2.7695,-2.735,-2.735,-2.7144,-2.6727,-2.6179,-2.5869,-2.5783,-2.5082,-2.4655,-2.4322,-2.259,-2.1107,-1.9726,-1.809,-1.6195,-1.4141,-1.3454,-1.1539,-0.8917,-0.838,-0.6535,-0.4146,-0.399,-0.3288,-0.2275,0.0,0.0,0.0,0.0,0.0,0.0,0.0,0.0,0.0,0.0,0.0,0.0,0.0,0.0,0.0,0.0,0.0,0.0,0.0,0.0,0.0,0.0,0.0,-2.4823,-2.4779,-2.4738,-2.4704,-2.4712,-2.4459,-2.4284,-2.4266,-2.4228,0.0,0.0,-2.4559,-2.4792,-2.5446,-2.4927,-2.5196,-2.5922,-2.5541,-2.5816,0.0,0.0,0.0,0.0,0.0,0.0,0.0,0.0,-2.44,-2.4359,0.0,-2.4302,-2.4302,-2.4302,-2.4302,-2.4322,-2.4499,-2.478,-2.5119,-2.5485,0.0,0.0,0.0,0.0,0.0,0.0,0.0,0.0,0.0,0.0,0.0,0.0,0.0,0.0,0.0,0.0,0.0,0.0,0.0,0.0,0.0,0.0,0.0,0.0,0.0,0.0,-2.8255,-2.7845,-2.761,-2.7695,-2.7269,-2.7093,-2.7196,-2.6712,-2.6454,-2.6396,-2.5418,-2.4701,-2.424,-2.312,-2.2098,-2.1029,-1.9069,-1.7338,-1.5786,-1.4243,-1.2618,-1.0864,-0.9346,-0.7668,-0.5986,-0.4916,-0.4068,-0.3288,0.0,0.0,0.0,0.0,0.0,0.0,0.0,0.0,0.0,0.0,0.0,0.0,0.0,0.0,0.0,0.0,0.0,0.0,0.0,0.0,0.0,0.0,0.0,-2.4731,-2.4707,-2.4707,-2.4719,-2.4741,-2.4441,-2.4302,-2.4266,0.0,0.0,0.0,-2.4797,-2.5127,-2.587,-2.5455,-2.5657,-2.6141,-2.5848,-2.5949,0.0,0.0,0.0,0.0,0.0,0.0,0.0,0.0,-2.4359,-2.4302,0.0,0.0,-2.4302,-2.4302,-2.4302,-2.4317,-2.4234,-2.4487,-2.4783,0.0,0.0,0.0,0.0,0.0,0.0,0.0,0.0,0.0,0.0,0.0,0.0,0.0,0.0,0.0,0.0,0.0,0.0,0.0,0.0,0.0,0.0,0.0,0.0,0.0,0.0,0.0,0.0,-2.8334,-2.8091,-2.8207,-2.7645,-2.7372,-2.7401,-2.7144,-2.6937,-2.6779,-2.5974,-2.5245,-2.4637,-2.3728,-2.2942,-2.2163,-2.047,-1.8874,-1.7377,-1.5511,-1.3772,-1.215,-1.034,-0.8893,-0.7592,-0.622,-0.5226,-0.43,0.0,0.0,0.0,0.0,0.0,0.0,0.0,0.0,0.0,0.0,0.0,0.0,0.0,0.0,0.0,0.0,0.0,0.0,0.0,0.0,0.0,0.0,0.0,-2.451,-2.4707,-2.4707,-2.461,-2.4407,-2.4192,-2.4151,-2.419,-2.4132,0.0,0.0,-2.4515,-2.505,-2.61,-2.5846,-2.6064,-2.6607,-2.6453,-2.6033,-2.5615,0.0,0.0,0.0,0.0,0.0,0.0,0.0,-2.44,-2.4302,0.0,0.0,0.0,-2.4302,-2.4302,-2.4302,-2.4302,-2.4135,0.0,0.0,0.0,0.0,0.0,0.0,0.0,0.0,0.0,0.0,0.0,0.0,0.0,0.0,0.0,0.0,0.0,0.0,0.0,0.0,0.0,0.0,0.0,0.0,0.0,0.0,0.0,0.0,0.0,-2.9515,-2.9335,-2.8904,-2.8622,-2.814,-2.7401,-2.7401,-2.7196,-2.6779,-2.6779,-2.65,-2.5839,-2.4637,-2.3682,-2.299,-2.2237,-2.0685,-1.8619,-1.7455,-1.5168,-1.2224,-1.1409,-1.0034,-0.8433,-0.821,-0.6912,-0.5148,0.0,0.0,0.0,0.0,0.0,0.0,0.0,0.0,0.0,0.0,0.0,0.0,0.0,0.0,0.0,0.0,0.0,0.0,0.0,0.0,0.0,0.0,0.0,0.0,0.0,0.0,-2.4657,-2.461,-2.4408,-2.4302,0.0,0.0,0.0,-2.5972,0.0,0.0,0.0,0.0,-2.6926,-2.6956,-2.6923,-2.6774,-2.6624,0.0,0.0,0.0,0.0,0.0,0.0,0.0,0.0,0.0,-2.4639,0.0,-2.4302,-2.4302,-2.4302,-2.4302,-2.4302,-2.4234,0.0,0.0,0.0,0.0,0.0,0.0,0.0,0.0,0.0,0.0,0.0,0.0,0.0,0.0,0.0,0.0,0.0,0.0,0.0,0.0,0.0,0.0,0.0,0.0,0.0,0.0,0.0,0.0,0.0,-2.9364,-2.9303,-2.9335,-2.8432,-2.7864,-2.773,-2.7524,-2.7196,-2.6779,-2.7093,-2.6765,-2.5893,-2.555,-2.4794,-2.3741,-2.3002,-2.1708,-1.9932,-1.733,-1.5309,-1.381,-1.2439,-1.162,-1.0932,-0.8817,-0.7753,-0.6988,0.0,0.0,0.0,0.0,0.0,0.0,0.0,0.0,0.0,0.0,0.0,0.0,0.0,0.0,0.0,0.0,0.0,0.0,0.0,0.0,0.0,0.0,0.0,0.0,0.0,-2.4578,-2.4497,0.0,0.0,0.0,0.0,0.0,0.0,-2.6791,0.0,-2.7181,0.0,0.0,-2.7181,-2.7103,-2.7103,-2.7038,-2.6923,0.0,0.0,0.0,0.0,0.0,0.0,0.0,0.0,0.0,-2.4655,0.0,0.0,-2.4343,-2.441,-2.4492,-2.4343,0.0,0.0,0.0,0.0,0.0,0.0,0.0,0.0,0.0,0.0,0.0,0.0,0.0,0.0,0.0,0.0,0.0,0.0,0.0,0.0,0.0,0.0,0.0,0.0,0.0,0.0,0.0,0.0,0.0,0.0,-2.9677,-2.9677,-2.9782,-2.8996,-2.8512,-2.8432,-2.8042,-2.761,-2.7255,-2.7284,-2.6974,-2.634,-2.6002,-2.5495,-2.4751,-2.3526,-2.2066,-2.0445,-1.7947,-1.6356,-1.5288,-1.3803,-1.3018,-1.2492,-1.0387,-0.9417,-0.8812,0.0,0.0,0.0,0.0,0.0,0.0,0.0,0.0,0.0,0.0,0.0,0.0,0.0,0.0,0.0,0.0,0.0,0.0,0.0,0.0,0.0,0.0,0.0,0.0,0.0,0.0,0.0,0.0,0.0,0.0,0.0,0.0,-2.6031,-2.7204,0.0,-2.7113,-2.7426,-2.7166,-2.7087,-2.7135,-2.7135,-2.6973,-2.6808,-2.7137,0.0,0.0,0.0,0.0,0.0,0.0,0.0,0.0,-2.4574,-2.4679,-2.4839,-2.4451,-2.4599,-2.4823,0.0,0.0,0.0,0.0,0.0,0.0,0.0,0.0,0.0,0.0,0.0,0.0,0.0,0.0,0.0,0.0,0.0,0.0,0.0,0.0,0.0,0.0,0.0,0.0,0.0,0.0,0.0,0.0,0.0,0.0,0.0,-3.0199,-3.0231,-3.0189,-2.9941,-2.9601,-2.918,-2.8779,-2.8352,-2.7963,-2.7595,-2.7284,-2.7041,-2.634,-2.5948,-2.5784,-2.3936,-2.2201,-2.0595,-1.9194,-1.7948,-1.6798,-1.5359,-1.4291,-1.3411,-1.2478,-1.1601,-1.0628,0.0,0.0,0.0,0.0,0.0,0.0,0.0,0.0,0.0,0.0,0.0,0.0,0.0,0.0,0.0,0.0,0.0,0.0,0.0,0.0,0.0,0.0,0.0,0.0,0.0,0.0,0.0,0.0,0.0,0.0,0.0,0.0,0.0,-2.7368,0.0,-2.7766,-2.7624,-2.7582,-2.7434,-2.725,-2.725,-2.7201,-2.7186,-2.7267,-2.725,0.0,0.0,0.0,0.0,0.0,0.0,0.0,-2.554,-2.5351,-2.4863,-2.4799,-2.4823,-2.4823,0.0,0.0,0.0,0.0,0.0,0.0,0.0,0.0,0.0,0.0,0.0,0.0,0.0,0.0,0.0,0.0,0.0,0.0,0.0,0.0,0.0,0.0,0.0,0.0,0.0,0.0,0.0,0.0,0.0,0.0,-2.9337,-3.0046,-3.0359,-3.0189,-2.9837,-2.9496,-2.9196,-2.9104,-2.8857,0.0,-2.867,-2.8384,-2.768,-2.7063,-2.6447,-2.5839,-2.4452,-2.3289,-2.2189,-2.0773,-1.9293,-1.7813,-1.684,-1.5615,-1.4227,-1.3201,-1.2398,-1.1527,0.0,0.0,0.0,0.0,0.0,0.0,0.0,0.0,0.0,0.0,0.0,0.0,0.0,0.0,0.0,0.0,0.0,0.0,0.0,0.0,0.0,0.0,0.0,0.0,0.0,0.0,0.0,0.0,0.0,0.0,0.0,0.0,0.0,-2.8166,0.0,-2.8255,-2.811,-2.7771,-2.7569,-2.7434,-2.7233,-2.7154,-2.7154,-2.7154,-2.7154,-2.7122,-2.6792,0.0,0.0,0.0,0.0,0.0,0.0,0.0,-2.5427,-2.5237,-2.5313,-2.5389,0.0,0.0,0.0,0.0,0.0,0.0,0.0,0.0,0.0,0.0,0.0,0.0,0.0,0.0,0.0,0.0,0.0,0.0,0.0,0.0,0.0,0.0,0.0,0.0,0.0,0.0,0.0,0.0,0.0,-2.918,-2.8909,-2.9353,-2.9546,-2.9337,-2.9468,-2.9447,-2.9318,-2.9424,-2.9377,-2.9241,-2.915,-2.8732,-2.7963,-2.7321,-2.6621,-2.5839,-2.4921,-2.4079,-2.3157,-2.1844,-2.0703,-1.9684,-1.8131,-1.7055,-1.6105,-1.4419,-1.3571,-1.307,0.0,0.0,0.0,0.0,0.0,0.0,0.0,0.0,0.0,0.0,0.0,0.0,0.0,0.0,0.0,0.0,0.0,0.0,0.0,0.0,0.0,0.0,0.0,0.0,0.0,0.0,0.0,0.0,0.0,0.0,0.0,0.0,0.0,-2.8975,0.0,-2.8551,-2.8404,-2.7897,-2.7654,-2.7582,-2.7261,-2.712,-2.7105,-2.7089,-2.7024,-2.7007,-2.7007,-2.6909,-2.6742,-2.6469,0.0,0.0,0.0,0.0,-2.6016,-2.5689,-2.5835,-2.6016,0.0,0.0,0.0,0.0,0.0,0.0,0.0,0.0,0.0,0.0,0.0,0.0,0.0,0.0,0.0,0.0,0.0,0.0,0.0,0.0,0.0,0.0,0.0,0.0,0.0,0.0,0.0,0.0,0.0,-2.8847,-2.8558,-2.8639,-2.8628,-2.8428,-2.8936,-2.9234,-2.9234,-2.9443,-2.9632,-2.9702,-2.9374,-2.8935,-2.8352,-2.7509,-2.6765,-2.6056,-2.5425,-2.4781,-2.4092,-2.2774,-2.2113,-2.1592,-1.9608,-1.8562,-1.7948,-1.5904,-1.495,-1.4386,0.0,0.0,0.0,0.0,0.0,0.0,0.0,0.0,0.0,0.0,0.0,0.0,0.0,0.0,0.0,0.0,0.0,0.0,0.0,0.0,0.0,0.0,0.0,0.0,0.0,0.0,0.0,0.0,0.0,0.0,0.0,0.0,0.0,-2.8906,0.0,0.0,-2.7829,-2.7964,-2.7897,-2.7672,-2.7642,-2.7582,-2.7491,-2.7327,-2.7154,-2.7007,-2.7007,-2.6725,-2.64,-2.659,-2.6401,0.0,0.0,0.0,-2.6104,-2.6033,-2.6052,0.0,0.0,0.0,0.0,0.0,0.0,0.0,0.0,0.0,0.0,0.0,0.0,0.0,0.0,0.0,0.0,0.0,0.0,0.0,0.0,0.0,0.0,0.0,0.0,0.0,0.0,0.0,0.0,0.0,-2.7894,-2.8305,-2.787,-2.837,-2.8628,-2.8428,-2.8472,-2.8506,-2.8506,-2.8566,-2.8874,-2.9444,-2.9632,-2.9601,-2.9345,-2.8288,-2.7444,-2.6779,-2.6111,-2.5715,-2.555,-2.4337,-2.3374,-2.2542,-2.1518,-1.9955,-1.816,-1.7619,-1.6253,-1.453,0.0,0.0,0.0,0.0,0.0,0.0,0.0,0.0,0.0,0.0,0.0,0.0,0.0,0.0,0.0,0.0,0.0,0.0,0.0,0.0,0.0,-2.5069,-2.5069,-2.5032,0.0,0.0,0.0,0.0,0.0,0.0,0.0,-2.7528,-2.8122,0.0,0.0,0.0,0.0,0.0,-2.8102,-2.7858,-2.7607,-2.7517,-2.7474,-2.7215,-2.7152,-2.7213,-2.7055,-2.6876,-2.6691,-2.6792,-2.6674,-2.6572,-2.6657,0.0,0.0,0.0,0.0,0.0,0.0,0.0,0.0,0.0,0.0,0.0,0.0,0.0,0.0,0.0,0.0,0.0,0.0,0.0,0.0,0.0,0.0,0.0,0.0,0.0,0.0,0.0,0.0,0.0,0.0,0.0,0.0,0.0,-2.7664,-2.7855,-2.7535,-2.7675,-2.7654,-2.7403,-2.7657,-2.7798,-2.7798,-2.8213,-2.8539,-2.8853,-2.9346,-2.9407,-2.9065,-2.856,-2.7981,-2.7342,-2.6297,-2.5893,-2.5839,-2.4978,-2.4208,-2.342,-2.2615,-2.142,-2.0073,-1.8629,-1.7474,-1.6383,0.0,0.0,0.0,0.0,0.0,0.0,0.0,0.0,0.0,0.0,0.0,0.0,0.0,0.0,0.0,0.0,0.0,0.0,0.0,0.0,0.0,-2.5191,-2.5191,-2.5191,-2.5191,0.0,0.0,0.0,0.0,0.0,-2.7636,-2.8317,-2.8799,0.0,-2.9021,0.0,0.0,0.0,0.0,-2.801,-2.7794,-2.7648,0.0,0.0,-2.7382,-2.7517,-2.7307,-2.7198,-2.712,-2.7135,-2.712,-2.7023,-2.6923,-2.6873,0.0,0.0,0.0,0.0,0.0,0.0,0.0,0.0,0.0,0.0,0.0,0.0,0.0,0.0,0.0,0.0,0.0,0.0,0.0,0.0,0.0,0.0,0.0,0.0,0.0,0.0,0.0,0.0,0.0,0.0,0.0,0.0,-2.763,-2.7612,-2.7404,-2.7198,-2.699,-2.6708,-2.7023,-2.72,-2.7108,-2.7765,-2.813,-2.8146,-2.882,-2.8975,-2.8607,-2.8577,-2.8327,-2.7834,-2.6634,-2.6111,-2.6056,-2.5481,-2.4964,-2.4452,-2.3467,-2.2676,-2.1904,-1.9803,-1.8685,-1.8026,0.0,0.0,0.0,0.0,0.0,0.0,0.0,0.0,0.0,0.0,0.0,0.0,0.0,0.0,0.0,-2.5168,-2.5191,-2.5191,-2.5191,-2.5191,-2.5191,-2.5191,-2.5191,0.0,-2.5191,0.0,0.0,0.0,0.0,0.0,-2.746,-2.887,-2.9438,-2.9272,-2.9089,-2.8858,-2.8644,0.0,0.0,0.0,-2.843,-2.8326,0.0,0.0,0.0,0.0,0.0,0.0,-2.7426,-2.7754,-2.7636,-2.7348,-2.7365,-2.7334,-2.7272,0.0,0.0,0.0,0.0,0.0,0.0,0.0,0.0,0.0,0.0,0.0,0.0,0.0,0.0,0.0,0.0,0.0,0.0,0.0,0.0,0.0,0.0,0.0,0.0,0.0,0.0,0.0,0.0,0.0,0.0,0.0,-2.7683,-2.7612,-2.7404,-2.7404,-2.7279,-2.6973,-2.7007,-2.691,-2.6639,-2.7111,-2.7367,-2.7383,-2.8113,-2.8423,-2.8417,-2.8466,-2.8474,-2.8375,-2.726,-2.6727,-2.6727,-2.6111,-2.5839,-2.566,-2.4266,-2.3348,-2.2664,-2.1768,-2.0149,-1.8362,0.0,0.0,0.0,0.0,0.0,0.0,0.0,0.0,0.0,0.0,0.0,0.0,0.0,0.0,-2.5164,-2.5191,-2.5191,-2.5191,-2.5191,-2.5191,-2.5191,-2.5191,-2.5191,-2.5191,-2.5191,0.0,0.0,0.0,0.0,-2.7943,-2.837,-2.9339,-2.9751,-2.9662,-2.9185,-2.8947,-2.8858,-2.897,0.0,0.0,-2.8551,-2.8525,-2.8378,0.0,0.0,0.0,0.0,0.0,0.0,-2.7954,-2.7897,-2.7783,-2.7736,-2.7707,-2.7695,0.0,0.0,0.0,0.0,0.0,0.0,0.0,0.0,0.0,0.0,0.0,0.0,0.0,0.0,0.0,0.0,0.0,0.0,0.0,0.0,0.0,0.0,0.0,0.0,0.0,0.0,0.0,0.0,0.0,0.0,0.0,0.0,-2.7672,-2.76,-2.7465,-2.7373,-2.7279,-2.7103,-2.6892,-2.6606,-2.6771,-2.6764,-2.6601,-2.7534,-2.7848,-2.7694,-2.7947,-2.7971,-2.7785,-2.7442,-2.7323,-2.7327,-2.6803,-2.634,-2.5839,-2.537,-2.4553,-2.3551,-2.2676,-2.1557,-2.0224,0.0,0.0,0.0,0.0,0.0,0.0,0.0,0.0,0.0,0.0,0.0,0.0,0.0,0.0,-2.5322,-2.5284,-2.5231,-2.5217,-2.5231,-2.5241,-2.5241,-2.5241,-2.5253,-2.5274,-2.5274,0.0,0.0,0.0,0.0,0.0,0.0,-2.9601,-2.9902,-2.9886,-2.9334,-2.9093,0.0,0.0,0.0,-2.8601,0.0,-2.8694,-2.8576,0.0,0.0,0.0,0.0,0.0,0.0,0.0,-2.8273,-2.8174,0.0,0.0,0.0,0.0,0.0,0.0,0.0,0.0,0.0,0.0,0.0,0.0,0.0,0.0,0.0,0.0,0.0,0.0,0.0,0.0,0.0,0.0,0.0,0.0,0.0,0.0,0.0,0.0,0.0,0.0,0.0,0.0,0.0,0.0,0.0,0.0,-2.7701,-2.7569,-2.7509,-2.7509,-2.7261,-2.7023,-2.6742,-2.664,-2.652,-2.6345,-2.6989,-2.7295,-2.7205,-2.7578,-2.7679,-2.7492,-2.7567,-2.7626,-2.7661,-2.7405,-2.6997,-2.6496,-2.6082,-2.5425,-2.4567,-2.3585,-2.2749,-2.183,0.0,0.0,0.0,0.0,0.0,0.0,0.0,0.0,0.0,0.0,0.0,0.0,0.0,0.0,0.0,-2.5395,-2.5283,-2.5225,-2.5309,-2.5299,-2.5299,-2.5299,-2.5379,-2.5395,-2.5395,-2.536,0.0,0.0,0.0,0.0,0.0,0.0,-2.9908,0.0,-2.9495,-2.9314,-2.9293,0.0,-2.8858,-2.8626,0.0,-2.8839,-2.8626,0.0,0.0,0.0,-2.8994,-2.8834,0.0,0.0,0.0,0.0,0.0,0.0,0.0,0.0,0.0,0.0,0.0,0.0,0.0,0.0,0.0,0.0,0.0,0.0,0.0,0.0,0.0,0.0,0.0,0.0,0.0,0.0,0.0,0.0,0.0,0.0,0.0,0.0,0.0,0.0,0.0,0.0,0.0,0.0,-2.7701,-2.7701,-2.7701,-2.7701,-2.7701,-2.7701,-2.7509,-2.7261,-2.7006,-2.6759,-2.6606,-2.6606,-2.6606,-2.6775,-2.704,-2.7469,-2.7666,-2.7664,-2.7617,-2.7578,-2.7595,-2.7821,-2.7819,-2.7555,-2.6573,-2.6028,-2.5784,-2.458,-2.3669,-2.287,0.0,0.0,0.0,0.0,0.0,0.0,0.0,0.0,0.0,0.0,0.0,0.0,0.0,0.0,0.0,-2.5395,-2.5379,-2.5345,-2.5367,-2.5367,-2.5367,-2.5367,-2.5388,-2.5395,-2.5395,-2.6001,0.0,0.0,0.0,0.0,0.0,0.0,0.0,0.0,-2.9899,-2.9734,-2.9698,-2.9225,0.0,0.0,-2.897,-2.897,0.0,0.0,0.0,0.0,0.0,-2.8952,-2.8905,0.0,-2.8952,-2.8881,0.0,0.0,0.0,0.0,0.0,0.0,-2.8785,0.0,0.0,0.0,0.0,0.0,0.0,0.0,0.0,0.0,0.0,0.0,0.0,0.0,0.0,0.0,0.0,0.0,0.0,0.0,0.0,0.0,0.0,0.0,0.0,0.0,0.0,0.0,-2.7701,-2.7701,-2.7701,-2.7701,-2.7701,-2.7701,-2.7642,-2.7509,-2.731,-2.7215,-2.7087,-2.6875,-2.7087,-2.712,-2.7006,-2.7112,-2.7097,-2.6925,-2.723,-2.7377,-2.742,-2.7677,-2.7518,-2.707,-2.719,-2.6782,-2.5974,-2.5536,-2.461,-2.3479,0.0,0.0,0.0,0.0,0.0,0.0,0.0,0.0,0.0,0.0,0.0,0.0,0.0,0.0,0.0,-2.5513,-2.5471,-2.5447,-2.5477,-2.5477,-2.5477,-2.5477,-2.5498,-2.5707,-2.6062,-2.6548,0.0,0.0,0.0,0.0,0.0,0.0,0.0,0.0,0.0,0.0,0.0,0.0,0.0,0.0,-2.9021,0.0,0.0,-2.8994,-2.8994,0.0,0.0,0.0,-2.904,-2.9203,-2.9185,0.0,0.0,0.0,0.0,0.0,0.0,0.0,0.0,0.0,0.0,0.0,0.0,0.0,-2.9075,-2.9123,0.0,0.0,0.0,0.0,0.0,0.0,0.0,0.0,0.0,0.0,0.0,0.0,0.0,0.0,0.0,0.0,0.0,-2.7701,-2.7701,-2.7701,-2.7701,-2.7701,-2.7701,-2.7701,-2.7701,-2.7701,-2.7701,-2.7582,-2.7404,-2.7404,-2.731,-2.7166,-2.7341,-2.7355,-2.7276,-2.7198,-2.7087,-2.6942,-2.7113,-2.7088,-2.7045,-2.7541,-2.7391,-2.6857,-2.7263,-2.6846,-2.6045,-2.5997,-2.5412,-2.4553,0.0,0.0,0.0,0.0,0.0,0.0,0.0,0.0,0.0,0.0,0.0,0.0,0.0,0.0,0.0,0.0,-2.5593,-2.5542,-2.5605,-2.5609,-2.5613,-2.5613,-2.5759,-2.62,-2.6981,-2.7117,0.0,0.0,0.0,0.0,0.0,0.0,0.0,0.0,0.0,0.0,0.0,0.0,0.0,-2.9375,-2.9115,-2.9021,0.0,0.0,-2.9067,0.0,-2.927,-2.9228,-2.9115,-2.9474,-2.9494,0.0,0.0,0.0,0.0,0.0,-2.9067,0.0,0.0,0.0,0.0,0.0,0.0,0.0,-2.9375,-2.9355,-2.9314,0.0,0.0,0.0,0.0,0.0,0.0,0.0,0.0,0.0,0.0,0.0,0.0,0.0,0.0,0.0,-2.7701,-2.773,-2.773,-2.773,-2.776,-2.776,-2.773,-2.773,-2.773,-2.7701,-2.7701,-2.7612,-2.7434,-2.7434,-2.7434,-2.7434,-2.7434,-2.7539,-2.7701,-2.7478,-2.7404,-2.7373,-2.7103,-2.6842,-2.6691,-2.7313,-2.7284,-2.6781,-2.6903,-2.6627,-2.6103,-2.6088,-2.6026,-2.5784,0.0,0.0,0.0,0.0,0.0,0.0,0.0,0.0,0.0,0.0,0.0,0.0,0.0,0.0,0.0,0.0,0.0,-2.5676,-2.5681,-2.5673,-2.5679,-2.5679,-2.6367,-2.6835,-2.6991,-2.8319,0.0,0.0,0.0,0.0,0.0,0.0,0.0,0.0,0.0,0.0,0.0,0.0,0.0,-2.9815,-2.9416,0.0,-2.927,-2.9415,-2.9474,-2.9494,-2.9532,-2.9513,-2.9494,0.0,-2.957,-2.9551,0.0,0.0,0.0,0.0,0.0,0.0,0.0,0.0,0.0,0.0,0.0,0.0,-2.9645,-2.9663,-2.9645,0.0,0.0,0.0,0.0,0.0,0.0,0.0,0.0,0.0,0.0,0.0,0.0,0.0,0.0,0.0,-2.773,-2.7836,-2.794,-2.794,-2.8035,-2.8063,-2.794,-2.794,-2.7864,-2.7701,-2.7701,-2.7672,-2.7642,-2.7642,-2.7642,-2.7642,-2.7642,-2.7672,-2.7701,-2.7478,-2.7404,-2.7373,-2.7103,-2.6973,-2.6925,-2.686,-2.671,-2.6599,-2.6765,-2.675,-2.6591,-2.6161,-2.5988,-2.5893,0.0,0.0,0.0,0.0,0.0,0.0,0.0,0.0,0.0,0.0,0.0,0.0,0.0,0.0,0.0,0.0,0.0,0.0,0.0,0.0,-2.6973,-2.6952,-2.738,-2.7807,-2.8237,-2.9061,-2.9707,0.0,0.0,0.0,0.0,0.0,0.0,0.0,0.0,0.0,0.0,0.0,-2.9927,-2.9912,-2.9588,0.0,-2.9495,-2.9626,-2.9662,-2.9662,-2.9767,-2.9834,-2.9867,-2.9786,-2.9751,0.0,0.0,-2.9681,-2.9608,0.0,-2.9608,-2.9626,0.0,0.0,0.0,-2.9817,0.0,0.0,0.0,-2.9926,-2.9891,-2.9715,0.0,0.0,0.0,0.0,0.0,0.0,0.0,0.0,0.0,0.0,0.0,0.0,0.0,0.0,-2.8192,-2.829,-2.8352,-2.8299,-2.8378,-2.8378,-2.8255,-2.811,-2.8,-2.7897,-2.7771,-2.776,-2.7836,-2.776,-2.776,-2.7836,-2.776,-2.7701,-2.7701,-2.76,-2.7539,-2.7539,-2.74,-2.7276,-2.7166,-2.6925,-2.6687,-2.6582,-2.6631,-2.6486,-2.6228,-2.6071,-2.609,-2.6242,0.0,0.0,0.0,0.0,0.0,0.0,0.0,0.0,0.0,0.0,0.0,0.0,0.0,0.0,0.0,0.0,0.0,0.0,0.0,0.0,0.0,-2.8193,-2.8367,-2.8776,-2.9478,-2.9658,-3.0093,0.0,0.0,0.0,0.0,0.0,0.0,0.0,0.0,0.0,0.0,0.0,0.0,-2.9973,0.0,-2.9746,-2.9731,-2.9782,-2.9799,-2.9815,-2.9992,-3.0133,-3.0194,-3.0015,0.0,-2.9953,-2.9972,-2.9855,0.0,0.0,0.0,0.0,0.0,0.0,0.0,0.0,0.0,-3.019,0.0,0.0,0.0,-2.9956,0.0,0.0,0.0,0.0,0.0,0.0,0.0,0.0,0.0,0.0,0.0,0.0,0.0,0.0,0.0,-2.8724,-2.8724,-2.87,-2.8718,-2.8652,-2.8578,-2.8368,-2.8183,-2.8156,-2.7926,-2.7876,-2.8042,-2.7904,-2.7933,-2.8063,-2.7943,-2.7869,-2.7811,-2.7811,-2.7829,-2.7789,-2.7789,-2.7701,-2.7539,-2.7244,-2.7006,-2.6742,-2.6433,-2.6118,-2.5843,-2.5931,-2.6153,-2.6411,-2.5398,-2.5422,0.0,0.0,0.0,0.0,0.0,0.0,0.0,0.0,0.0,0.0,0.0,0.0,0.0,0.0,0.0,0.0,-2.8196,0.0,0.0,0.0,-2.8934,-2.9409,-2.9507,-3.0258,-3.0699,-3.0799,0.0,0.0,0.0,0.0,0.0,0.0,-3.0677,0.0,0.0,0.0,-3.0406,0.0,-3.0248,-3.008,0.0,-3.009,-3.0147,-3.0161,-3.0253,-3.0279,-3.0279,0.0,-3.018,-3.018,0.0,-3.0157,-3.0142,0.0,0.0,0.0,0.0,0.0,0.0,0.0,-3.0204,0.0,0.0,0.0,-3.0102,-3.0087,0.0,0.0,0.0,0.0,0.0,0.0,0.0,0.0,0.0,0.0,0.0,0.0,0.0,0.0,0.0,-2.8819,-2.8911,-2.9042,-2.9042,-2.8997,-2.8865,-2.8707,-2.8558,-2.8368,-2.8219,-2.8146,-2.8191,-2.8281,-2.8342,-2.8342,-2.8504,-2.8504,-2.8316,-2.8316,-2.8255,-2.8146,-2.8146,-2.8119,-2.8091,-2.7818,-2.7612,-2.7352,-2.6118,-2.585,-2.6174,-2.5874,-2.581,-2.5968,0.0,0.0,0.0,0.0,0.0,0.0,0.0,0.0,0.0,0.0,0.0,0.0,0.0,0.0,0.0,0.0,0.0,-2.9166,0.0,0.0,0.0,0.0,0.0,0.0,-3.0194,-3.0598,-3.079,-3.0735,-3.0774,0.0,0.0,0.0,0.0,0.0,-3.072,0.0,-3.0607,0.0,0.0,0.0,0.0,0.0,0.0,-3.0267,-3.0328,-3.0378,-3.0406,-3.043,-3.0462,0.0,-3.0359,0.0,0.0,0.0,0.0,0.0,0.0,0.0,0.0,0.0,0.0,0.0,0.0,0.0,-3.0199,0.0,-3.0161,0.0,0.0,0.0,0.0,0.0,0.0,0.0,-2.9528,0.0,0.0,0.0,0.0,0.0,0.0,0.0,0.0,0.0,0.0,0.0,-2.9373,-2.9353,-2.9233,-2.9056,-2.8902,-2.8795,-2.8597,-2.854,-2.8615,-2.8578,-2.8603,-2.8676,-2.87,-2.8603,-2.8394,-2.8394,-2.8334,-2.8201,-2.8201,-2.8201,-2.8174,-2.7904,-2.776,-2.7654,-2.6903,-2.6552,-2.6438,-2.5978,-2.5926,-2.6049,0.0,0.0,0.0,0.0,0.0,0.0,0.0,0.0,0.0,0.0,0.0,0.0,-2.8122,-2.8418,0.0,0.0,0.0,-3.0125,0.0,0.0,-3.079,0.0,0.0,0.0,0.0,0.0,-3.0755,-3.0706,0.0,0.0,0.0,0.0,0.0,0.0,0.0,-3.072,-3.0682,0.0,0.0,-3.053,-3.0472,-3.0453,-3.0443,-3.0451,-3.0492,-3.0537,-3.0539,-3.0554,-3.0591,-3.0529,-3.0509,0.0,-3.0496,0.0,0.0,0.0,0.0,0.0,-3.026,0.0,0.0,0.0,0.0,0.0,0.0,0.0,0.0,0.0,0.0,0.0,0.0,0.0,0.0,0.0,0.0,0.0,0.0,0.0,0.0,0.0,0.0,0.0,0.0,0.0,0.0,-2.9626,-2.9626,-2.9607,-2.9569,-2.9314,-2.9169,-2.9169,-2.8952,-2.8865,-2.8934,-2.8911,-2.8952,-2.9042,-2.8997,-2.8883,-2.8676,-2.8676,-2.8597,-2.8456,-2.8456,-2.8456,-2.843,-2.8255,-2.8129,-2.8075,-2.7851,-2.7439,-2.6939,-2.6351,-2.6184,-2.6124,-2.5114,-2.5198,0.0,0.0,0.0,0.0,0.0,0.0,0.0,0.0,0.0,0.0,0.0,0.0,0.0,0.0,0.0,-3.0765,-3.0799,0.0,-3.0804,0.0,0.0,-3.0703,0.0,0.0,0.0,0.0,0.0,0.0,0.0,0.0,0.0,0.0,0.0,-3.0765,-3.0711,-3.0706,-3.065,-3.0613,-3.0586,-3.0586,-3.0586,0.0,-3.0591,-3.0593,-3.0593,0.0,0.0,-3.061,-3.0595,0.0,0.0,0.0,0.0,0.0,0.0,0.0,0.0,0.0,0.0,-3.0253,0.0,0.0,0.0,0.0,-3.0392,0.0,0.0,0.0,0.0,0.0,0.0,0.0,0.0,0.0,0.0,0.0,0.0,0.0,0.0,0.0,0.0,0.0,0.0,-2.9701,-2.9701,-2.9701,-2.9683,-2.9511,-2.9392,-2.9392,-2.9191,-2.9086,-2.9086,-2.9272,-2.9392,-2.9392,-2.9569,-2.9569,-2.9372,-2.9372,-2.9251,-2.9064,-2.9064,-2.9064,-2.9064,-2.9064,-2.8975,-2.8842,-2.8707,-2.8404,-2.7946,-2.7098,-2.6419,-2.597,0.0,0.0,0.0,0.0,0.0,0.0,0.0,-2.7134,0.0,0.0,0.0,0.0,0.0,-3.0121,-3.0296,0.0,0.0,-3.0724,-3.0724,-3.0724,0.0,0.0,0.0,-3.0678,0.0,0.0,0.0,0.0,0.0,0.0,0.0,0.0,0.0,0.0,0.0,-3.0796,0.0,0.0,0.0,0.0,0.0,-3.0682,-3.072,0.0,0.0,-3.0661,-3.0661,-3.0682,0.0,-3.0724,-3.0697,-3.0664,-3.0687,-3.0619,-3.051,-3.0614,-3.0567,0.0,0.0,0.0,-3.0548,-3.0432,0.0,0.0,0.0,0.0,0.0,0.0,0.0,0.0,0.0,0.0,0.0,0.0,0.0,0.0,0.0,0.0,0.0,0.0,0.0,0.0,0.0,0.0,0.0,-2.9774,-2.9719,-2.9701,-2.9701,-2.9645,-2.9607,-2.9607,-2.9512,-2.9492,-2.9492,-2.9569,-2.9607,-2.9607,-2.9664,-2.9589,-2.9412,-2.9412,-2.9272,-2.9086,-2.9086,-2.9086,-2.9086,-2.9086,-2.9064,-2.902,-2.8892,-2.8676,-2.8404,-2.747,-2.6839,-2.652,-2.5839,0.0,0.0,0.0,0.0,0.0,0.0,0.0,0.0,0.0,-2.9654,0.0,-3.0632,0.0,-3.069,0.0,-3.069,-3.0697,-3.0691,-3.0697,0.0,-3.0691,-3.0683,0.0,0.0,0.0,0.0,0.0,0.0,-3.0691,0.0,0.0,0.0,0.0,0.0,0.0,0.0,0.0,-3.0732,0.0,0.0,-3.0765,0.0,0.0,-3.0706,-3.0732,0.0,-3.0765,-3.0801,-3.0801,-3.0765,-3.0747,-3.0794,-3.0704,-3.0625,-3.0711,-3.0672,-3.0594,-3.0581,-3.0633,0.0,-3.0524,-3.0598,0.0,-3.0507,0.0,0.0,0.0,0.0,0.0,0.0,0.0,0.0,0.0,0.0,0.0,0.0,-3.0411,0.0,0.0,0.0,0.0,0.0,0.0,-2.9907,-2.9905,-2.9808,-2.9755,0.0,0.0,-2.9737,-2.9841,-2.9756,-2.9719,-2.9773,-2.9719,-2.9701,-2.9701,-2.9719,-2.9664,-2.9511,-2.9531,-2.9454,-2.9314,-2.9314,-2.9314,-2.9314,-2.9314,-2.9314,-2.9293,-2.9075,-2.8915,-2.8731,-2.7862,-2.7255,-2.6792,0.0,0.0,0.0,0.0,-2.7302,0.0,0.0,0.0,-2.9177,0.0,-2.9979,-3.0535,-3.0676,-3.0676,-3.0676,-3.0676,-3.0676,0.0,-3.0685,-3.0678,0.0,0.0,-3.0614,-3.0593,-3.0593,0.0,0.0,0.0,0.0,0.0,0.0,0.0,0.0,0.0,-3.08,0.0,-3.0804,-3.0801,-3.0801,-3.0801,-3.0801,-3.0801,-3.0801,-3.0801,-3.0801,-3.0801,-3.0801,-3.0801,-3.0801,-3.0801,-3.0801,-3.0801,-3.0801,-3.0801,-3.0801,-3.0801,-3.0801,-3.0794,-3.073,-3.0759,-3.0743,-3.0554,0.0,0.0,0.0,0.0,-3.0808,0.0,0.0,0.0,0.0,0.0,0.0,0.0,0.0,0.0,0.0,0.0,0.0,0.0,0.0,0.0,0.0,-3.0147,-3.0118,-3.0122,-2.9918,-2.9905,0.0,0.0,-2.9841,-3.0109,-2.9874,-2.979,-2.9905,-2.979,-2.9719,-2.9719,-2.979,-2.979,-2.9719,-2.979,-2.979,-2.9719,-2.9719,-2.9719,-2.9719,-2.972,-2.9701,-2.9664,-2.9272,-2.9086,-2.8997,-2.8264,-2.756,-2.679,-2.6953,-2.7547,-2.8096,0.0,-2.8398,-2.8567,0.0,0.0,0.0,0.0,-3.0216,-3.037,-3.0406,-3.0394,-3.0394,-3.0394,-3.0394,0.0,0.0,0.0,0.0,-3.0398,-3.0383,-3.0371,-3.0371,-3.0439,0.0,-3.0451,0.0,0.0,-3.0626,0.0,0.0,0.0,0.0,0.0,-3.0797,-3.0795,-3.0801,-3.0801,-3.0801,-3.0801,0.0,0.0,-3.0801,-3.0801,-3.0801,-3.0801,-3.0801,-3.0801,-3.0801,-3.0801,-3.0801,-3.0801,-3.0801,-3.0801,-3.0801,-3.0799,-3.0791,-3.0791,-3.0794,-3.0746,-3.076,-3.0788,0.0,0.0,0.0,0.0,0.0,0.0,0.0,0.0,0.0,0.0,0.0,0.0,0.0,0.0,0.0,0.0,0.0,0.0,-3.0359,-3.029,-3.0247,-3.0247,-3.0144,-3.0122,-3.0157,0.0,0.0,-3.0157,-3.0109,-3.0071,-3.0064,-3.0071,-3.0041,-3.0003,-3.0071,-3.0095,-3.0066,-3.0095,-3.0095,-3.0066,-3.0015,-3.0003,-2.9988,-2.9842,-2.9773,-2.9737,-2.9434,-2.9185,-2.8868,-2.8228,-2.7607,-2.7004,-2.7919,0.0,0.0,-2.9257,0.0,0.0,-2.9317,0.0,0.0,-3.0203,-3.0203,0.0,-3.0292,-3.0292,-3.0292,-3.0292,-3.0292,0.0,-3.0304,0.0,0.0,-3.0304,-3.0305,-3.0292,-3.0292,-3.0343,0.0,-3.0398,0.0,0.0,-3.0595,0.0,0.0,0.0,0.0,-3.0767,0.0,-3.08,-3.0797,-3.0797,-3.0762,0.0,0.0,-3.08,-3.08,-3.0798,-3.0793,-3.0808,-3.0801,-3.0801,-3.0801,-3.0801,-3.0801,-3.0801,-3.0801,-3.081,-3.0806,-3.0804,-3.0796,-3.0795,-3.0793,-3.0799,-3.0801,-3.0781,-3.0742,-3.0762,-3.0781,0.0,0.0,0.0,0.0,0.0,0.0,0.0,0.0,0.0,0.0,0.0,0.0,0.0,-3.0704,0.0,-3.0537,-3.0472,-3.0442,-3.0433,-3.0306,-3.0271,0.0,0.0,0.0,-3.037,-3.0247,-3.0216,-3.0235,-3.0216,-3.0177,-3.0142,-3.0216,-3.0222,-3.0196,-3.0222,-3.0222,-3.0203,-3.0169,-3.0142,-3.0128,-3.0026,-2.9981,-2.995,-2.9678,-2.9377,-2.9012,-2.8694,-2.8121,-2.75,0.0,0.0,0.0,0.0,0.0,0.0,0.0,-2.9888,0.0,-3.0064,0.0,-3.0161,-3.0393,-3.033,-3.0291,-3.0406,0.0,-3.026,-3.0247,-3.0241,-3.026,-3.0247,-3.0241,-3.0253,-3.0253,-3.0266,0.0,0.0,0.0,0.0,0.0,0.0,0.0,0.0,0.0,0.0,0.0,-3.0775,-3.0775,-3.0776,-3.0716,-3.0729,-3.0799,-3.0799,-3.0786,-3.0795,-3.0781,-3.0798,-3.0808,-3.0806,-3.0806,-3.0808,-3.0808,-3.0808,-3.079,-3.0799,-3.0796,-3.0793,-3.08,-3.08,-3.0801,-3.0797,-3.0795,-3.0795,-3.0793,-3.0792,-3.0792,-3.0792,-3.0792,-3.0793,0.0,0.0,0.0,0.0,0.0,0.0,0.0,0.0,0.0,0.0,0.0,0.0,-3.0691,-3.0653,-3.0621,-3.061,-3.0443,-3.0433,0.0,0.0,0.0,-3.061,-3.0383,-3.0317,-3.0423,0.0,-3.0263,-3.0253,-3.0309,-3.0309,-3.0278,-3.0317,-3.0317,-3.0278,-3.0266,-3.0253,-3.0253,-3.0209,-3.0216,-3.0171,-2.995,-2.9658,-2.9378,-2.9377,-2.8915,-2.821,0.0,0.0,0.0,0.0,0.0,-2.9888,-2.9888,-2.9888,-2.9905,-2.9921,-2.9956,-3.0222,-3.0975,-3.0405,-3.0273,-3.0975,-3.0386,0.0,0.0,0.0,0.0,-2.9965,-2.9969,-2.9969,-2.9969,-3.0079,-3.0194,0.0,0.0,0.0,0.0,0.0,0.0,0.0,0.0,0.0,-3.071,-3.0662,0.0,-3.071,-3.0703,-3.0703,-3.0723,-3.0723,-3.0726,-3.071,-3.0716,-3.0751,-3.08,-3.08,-3.08,-3.08,-3.08,-3.08,-3.08,-3.0799,-3.08,-3.08,-3.0797,-3.0798,-3.0797,-3.0804,-3.0799,-3.0794,-3.0806,-3.0802,-3.0802,-3.0802,-3.0802,-3.081,-3.0794,0.0,0.0,0.0,0.0,0.0,0.0,0.0,0.0,0.0,0.0,0.0,0.0,0.0,-3.0676,-3.0683,-3.0642,0.0,0.0,0.0,0.0,0.0,-3.0633,0.0,0.0,0.0,-3.0639,-3.054,-3.0605,-3.0626,-3.0599,-3.0626,-3.0626,-3.0618,-3.0539,-3.053,-3.053,-3.0359,-3.0247,-3.0203,-3.0157,-2.999,-2.9798,-2.9723,-2.9476,-2.9063,0.0,0.0,0.0,0.0,0.0,0.0,0.0,-3.0587,0.0,-3.0587,-3.0587,-3.089,-3.1743,-3.1459,-3.1383,-3.18,-3.144,-3.1023,-3.0606,-3.0587,-3.0362,-2.9907,-2.9888,0.0,-2.9888,-2.9953,-3.0064,-3.0213,0.0,0.0,0.0,0.0,0.0,0.0,0.0,-3.065,0.0,0.0,0.0,-3.0653,-3.0652,-3.0646,-3.0658,-3.0658,-3.067,-3.0706,-3.0706,-3.072,-3.0751,-3.0792,-3.0795,-3.079,-3.0796,-3.0797,-3.0796,-3.081,-3.0792,-3.0795,-3.0796,-3.0799,-3.0801,-3.0798,-3.081,-3.0806,-3.0804,-3.0799,-3.0799,-3.0799,-3.0799,-3.0793,-3.0807,-3.0806,0.0,0.0,0.0,0.0,0.0,0.0,0.0,0.0,0.0,0.0,0.0,0.0,0.0,0.0,0.0,0.0,0.0,0.0,0.0,0.0,0.0,0.0,0.0,0.0,0.0,-3.0689,-3.0693,-3.0716,-3.075,-3.072,-3.0695,-3.0703,-3.0664,-3.0653,-3.0645,-3.0557,-3.0472,-3.0411,-3.0411,-3.0275,-3.0094,-3.0023,-2.9842,-2.955,0.0,-2.9209,0.0,0.0,-2.9962,0.0,-3.1309,-3.1459,-3.1459,-3.1459,-3.1459,-3.1781,-3.2596,-3.252,-3.2482,-3.2672,-3.252,-3.2141,-3.1497,-3.1459,-3.108,-3.021,-3.0173,-3.0078,-2.9888,-2.9888,-2.9972,0.0,0.0,0.0,0.0,0.0,0.0,0.0,0.0,0.0,0.0,0.0,-3.0605,-3.0598,-3.0595,-3.0597,-3.0593,-3.0593,-3.0637,-3.0676,-3.0678,-3.0685,-3.069,-3.073,-3.0778,-3.0785,-3.078,-3.0782,-3.078,-3.0778,-3.0771,-3.078,-3.0769,-3.0778,-3.0774,-3.0779,-3.0789,-3.0784,-3.0769,-3.0774,-3.0774,-3.0774,-3.0789,-3.0779,-3.0774,-3.0774,0.0,0.0,0.0,0.0,0.0,0.0,0.0,0.0,0.0,0.0,0.0,0.0,0.0,0.0,0.0,0.0,0.0,0.0,0.0,0.0,0.0,-3.0775,-3.0715,0.0,-3.0739,-3.078,-3.0737,-3.0735,-3.0791,-3.0723,-3.0696,-3.0704,-3.0706,-3.0709,-3.0722,-3.071,-3.0685,-3.0642,-3.0618,-3.0519,-3.0383,-3.0278,-3.0103,-2.9855,0.0,0.0,0.0,0.0,0.0,0.0,-3.2125,-3.2293,-3.2293,-3.2293,-3.2293,-3.2615,-3.3486,-3.288,-3.2728,-3.3505,-3.2861,-3.2368,-3.2293,-3.2293,-3.1933,-3.1118,-3.108,-3.072,-2.9907,-2.9888,-2.9972,0.0,0.0,-3.0166,0.0,0.0,0.0,0.0,0.0,0.0,0.0,-3.0597,-3.0597,-3.0597,-3.0598,-3.0598,-3.0607,-3.0607,-3.0607,-3.0616,-3.0616,-3.0616,-3.0606,-3.0618,-3.0664,-3.0711,-3.0717,-3.0717,-3.0717,-3.0711,-3.0716,-3.072,-3.0709,-3.0709,-3.0714,-3.0709,-3.0704,-3.0711,-3.0716,-3.0709,-3.0709,-3.0709,-3.0704,-3.0711,-3.0709,-3.071,-3.073,0.0,0.0,0.0,0.0,0.0,0.0,0.0,0.0,0.0,0.0,-3.0702,0.0,0.0,0.0,0.0,0.0,0.0,0.0,-3.0804,0.0,-3.08,-3.0796,-3.0796,-3.0753,-3.0718,-3.0762,-3.0762,-3.0717,-3.0697,-3.0696,-3.0696,-3.0694,-3.073,-3.0782,-3.0781,-3.079,-3.0782,-3.0714,-3.0685,-3.0646,-3.0443,-3.0329,-3.0234,0.0,0.0,0.0,0.0,0.0,0.0,0.0,-3.2938,-3.3166,-3.3828,-3.3486,-3.3505,-3.432,-3.4112,-3.4036,-3.4396,-3.4093,-3.3695,-3.3221,-3.3183,-3.2804,-3.197,-3.1459,-3.1042,-3.0701,-3.0154,-2.9921,0.0,0.0,0.0,0.0,0.0,0.0,0.0,0.0,-3.0436,-3.049,-3.049,-3.054,-3.0598,-3.0598,-3.0598,-3.0598,-3.0598,-3.0598,-3.0598,-3.0598,-3.0598,-3.0598,-3.0597,-3.0621,-3.0661,-3.0683,-3.069,-3.069,-3.069,-3.0704,-3.0691,-3.0691,-3.0691,-3.0691,-3.0691,-3.0704,-3.069,-3.061,-3.0632,-3.0685,-3.0591,-3.0568,-3.0571,-3.0527,-3.0509,-3.0528,0.0,0.0,0.0,0.0,0.0,0.0,0.0,0.0,0.0,0.0,0.0,0.0,0.0,0.0,0.0,0.0,0.0,0.0,-3.0797,0.0,-3.0799,-3.079,-3.0801,-3.0785,-3.0756,-3.0719,-3.0693,-3.0704,-3.0612,-3.0609,-3.0644,-3.0682,-3.0718,-3.0736,-3.073,-3.0747,-3.0745,-3.0758,-3.0763,-3.0735,-3.0574,-3.0496,-3.0443,-3.0985,0.0,-3.1294,0.0,-3.1839,-3.2331,-3.3399,-3.3574,-3.3867,-3.4696,-3.4319,-3.4188,-3.4832,-3.4908,-3.4908,-3.4908,-3.4908,-3.4661,-3.4093,-3.4055,-3.3676,-3.2823,-3.1989,0.0,-3.1212,-3.0343,-2.9888,-2.9888,-2.9888,0.0,0.0,0.0,0.0,0.0,-3.0292,-3.033,-3.0371,-3.0371,-3.0436,-3.0509,-3.0509,-3.0509,-3.0509,-3.054,-3.053,-3.0509,-3.054,-3.053,-3.0509,-3.054,-3.055,-3.0567,-3.0637,-3.068,-3.068,-3.068,-3.0668,-3.0676,-3.0676,-3.0676,-3.0668,-3.0653,-3.0637,-3.0574,-3.0462,-3.0509,-3.0565,-3.0462,-3.0434,-3.0433,-3.0392,-3.037,-3.0378,-3.0402,0.0,0.0,0.0,0.0,0.0,0.0,-3.0413,-3.0393,-3.0432,0.0,0.0,0.0,0.0,0.0,0.0,0.0,0.0,0.0,0.0,0.0,0.0,-3.0774,-3.0789,-3.0801,-3.07,-3.0658,-3.0667,-3.0555,-3.0528,-3.0563,-3.0626,-3.0634,-3.0634,-3.0681,-3.0702,-3.0702,-3.0775,-3.0806,-3.0782,-3.0643,-3.0594,-3.0567,-3.0985,-3.0985,-3.1347,-3.2405,-3.2585,-3.2937,-3.4024,-3.4179,-3.4293,-3.4561,-3.4583,-3.4668,-3.4889,-3.4908,-3.4908,-3.4908,-3.4908,-3.4908,-3.4889,-3.4889,-3.4529,0.0,0.0,-3.2008,-3.1231,-3.0343,-2.9888,-2.9888,0.0,0.0,-2.9924,0.0,-3.0166,-3.0292,-3.0292,-3.0292,-3.0292,-3.0292,-3.0292,-3.0292,-3.0292,-3.0292,-3.0305,-3.0383,-3.0359,-3.0305,-3.0383,-3.0359,-3.0305,-3.0383,-3.0398,-3.0428,-3.0559,-3.0598,-3.0598,-3.0598,-3.0595,-3.0602,-3.0602,-3.0602,-3.0593,-3.0521,-3.046,-3.0398,-3.0325,-3.0306,-3.0306,-3.0306,-3.0304,-3.0299,-3.0294,-3.0304,-3.0323,-3.0381,0.0,0.0,0.0,0.0,0.0,0.0,-3.0565,-3.0563,-3.0501,0.0,0.0,0.0,0.0,0.0,0.0,0.0,0.0,-3.0607,-3.0665,0.0,-3.07,-3.0706,-3.0734,-3.0799,-3.0799,-3.0734,-3.0593,-3.0527,-3.0501,-3.051,-3.0498,-3.0507,-3.0496,-3.065,-3.0691,-3.07,-3.0776,-3.0801,-3.0781,-3.0641,-3.0589,-3.0599,-3.2632,-3.2632,-3.2734,-3.3102,-3.3138,-3.3323,-3.3858,-3.3921,-3.4023,-3.4293,-3.4316,-3.4321,-3.4288,-3.5181,-3.578,0.0,-3.578,-3.5533,0.0,-3.4908,-3.4794,-3.4529,-3.3733,-3.2899,-3.2046,-3.1762,-3.1345,-3.0795,0.0,0.0,0.0,-2.9874,-2.994,-3.0034,-3.0034,-3.0079,-3.019,-3.0801,-3.1073,-3.1161,-3.1774,-3.2004,-3.1947,-3.1373,-3.113,-3.1059,-3.0522,-3.0318,-3.0292,-3.033,-3.0343,-3.0343,-3.0379,-3.0488,-3.0598,-3.0598,-3.0607,-3.0597,-3.0597,-3.0597,-3.0559,-3.046,-3.0428,-3.0364,-3.0196,-3.0155,-3.0155,-3.0155,-3.0161,-3.0138,-3.0037,-3.003,-3.003,-3.0071,-3.0015,0.0,0.0,0.0,0.0,0.0,-3.0109,-3.0103,0.0,-3.0228,0.0,0.0,0.0,0.0,0.0,0.0,0.0,0.0,-3.0482,0.0,-3.0496,-3.0498,-3.0509,-3.0527,-3.0434,-3.034,-3.026,-3.029,-3.0302,-3.0294,-3.0383,-3.0434,-3.0443,-3.0477,-3.0521,-3.0576,-3.0586,-3.0652,-3.0723,-3.0675,-3.0703,-3.0732,-3.3304,-3.3334,-3.3352,-3.3352,-3.3364,-3.3452,-3.3615,-3.3643,-3.3726,-3.3972,-3.4023,-3.4141,-3.4426,-3.5549,0.0,-3.5951,-3.5894,-3.5708,-3.5282,-3.4961,-3.4791,-3.4791,-3.3998,-3.3299,-3.2751,-3.243,0.0,-3.1543,-3.145,-3.1149,-3.0659,-3.0659,-3.0696,-3.0731,-3.0731,-3.0784,-3.089,-3.1421,-3.1716,-3.1848,-3.24,-3.2626,-3.26,-3.2091,-3.1881,-3.1741,-3.0978,-3.0677,-3.0591,-3.0308,-3.0207,-3.024,-3.0279,-3.0398,-3.0488,-3.0488,-3.0488,-3.0488,-3.0488,-3.0488,-3.0466,-3.0316,-3.0292,-3.0241,-3.006,-3.0015,-3.0015,-3.0015,-3.0015,-2.9984,-2.9924,-2.9888,-2.9888,-2.9888,-2.9888,-2.9888,-2.9888,0.0,0.0,0.0,0.0,0.0,0.0,-3.0133,-3.0196,0.0,0.0,0.0,0.0,0.0,0.0,-3.029,-3.0333,0.0,-3.0351,-3.0351,-3.0381,-3.0402,-3.0259,-3.0182,-3.0138,-3.0161,-3.0155,-3.0174,-3.0248,-3.0278,-3.0283,-3.0309,-3.0362,-3.0402,-3.0433,-3.0521,-3.0593,-3.0586,-3.0646,-3.073,-3.3247,-3.3376,-3.3454,0.0,-3.3515,0.0,-3.3454,-3.3454,-3.3506,-3.3643,-3.3726,-3.4091,-3.4942,-3.5808,-3.611,-3.5578,0.0,0.0,0.0,-3.5083,-3.4614,-3.4614,-3.3808,-3.3342,-3.3264,-3.2629,-3.2253,-3.2177,-3.2177,-3.2139,-3.2083,-3.2083,-3.2083,-3.2103,-3.2103,-3.2103,-3.2103,-3.2159,-3.2257,-3.2373,-3.2449,-3.2506,-3.2559,-3.264,-3.2587,-3.2387,-3.1705,-3.1388,-3.1156,-3.043,-3.0156,-3.0185,-3.0259,-3.0266,-3.0266,-3.0292,-3.0292,-3.0292,-3.0292,-3.0292,-3.0266,-3.0138,-3.0094,-3.0045,-2.9921,-2.9888,-2.9888,-2.9888,-2.9888,-2.9888,-2.9888,-2.9888,-2.9888,-2.9888,-2.9888,-2.9888,-2.9888,0.0,0.0,0.0,0.0,0.0,0.0,-3.0169,-3.0118,0.0,0.0,0.0,0.0,0.0,-3.0352,-3.0075,-3.0213,-3.0267,-3.0271,-3.0271,-3.0306,-3.0351,-3.0234,-3.019,-3.019,-3.0109,-3.0072,-3.0053,-3.0038,-3.0057,-3.0087,-3.0142,-3.019,-3.0216,-3.0337,-3.0381,-3.0383,-3.0395,-3.0471,-3.06,0.0,0.0,-3.4983,-3.4983,-3.4983,-3.4817,-3.4173,-3.4083,-3.388,-3.3328,-3.3268,-3.3322,-3.3503,-3.4243,-3.4987,-3.5521,-3.6452,-3.6767,-3.6229,-3.5414,-3.4995,-3.4995,-3.4381,-3.3743,-3.309,-3.3693,-3.3658,-3.2935,-3.2935,-3.2636,-3.2016,-3.2016,-3.204,-3.2103,-3.2103,-3.2103,-3.2141,-3.276,-3.3025,-3.312,-3.3799,-3.4083,-3.4009,-3.3488,-3.3261,-3.3148,-3.2425,-3.2106,-3.192,-3.1193,-3.0873,-3.0688,-3.0162,-2.9984,-3.003,-3.024,-3.0292,-3.0292,-3.0292,-3.0292,-3.0266,-3.0138,-3.0015,-2.9937,-2.9905,-2.9888,-2.9888,-2.9888,-2.9888,-2.9888,-2.9888,-2.9888,-2.9888,-2.9888,-2.9888,-2.9888,-2.9888,-2.9888,0.0,0.0,-2.9969,-2.9969,-2.9969,-2.9969,-3.0,0.0,0.0,0.0,0.0,-3.0133,-3.0118,-2.9953,-2.9969,-3.0,-2.9996,-2.9996,-3.0011,-3.0026,-2.9981,-2.9965,-2.9965,-2.9786,-2.9716,-2.9698,-2.9551,-2.9608,-2.9805,-2.982,-2.9934,-3.0128,-3.0152,-3.0196,-3.0247,-3.0251,-3.0342,-3.0461,-3.5357,-3.5408,-3.546,-3.546,-3.5475,-3.5364,-3.4932,-3.486,-3.4684,-3.4221,-3.4181,-3.4024,-3.3538,-3.425,-3.4942,-3.537,-3.6168,-3.6644,-3.6659,-3.5907,-3.5284,-3.4917,-3.4631,-3.4094,-3.3283,-3.3833,-3.3877,-3.3377,-3.3377,-3.3204,-3.2868,-3.2868,-3.2943,-3.306,-3.306,-3.306,-3.3097,-3.3527,-3.3758,-3.384,-3.4308,-3.4539,-3.4567,-3.4158,-3.399,-3.3917,-3.309,-3.2788,-3.2579,-3.145,-3.1016,-3.0829,-3.0035,-2.9823,-2.9891,-3.0034,-3.0094,-3.0123,-3.0123,-3.0123,-3.0109,-3.0034,-2.9953,-2.9888,-2.9888,-2.9888,-2.9888,-2.9888,-2.9888,-2.9888,-2.9888,-2.9888,-2.9888,-2.9888,-2.9888,-2.9888,-2.9888,-2.9888,0.0,-2.9888,-2.9888,-2.9888,-2.9888,-2.9888,-2.9921,-3.0,-3.0019,0.0,-2.9972,-3.0003,-2.9937,-2.9769,-2.9751,-2.9716,-2.9626,-2.9626,-2.9626,-2.9626,-2.9626,-2.9626,-2.9626,-2.9513,-2.9474,-2.9455,-2.9355,-2.9375,-2.9513,-2.9513,-2.9608,-2.9753,-2.9857,-2.9902,-2.9943,-3.0037,-3.0163,-3.0314,-3.556,-3.5665,-3.5717,-3.5717,-3.5767,-3.5798,-3.5672,-3.5621,-3.5585,-3.5411,-3.5408,-3.5157,-3.4347,-3.4932,-3.5361,-3.5382,-3.5603,-3.614,-3.7094,-3.6404,-3.5659,-3.4988,-3.4775,-3.4368,-3.3731,-3.3632,-3.3605,-3.3605,-3.3605,-3.3671,-3.3842,-3.3842,-3.3947,-3.4124,-3.4124,-3.4124,-3.4124,-3.4148,-3.4221,-3.4316,-3.4316,-3.4427,-3.4539,-3.4517,-3.4539,-3.4486,-3.3736,-3.3473,-3.3227,-3.1765,-3.1165,-3.092,-3.0133,-2.9832,-2.979,-2.979,-2.9842,-2.9874,-2.9872,-2.9872,-2.9872,-2.9872,-2.9872,-2.9872,-2.9874,-2.9891,-2.9872,-2.9872,-2.9888,-2.9888,-2.9891,-2.9888,-2.9907,-2.9891,-2.9872,-2.9891,-2.9888,0.0,-2.9839,-2.9855,-2.9822,-2.9805,-2.9822,-2.9786,-2.9786,-2.9786,-2.9786,-2.977,-2.97,-2.9753,-2.9698,-2.9475,-2.9551,-2.9494,-2.9293,-2.9293,-2.9293,-2.9293,-2.9293,-2.9293,-2.9272,-2.9233,-2.9212,-2.9212,-2.9188,-2.9188,-2.9212,-2.9212,-2.9251,-2.9293,-2.9456,-2.9533,-2.9589,-2.977,-2.9934,-3.0066,-3.722,-3.7256,-3.7256,-3.7256,-3.7256,-3.7024,-3.6345,-3.6256,-3.6006,-3.5311,-3.5256,-3.5202,-3.5061,-3.515,-3.5489,-3.6149,-3.6256,-3.6612,-3.747,-3.679,-3.6254,-3.6128,-3.5069,-3.4388,-3.4261,-3.3818,-3.3605,-3.3605,-3.3605,-3.3633,-3.3661,-3.3661,-3.3671,-3.3698,-3.3698,-3.3698,-3.3698,-3.3868,-3.3947,-3.3972,-3.3972,-3.4099,-3.4245,-3.4197,-3.4269,-3.4431,-3.4411,-3.433,-3.4095,-3.3227,-3.2456,-3.1701,-3.0939,-3.0246,-2.972,-2.972,-2.9719,-2.9738,-2.9808,-2.9825,-2.9825,-2.9825,-2.9825,-2.9808,-2.9756,-2.9773,-2.9825,-2.9825,-2.9857,-2.9872,-2.9842,-2.9857,-2.9872,-2.9823,-2.9825,-2.9823,-2.9888,0.0,-2.957,-2.9644,-2.9455,-2.9334,-2.9395,-2.9295,-2.9254,-2.9295,-2.9314,-2.9275,-2.9212,-2.9275,-2.9151,-2.8847,-2.9319,-2.9494,-2.9293,-2.9293,-2.9293,-2.9293,-2.9251,-2.9209,-2.9209,-2.8929,-2.8795,-2.8772,-2.8608,-2.8658,-2.8883,-2.8819,-2.8952,-2.9209,-2.9191,-2.9275,-2.9434,-2.9472,-2.9493,-2.9551,-3.7577,-3.7577,-3.7577,-3.7577,-3.7577,-3.7452,-3.7095,-3.7041,-3.6899,-3.6542,-3.6488,-3.6328,-3.5899,-3.5846,-3.6006,-3.6363,-3.6399,-3.6738,-3.7541,-3.7238,-3.6845,-3.6417,-3.5377,-3.444,-3.3629,-3.3345,-3.3208,-3.3208,-3.3208,-3.3268,-3.3368,-3.3368,-3.3473,-3.3605,-3.3605,-3.3605,-3.3605,-3.3698,-3.3753,-3.3753,-3.3753,-3.3788,-3.3868,-3.3842,-3.3895,-3.3972,-3.4049,-3.4023,-3.3843,-3.3025,-3.2593,-3.221,-3.1312,-3.0968,-3.0917,-3.0777,-3.0242,-2.972,-2.9738,-2.9756,-2.9756,-2.9756,-2.9756,-2.9738,-2.972,-2.9719,-2.9756,-2.9756,-2.9773,-2.9773,-2.9756,-2.9773,-2.9773,-2.9756,-2.9756,0.0,0.0,-2.9682,-2.9589,-2.9493,-2.9394,-2.9291,-2.9191,-2.9148,-2.9107,-2.9148,-2.9148,-2.9104,-2.8997,-2.9104,-2.8993,-2.8658,-2.8855,-2.8902,-2.8821,-2.8821,-2.8821,-2.8803,-2.8779,-2.8773,-2.8755,-2.8608,-2.8533,-2.8533,-2.844,-2.8466,-2.8601,-2.8558,-2.8633,-2.8797,-2.886,-2.8952,-2.9042,-2.9188,-2.9251,-2.9251,-3.7411,-3.7449,-3.7449,-3.7577,-3.7577,-3.7577,-3.7577,-3.7577,-3.7577,-3.7577,-3.7577,-3.7345,-3.6738,-3.6684,-3.6684,-3.6684,-3.6684,-3.6934,-3.7541,-3.7577,-3.7309,-3.6702,-3.5739,-3.4472,-3.292,-3.2916,-3.2916,-3.2916,-3.2916,-3.2961,-3.3129,-3.3129,-3.3238,-3.3433,-3.3433,-3.3433,-3.3444,-3.3473,-3.3502,-3.3502,-3.3502,-3.353,-3.3605,-3.353,-3.3549,-3.3605,-3.3605,-3.3605,-3.3496,-3.283,-3.2592,-3.2485,-3.1636,-3.1562,-3.176,-3.1542,-3.0787,-2.9976,-2.9758,-2.9683,-2.9645,-2.9645,-2.9645,-2.9645,-2.9569,-2.9569,-2.9569,-2.9512,-2.955,-2.9569,-2.9569,-2.9569,-2.9569,-2.9569,0.0,0.0,0.0,-2.9491,-2.9392,-2.9251,-2.9166,-2.9079,-2.8948,-2.8902,-2.8902,-2.8906,-2.8906,-2.886,-2.8742,-2.8837,-2.8803,-2.851,-2.845,-2.8398,-2.8398,-2.8398,-2.8398,-2.8398,-2.838,-2.8398,-2.8398,-2.8353,-2.8345,-2.8345,-2.8273,-2.8246,-2.8273,-2.8228,-2.8246,-2.8282,-2.8489,-2.8621,-2.867,-2.8883,-2.8971,-2.8971,-3.686,-3.6939,-3.7073,-3.754,-3.7577,-3.7577,-3.7577,-3.7577,-3.7577,-3.7577,-3.7577,-3.7559,-3.7505,-3.7487,-3.7487,-3.7487,-3.7487,-3.7523,-3.7577,-3.7577,-3.7559,-3.7487,-3.6024,-3.4472,-3.292,-3.2916,-3.2916,-3.2916,-3.2916,-3.2916,-3.2916,-3.2916,-3.2948,-3.2948,-3.2948,-3.2948,-3.2961,-3.316,-3.322,-3.322,-3.322,-3.3386,-3.3559,-3.3309,-3.3368,-3.3605,-3.3605,-3.3605,-3.3587,-3.3532,-3.3022,-3.2402,-3.2265,-3.1719,-3.1162,-3.1144,-3.1071,-3.0803,-2.9942,-2.9626,-2.9512,-2.9512,-2.9512,-2.9453,-2.92,-2.9203,-2.9169,-2.8997,-2.9064,-2.9169,-2.923,-2.9188,-2.9169,-2.923,0.0,0.0,-2.9126,-2.8892,-2.87,-2.8748,-2.8533,-2.8388,-2.8458,-2.8327,-2.83,-2.8362,-2.8362,-2.8327,-2.8264,-2.8327,-2.8327,-2.8237,-2.8345,-2.8398,-2.8398,-2.8398,-2.8398,-2.8398,-2.8327,-2.83,-2.83,-2.8237,-2.8209,-2.8209,-2.7893,-2.7789,-2.7847,-2.7789,-2.7789,-2.7876,-2.8136,-2.8353,-2.8518,-2.8543,-2.8543,-2.8543,-3.644,-3.6481,-3.6603,-3.7073,-3.7167,-3.7281,-3.754,-3.7577,-3.7577,-3.7577,-3.7577,-3.7577,-3.7577,-3.7577,-3.7577,-3.7577,-3.7577,-3.7577,-3.7577,-3.7577,-3.7131,-3.6167,-3.5543,-3.4472,-3.292,-3.2916,-3.2916,-3.2916,-3.2916,-3.2916,-3.2916,-3.2916,-3.2916,-3.2916,-3.2916,-3.2916,-3.2916,-3.2993,-3.3024,-3.3024,-3.3024,-3.3086,-3.3147,-3.3055,-3.3086,-3.3178,-3.3178,-3.3178,-3.3178,-3.3178,-3.3039,-3.2875,-3.2709,-3.2658,-3.2538,-3.201,-3.1883,-3.1717,-3.0809,-3.0194,-2.9803,-2.9803,-2.9525,-2.9181,-2.8957,-2.9026,-2.9093,-2.8874,-2.8874,-2.892,-2.8962,-2.892,-2.892,-2.8962,0.0,-2.885,-2.8897,-2.8797,-2.8694,-2.8583,-2.8492,-2.838,-2.8291,-2.8237,-2.8209,-2.8237,-2.8237,-2.8237,-2.8182,-2.8209,-2.8237,-2.8182,-2.8035,-2.8063,-2.8264,-2.8264,-2.8264,-2.8264,-2.8035,-2.7933,-2.7904,-2.7672,-2.76,-2.7582,-2.7672,-2.7612,-2.743,-2.7624,-2.7595,-2.7461,-2.776,-2.7818,-2.7713,-2.7933,-2.8,-2.8017,-3.5977,-3.602,-3.6147,-3.6603,-3.6684,-3.6781,-3.7111,-3.7281,-3.7374,-3.7374,-3.7503,-3.7577,-3.7577,-3.7577,-3.7577,-3.7577,-3.7577,-3.7577,-3.7577,-3.7577,-3.6988,-3.565,-3.5578,-3.4847,-3.3294,-3.3277,-3.3134,-3.2916,-3.2916,-3.2916,-3.2916,-3.2916,-3.2916,-3.2916,-3.2916,-3.2916,-3.2916,-3.2916,-3.2916,-3.2916,-3.2916,-3.2916,-3.2916,-3.2916,-3.2916,-3.2916,-3.2916,-3.2916,-3.2916,-3.2916,-3.2993,-3.3086,-3.293,-3.3117,-3.3248,-3.2669,-3.2524,-3.2433,-3.1826,-3.1102,-3.0504,-3.0374,-2.985,-2.9337,-2.9125,-2.8998,-2.8839,-2.8644,-2.8619,-2.8644,-2.8676,-2.8669,-2.8644,-2.8694,-2.8669,-2.8619,-2.8619,-2.8619,-2.8569,-2.8432,-2.8406,-2.8353,-2.8209,-2.8182,-2.8182,-2.8182,-2.8182,-2.8154,-2.8053,-2.8053,-2.7996,-2.7911,-2.7672,-2.7642,-2.7864,-2.7882,-2.794,-2.8025,-2.7701,-2.7612,-2.7701,-2.7369,-2.7213,-2.7213,-2.7321,-2.7276,-2.7053,-2.7241,-2.721,-2.7085,-2.7382,-2.7334,-2.7164,-2.7413,-2.7457,-2.7457,-3.5498,-3.5571,-3.5749,-3.613,-3.619,-3.619,-3.6172,-3.6603,-3.69,-3.69,-3.7281,-3.7577,-3.7577,-3.7577,-3.7577,-3.7577,-3.7577,-3.7577,-3.7594,-3.7594,-3.7238,-3.6435,-3.6399,-3.5685,-3.4151,-3.4115,-3.3723,-3.2934,-3.2934,-3.2934,-3.2916,-3.2916,-3.2916,-3.2916,-3.2916,-3.2916,-3.2916,-3.2916,-3.2916,-3.2916,-3.2916,-3.2916,-3.2916,-3.2916,-3.2916,-3.2916,-3.2916,-3.2916,-3.2916,-3.2916,-3.2916,-3.2916,-3.2916,-3.2916,-3.2916,-3.2916,-3.2916,-3.2916,-3.2916,-3.2313,-3.1631,-3.1202,-3.0545,-2.9955,-2.9755,-2.9088,-2.8458,-2.8237,-2.8182,-2.8264,-2.844,-2.8327,-2.8264,-2.8484,-2.8327,-2.8182,-2.8182,-2.8182,-2.8182,-2.8182,-2.8182,-2.8182,-2.82,-2.82,-2.8182,-2.8182,-2.8182,-2.8053,-2.7701,-2.7701,-2.7535,-2.7213,-2.7213,-2.7181,-2.7181,-2.7213,-2.7369,-2.7701,-2.7369,-2.7369,-2.7672,-2.7338,-2.7181,-2.7181,-2.6858,-2.6691,-2.6691,-2.6539,-2.659,-2.6725,-2.6905,-2.6985,-2.6985,-2.6985,-2.6952,-2.6905,-3.5071,-3.5102,-3.5224,-3.5688,-3.5776,-3.5847,-3.6147,-3.6316,-3.6399,-3.6399,-3.6522,-3.6603,-3.6603,-3.69,-3.7111,-3.7111,-3.7411,-3.7558,-3.741,-3.7372,-3.7228,-3.6829,-3.6541,-3.5917,-3.49,-3.4882,-3.4757,-3.4508,-3.4508,-3.4258,-3.374,-3.374,-3.3437,-3.2916,-3.2916,-3.2916,-3.2916,-3.2916,-3.2916,-3.2916,-3.2916,-3.2916,-3.2916,-3.2916,-3.2916,-3.2916,-3.2916,-3.2916,-3.2916,-3.2916,-3.2916,-3.2916,-3.2916,-3.2916,-3.2916,-3.2916,-3.2916,-3.2916,-3.2916,-3.2706,-3.2362,-3.1679,-3.1044,-3.0523,-3.0299,-2.979,-2.9287,-2.9076,-2.8602,-2.8209,-2.8291,-2.8237,-2.8209,-2.8291,-2.8237,-2.8182,-2.8182,-2.8182,-2.8182,-2.8182,-2.8182,-2.8126,-2.7864,-2.7864,-2.773,-2.7539,-2.7491,-2.7461,-2.7369,-2.7338,-2.7307,-2.7213,-2.6989,-2.6808,-2.6707,-2.7036,-2.7244,-2.7338,-2.7021,-2.6891,-2.6971,-2.664,-2.6452,-2.6383,-2.6488,-2.6401,-2.6154,-2.6349,-2.6314,-2.6154,-2.647,-2.6436,-2.6279,-2.6505,-2.6573,-2.6573,-3.4899,-3.4899,-3.4977,-3.5287,-3.5316,-3.5407,-3.5644,-3.5847,-3.5977,-3.5977,-3.6274,-3.644,-3.6374,-3.686,-3.7111,-3.6974,-3.7185,-3.7317,-3.7182,-3.7182,-3.7143,-3.7027,-3.6761,-3.6272,-3.5438,-3.5438,-3.5279,-3.496,-3.496,-3.473,-3.4304,-3.4304,-3.4039,-3.356,-3.356,-3.356,-3.3543,-3.3241,-3.3151,-3.3115,-3.2796,-3.2672,-3.2672,-3.2672,-3.2672,-3.2672,-3.2737,-3.2737,-3.2672,-3.2737,-3.277,-3.277,-3.2705,-3.2705,-3.277,-3.2672,-3.2672,-3.2672,-3.2672,-3.2672,-3.2565,-3.2069,-3.1546,-3.1135,-3.1005,-3.0485,-2.9986,-2.9862,-2.9458,-2.9091,-2.9091,-2.8887,-2.8691,-2.8691,-2.8396,-2.8182,-2.8182,-2.8182,-2.8182,-2.8182,-2.8182,-2.8053,-2.773,-2.7701,-2.7535,-2.7147,-2.7181,-2.7117,-2.6922,-2.6922,-2.6873,-2.6708,-2.6487,-2.6349,-2.6245,-2.6539,-2.6758,-2.6891,-2.6556,-2.6453,-2.6556,-2.6241,-2.6043,-2.599,-2.6156,-2.6137,-2.5917,-2.6066,-2.603,-2.5917,-2.6066,-2.5885,-2.5642,-2.5994,-2.5905,-2.5594,-3.4835,-3.4835,-3.4835,-3.4835,-3.4835,-3.4835,-3.4835,-3.5241,-3.5481,-3.5481,-3.619,-3.662,-3.6433,-3.6995,-3.7261,-3.6873,-3.6891,-3.693,-3.6987,-3.6987,-3.6948,-3.6891,-3.693,-3.6558,-3.5819,-3.5878,-3.5528,-3.4809,-3.4809,-3.4791,-3.4721,-3.4721,-3.4686,-3.4616,-3.4616,-3.4616,-3.4581,-3.3879,-3.3581,-3.3528,-3.2792,-3.2494,-3.2494,-3.2494,-3.2494,-3.2529,-3.27,-3.2666,-3.2511,-3.2629,-3.2679,-3.2627,-3.237,-3.242,-3.2539,-3.2352,-3.2283,-3.2283,-3.2283,-3.2283,-3.2283,-3.2283,-3.2024,-3.1765,-3.1765,-3.1159,-3.0558,-3.0588,-3.0517,-3.0451,-3.0481,-2.9929,-2.9465,-2.9494,-2.8859,-2.8396,-2.8396,-2.8396,-2.8396,-2.8322,-2.8322,-2.8174,-2.7747,-2.7617,-2.7365,-2.692,-2.7036,-2.6906,-2.6471,-2.6437,-2.6315,-2.601,-2.5917,-2.5881,-2.5881,-2.5881,-2.6046,-2.6349,-2.6063,-2.6063,-2.6349,-2.599,-2.5844,-2.5807,-2.577,-2.577,-2.5807,-2.5663,-2.5717,-2.5807,-2.5717,-2.54,-2.5052,-2.546,-2.5036,-2.4343,-3.4594,-3.4594,-3.4594,-3.4594,-3.4594,-3.4594,-3.4594,-3.4675,-3.4723,-3.4723,-3.488,-3.5021,-3.4944,-3.5402,-3.5698,-3.5582,-3.6165,-3.6591,-3.6766,-3.6783,-3.6544,-3.6071,-3.6301,-3.6274,-3.5788,-3.6429,-3.6636,-3.6478,-3.6478,-3.6162,-3.5528,-3.5528,-3.5194,-3.4616,-3.4616,-3.4616,-3.4598,-3.444,-3.437,-3.4353,-3.4177,-3.4107,-3.4107,-3.4107,-3.4107,-3.4107,-3.4144,-3.4144,-3.4019,-3.3494,-3.3301,-3.3196,-3.2511,-3.2318,-3.2352,-3.2318,-3.2283,-3.2283,-3.2283,-3.2283,-3.2283,-3.2283,-3.2229,-3.2207,-3.2373,-3.1691,-3.1079,-3.1172,-3.0631,-3.0162,-3.0305,-3.007,-2.9978,-3.022,-3.0036,-2.9839,-2.9839,-2.9941,-2.9816,-2.9283,-2.9365,-2.896,-2.7674,-2.6788,-2.6279,-2.6227,-2.6189,-2.6154,-2.6046,-2.6046,-2.599,-2.5917,-2.5917,-2.5844,-2.5738,-2.5738,-2.5828,-2.6026,-2.5917,-2.5917,-2.599,-2.5551,-2.5323,-2.5246,-2.4902,-2.4887,-2.5098,-2.5114,-2.5098,-2.5153,-2.5508,-2.5107,-2.4354,-2.4768,-2.4583,-2.4162,-3.4497,-3.4497,-3.4497,-3.4497,-3.4497,-3.4497,-3.4497,-3.4497,-3.4497,-3.4497,-3.4706,-3.4802,-3.4691,-3.5207,-3.5493,-3.534,-3.5627,-3.5881,-3.5958,-3.6002,-3.5827,-3.5543,-3.5854,-3.6002,-3.581,-3.6199,-3.6426,-3.6426,-3.6241,-3.595,-3.5513,-3.5697,-3.5572,-3.5175,-3.5352,-3.5392,-3.5414,-3.5048,-3.4909,-3.4874,-3.4509,-3.437,-3.437,-3.437,-3.437,-3.437,-3.4411,-3.4356,-3.415,-3.3675,-3.3554,-3.3561,-3.3014,-3.3043,-3.3157,-3.2735,-3.2595,-3.2508,-3.216,-3.2055,-3.2055,-3.2055,-3.2055,-3.2126,-3.2386,-3.2087,-3.1739,-3.1822,-3.1421,-3.1124,-3.124,-3.0876,-3.063,-3.0822,-3.0328,-2.9922,-2.9922,-2.9837,-2.9671,-2.9283,-2.9334,-2.9059,-2.8059,-2.7337,-2.6913,-2.6929,-2.6913,-2.6875,-2.6853,-2.6853,-2.6853,-2.6853,-2.6798,-2.6558,-2.6178,-2.6178,-2.6054,-2.5749,-2.553,-2.553,-2.5749,-2.5052,-2.4839,-2.4958,-2.4558,-2.4436,-2.4599,-2.4599,-2.4599,-2.4639,-2.4815,-2.4436,-2.3794,-2.4199,-2.4032,-2.3623,-3.4448,-3.4448,-3.4448,-3.4448,-3.4448,-3.4448,-3.4448,-3.4448,-3.4448,-3.4448,-3.4785,-3.4975,-3.4787,-3.5253,-3.5537,-3.5386,-3.5191,-3.5131,-3.5178,-3.5224,-3.5178,-3.5131,-3.5498,-3.5677,-3.5588,-3.5588,-3.5677,-3.5827,-3.5407,-3.5224,-3.5224,-3.5543,-3.5677,-3.5722,-3.5985,-3.6114,-3.6079,-3.5462,-3.5204,-3.5153,-3.4535,-3.4294,-3.4294,-3.4294,-3.4335,-3.4416,-3.4523,-3.4404,-3.4103,-3.3802,-3.3751,-3.3792,-3.3532,-3.3727,-3.3965,-3.3227,-3.3016,-3.2844,-3.2179,-3.1952,-3.1863,-3.1743,-3.1671,-3.1728,-3.2038,-3.2179,-3.2214,-3.2249,-3.2179,-3.2127,-3.2162,-3.1638,-3.1236,-3.1322,-3.0507,-2.9851,-2.9851,-2.9608,-2.934,-2.9231,-2.9093,-2.8878,-2.8572,-2.8178,-2.7947,-2.7916,-2.7923,-2.7907,-2.7875,-2.7875,-2.7818,-2.7721,-2.7623,-2.7267,-2.6623,-2.6607,-2.6254,-2.5532,-2.5068,-2.5084,-2.5448,-2.4533,-2.4313,-2.4623,-2.4204,-2.4051,-2.412,-2.4135,-2.412,-2.412,-2.4078,-2.3709,-2.3275,-2.3537,-2.3391,-2.2965,-3.4151,-3.4151,-3.4151,-3.4151,-3.4151,-3.4151,-3.4151,-3.4151,-3.4151,-3.4151,-3.4184,-3.4234,-3.4201,-3.4284,-3.4464,-3.4771,-3.4771,-3.4866,-3.5178,-3.5224,-3.5085,-3.4787,-3.5102,-3.5148,-3.4883,-3.4835,-3.5148,-3.5827,-3.5407,-3.5224,-3.5224,-3.527,-3.527,-3.527,-3.5316,-3.5362,-3.5345,-3.5244,-3.5211,-3.5194,-3.511,-3.5059,-3.5059,-3.5059,-3.5256,-3.5564,-3.5591,-3.5564,-3.5419,-3.4695,-3.4276,-3.3929,-3.3265,-3.3108,-3.3203,-3.3362,-3.341,-3.3339,-3.2878,-3.2539,-3.2173,-3.1543,-3.1123,-3.1004,-3.1355,-3.1654,-3.1929,-3.2108,-3.1765,-3.1487,-3.1657,-3.1459,-3.1408,-3.1756,-3.1526,-3.131,-3.131,-3.1182,-3.0862,-3.0186,-2.9346,-2.882,-2.8862,-2.8184,-2.7802,-2.7875,-2.7802,-2.7745,-2.7721,-2.7721,-2.7524,-2.7031,-2.7031,-2.6769,-2.6269,-2.6269,-2.5914,-2.5261,-2.4861,-2.4756,-2.4942,-2.3948,-2.3537,-2.358,-2.3157,-2.3142,-2.3363,-2.3493,-2.345,-2.3391,-2.3794,-2.3363,-2.254,-2.2586,-2.2495,-2.2356,-3.4101,-3.4101,-3.4101,-3.4101,-3.4101,-3.4101,-3.4101,-3.4101,-3.4101,-3.4101,-3.4101,-3.4101,-3.4101,-3.4101,-3.4151,-3.4349,-3.4349,-3.4448,-3.4578,-3.4578,-3.4529,-3.4349,-3.4723,-3.4818,-3.4691,-3.4691,-3.4883,-3.5195,-3.4754,-3.4578,-3.4561,-3.4818,-3.4913,-3.4913,-3.5131,-3.5224,-3.5224,-3.5224,-3.5224,-3.5224,-3.5224,-3.5224,-3.5224,-3.5224,-3.5316,-3.5453,-3.5453,-3.5316,-3.5144,-3.4764,-3.4572,-3.4399,-3.4021,-3.406,-3.4186,-3.39,-3.3826,-3.37,-3.3102,-3.2857,-3.2648,-3.2328,-3.1825,-3.1465,-3.1587,-3.1427,-3.1372,-3.1819,-3.1617,-3.1334,-3.1411,-3.1201,-3.1083,-3.1278,-3.1067,-3.0851,-3.0851,-3.0707,-3.0435,-3.013,-2.9697,-2.9432,-2.9475,-2.914,-2.8962,-2.902,-2.8962,-2.8818,-2.8483,-2.8483,-2.8186,-2.7566,-2.7566,-2.7257,-2.6533,-2.6533,-2.6032,-2.4965,-2.4582,-2.4415,-2.4436,-2.348,-2.3127,-2.3275,-2.2873,-2.2752,-2.2844,-2.2949,-2.2934,-2.2889,-2.3024,-2.2768,-2.2278,-2.2278,-2.2231,-2.2231]},{"header":{"parameterUnit":"m.s-1","parameterCategory":1,"la1":30.6,"la2":28.766,"lo1":-90.7593,"lo2":-88.6598,"dy":0.0162,"dx":0.0183,"nx":116,"ny":114,"refTime":"2023-04-29T12:00:00:Z","depth":0,"parameterNumber":3,"parameterNumberName":"V-component_of_WINDS"},"data":[0.0,0.0,0.0,0.0,0.0,0.0,0.0,0.0,0.0,0.0,0.0,0.0,0.0,0.0,0.0,0.0,0.0,0.0,0.0,0.0,0.0,0.0,0.0,0.0,0.0,0.0,0.0,0.0,0.0,0.0,0.0,0.0,0.0,0.0,0.0,0.0,0.0,0.0,0.0,0.0,0.0,0.0,0.0,0.0,0.0,0.0,0.0,0.0,0.0,0.0,0.0,0.0,0.0,0.0,0.0,0.0,0.0,0.0,0.0,0.0,0.0,0.0,0.0,0.0,0.0,0.0,0.0,0.0,0.0,0.0,0.0,0.0,0.0,0.0,0.0,0.0,0.0,0.0,0.0,0.0,0.0,0.0,0.0,0.0,0.0,0.0,0.0,0.0,0.0,0.0,0.0,0.0,0.0,0.0,0.0,0.0,0.0,0.0,0.0,0.0,0.0,0.0,0.0,0.0,0.0,0.0,0.0,0.0,0.0,0.0,0.0,0.0,0.0,0.0,0.0,0.0,0.0,0.0,0.0,0.0,0.0,0.0,0.0,0.0,0.0,0.0,0.0,0.0,0.0,0.0,0.0,0.0,0.0,0.0,0.0,0.0,0.0,0.0,0.0,0.0,0.0,0.0,0.0,0.0,0.0,0.0,0.0,0.0,0.0,0.0,0.0,0.0,0.0,0.0,0.0,0.0,0.0,0.0,0.0,0.0,0.0,0.0,0.0,0.0,0.0,0.0,0.0,0.0,0.0,0.0,0.0,0.0,0.0,0.0,0.0,0.0,0.0,0.0,0.0,0.0,0.0,0.0,0.0,0.0,0.0,0.0,0.0,0.0,0.0,0.0,0.0,0.0,0.0,0.0,0.0,0.0,0.0,0.0,0.0,0.0,0.0,0.0,0.0,0.0,0.0,0.0,0.0,0.0,0.0,0.0,0.0,0.0,0.0,0.0,0.0,0.0,0.0,0.0,0.0,0.0,0.0,0.0,0.0,0.0,0.0,0.0,0.0,0.0,0.0,0.0,0.0,0.0,0.0,0.0,0.0,0.0,0.0,0.0,0.0,0.0,0.0,0.0,0.0,0.0,0.0,0.0,0.0,0.0,0.0,0.0,0.0,0.0,0.0,0.0,0.0,0.0,0.0,0.0,0.0,0.0,0.0,0.0,0.0,0.0,0.0,0.0,0.0,0.0,0.0,0.0,0.0,0.0,0.0,0.0,0.0,0.0,0.0,0.0,0.0,0.0,0.0,0.0,0.0,0.0,0.0,0.0,0.0,0.0,0.0,0.0,0.0,0.0,0.0,0.0,0.0,0.0,0.0,0.0,0.0,0.0,0.0,0.0,0.0,0.0,0.0,0.0,0.0,0.0,0.0,0.0,0.0,0.0,0.0,0.0,0.0,0.0,0.0,0.0,0.0,0.0,0.0,0.0,0.0,0.0,0.0,0.0,0.0,0.0,0.0,0.0,0.0,0.0,0.0,0.0,0.0,0.0,0.0,0.0,0.0,0.0,0.0,0.0,0.0,0.0,0.0,0.0,0.0,0.0,0.0,0.0,0.0,0.0,0.0,0.0,0.0,0.0,0.0,0.0,0.0,0.0,0.0,0.0,0.0,0.0,0.0,0.0,0.0,0.0,0.0,0.0,0.0,0.0,0.0,0.0,0.0,0.0,0.0,0.0,0.0,0.0,0.0,0.0,0.0,0.0,0.0,0.0,0.0,0.0,0.0,0.0,0.0,0.0,0.0,0.0,0.0,0.0,0.0,0.0,0.0,0.0,0.0,0.0,0.0,0.0,0.0,0.0,0.0,0.0,0.0,0.0,0.0,0.0,0.0,0.0,0.0,0.0,0.0,0.0,0.0,0.0,0.0,0.0,0.0,0.0,0.0,0.0,0.0,0.0,0.0,0.0,0.0,0.0,0.0,0.0,0.0,0.0,0.0,0.0,0.0,0.0,0.0,0.0,0.0,0.0,0.0,0.0,0.0,0.0,0.0,0.0,0.0,0.0,0.0,0.0,0.0,0.0,0.0,0.0,0.0,0.0,0.0,0.0,0.0,0.0,0.0,0.0,0.0,0.0,0.0,0.0,0.0,0.0,0.0,0.0,0.0,0.0,0.0,0.0,0.0,0.0,0.0,0.0,0.0,0.0,0.0,0.0,0.0,0.0,0.0,0.0,0.0,0.0,0.0,0.0,0.0,0.0,0.0,0.0,0.0,0.0,0.0,0.0,0.0,0.0,0.0,0.0,0.0,0.0,0.0,0.0,0.0,0.0,0.0,0.0,0.0,0.0,0.0,0.0,0.0,0.0,0.0,0.0,0.0,0.0,0.0,0.0,0.0,0.0,0.0,0.0,0.0,0.0,0.0,0.0,0.0,0.0,0.0,0.0,0.0,0.0,0.0,0.0,0.0,0.0,0.0,0.0,0.0,0.0,0.0,0.0,0.0,0.0,0.0,0.0,0.0,0.0,0.0,0.0,0.0,0.0,0.0,0.0,0.0,0.0,0.0,0.0,0.0,0.0,0.0,0.0,0.0,0.0,0.0,0.0,0.0,0.0,0.0,0.0,0.0,0.0,0.0,0.0,0.0,0.0,0.0,0.0,0.0,0.0,0.0,0.0,0.0,0.0,0.0,0.0,0.0,0.0,0.0,0.0,0.0,0.0,0.0,0.0,0.0,0.0,0.0,0.0,0.0,0.0,0.0,0.0,0.0,0.0,0.0,0.0,0.0,0.0,0.0,0.0,0.0,0.0,0.0,0.0,0.0,0.0,0.0,0.0,0.0,0.0,0.0,0.0,0.0,0.0,0.0,0.0,0.0,0.0,0.0,0.0,0.0,0.0,0.0,0.0,0.0,0.0,0.0,0.0,0.0,0.0,0.0,0.0,0.0,0.0,0.0,0.0,0.0,0.0,0.0,0.0,0.0,0.0,0.0,0.0,0.0,0.0,0.0,0.0,0.0,0.0,0.0,0.0,0.0,0.0,0.0,0.0,0.0,0.0,0.0,0.0,0.0,0.0,0.0,0.0,0.0,0.0,0.0,0.0,0.0,0.0,0.0,0.0,0.0,0.0,0.0,0.0,0.0,0.0,0.0,0.0,0.0,0.0,0.0,0.0,0.0,0.0,0.0,0.0,0.0,0.0,0.0,0.0,0.0,0.0,0.0,0.0,0.0,0.0,0.0,0.0,0.0,0.0,0.0,0.0,0.0,0.0,0.0,0.0,0.0,0.0,0.0,0.0,0.0,0.0,0.0,0.0,0.0,0.0,0.0,0.0,0.0,0.0,0.0,0.0,0.0,0.0,0.0,0.0,0.0,0.0,0.0,0.0,0.0,0.0,0.0,0.0,0.0,0.0,0.0,0.0,0.0,0.0,0.0,0.0,0.0,0.0,0.0,0.0,0.0,0.0,0.0,0.0,0.0,0.0,0.0,0.0,0.0,0.0,0.0,0.0,0.0,0.0,0.0,0.0,0.0,0.0,0.0,0.0,0.0,0.0,0.0,0.0,0.0,0.0,0.0,0.0,0.0,0.0,0.0,0.0,0.0,0.0,0.0,0.0,0.0,0.0,0.0,0.0,0.0,0.0,0.0,0.0,0.0,0.0,0.0,0.0,0.0,0.0,0.0,0.0,0.0,0.0,0.0,0.0,0.0,0.0,0.0,0.0,0.0,0.0,0.0,0.0,0.0,0.0,0.0,0.0,0.0,0.0,0.0,0.0,0.0,0.0,0.0,0.0,0.0,0.0,0.0,0.0,0.0,0.0,0.0,0.0,0.0,0.0,0.0,0.0,0.0,0.0,0.0,0.0,0.0,0.0,0.0,0.0,0.0,0.0,0.0,0.0,0.0,0.0,0.0,0.0,0.0,0.0,0.0,0.0,0.0,0.0,0.0,0.0,0.0,0.0,0.0,0.0,0.0,0.0,0.0,0.0,0.0,0.0,0.0,0.0,0.0,0.0,0.0,0.0,0.0,0.0,0.0,0.0,0.0,0.0,0.0,0.0,0.0,0.0,0.0,0.0,0.0,0.0,0.0,0.0,0.0,0.0,0.0,0.0,0.0,0.0,0.0,0.0,0.0,0.0,0.0,0.0,0.0,0.0,0.0,0.0,0.0,0.0,0.0,0.0,0.0,0.0,0.0,0.0,0.0,0.0,0.0,0.0,0.0,0.0,0.0,0.0,0.0,0.0,0.0,0.0,0.0,0.0,0.0,0.0,0.0,0.0,0.0,0.0,0.0,0.0,0.0,0.0,0.0,0.0,0.0,0.0,0.0,0.0,0.0,0.0,0.0,0.0,0.0,0.0,0.0,0.0,0.0,0.0,0.0,0.0,0.0,0.0,0.0,0.0,0.0,0.0,0.0,0.0,0.0,0.0,0.0,0.0,0.0,0.0,0.0,0.0,0.0,0.0,0.0,0.0,0.0,0.0,0.0,0.0,0.0,0.0,0.0,0.0,0.0,0.0,0.0,0.0,0.0,0.0,0.0,0.0,0.0,0.0,0.0,0.0,0.0,0.0,0.0,0.0,0.0,0.0,0.0,0.0,0.0,0.0,0.0,0.0,0.0,0.0,0.0,0.0,0.0,0.0,0.0,0.0,0.0,0.0,0.0,0.0,0.0,0.0,0.0,0.0,0.0,0.0,0.0,0.0,0.0,0.0,0.0,0.0,0.0,0.0,0.0,0.0,0.0,0.0,0.0,0.0,0.0,0.0,0.0,0.0,0.0,0.0,0.0,0.0,0.0,0.0,0.0,0.0,0.0,0.0,0.0,0.0,0.0,0.0,0.0,0.0,0.0,0.0,0.0,0.0,0.0,0.0,0.0,0.0,0.0,0.0,0.0,0.0,0.0,0.0,0.0,0.0,0.0,0.0,0.0,0.0,0.0,0.0,0.0,0.0,0.0,0.0,0.0,0.0,0.0,0.0,0.0,0.0,0.0,0.0,0.0,0.0,0.0,0.0,0.0,0.0,0.0,0.0,0.0,0.0,0.0,0.0,0.0,0.0,0.0,0.0,0.0,0.0,0.0,0.0,0.0,0.0,0.0,0.0,0.0,0.0,0.0,0.0,0.0,0.0,0.0,0.0,0.0,0.0,0.0,0.0,0.0,0.0,0.0,0.0,0.0,0.0,0.0,0.0,0.0,0.0,0.0,0.0,0.0,0.0,0.0,0.0,0.0,0.0,0.0,0.0,0.0,0.0,0.0,0.0,0.0,0.0,0.0,0.0,0.0,0.0,0.0,0.0,0.0,0.0,0.0,0.0,0.0,0.0,0.0,0.0,0.0,0.0,0.0,0.0,0.0,0.0,0.0,0.0,0.0,0.0,0.0,0.0,0.0,0.0,0.0,0.0,0.0,0.0,0.0,0.0,0.0,0.0,0.0,0.0,0.0,0.0,0.0,0.0,0.0,0.0,0.0,0.0,0.0,0.0,0.0,0.0,0.0,0.0,0.0,0.0,0.0,0.0,0.0,0.0,0.0,0.0,0.0,0.0,0.0,0.0,0.0,0.0,0.0,0.0,0.0,0.0,0.0,0.0,0.0,0.0,0.0,0.0,0.0,0.0,0.0,0.0,0.0,0.0,0.0,0.0,0.0,0.0,0.0,0.0,0.0,0.0,0.0,0.0,0.0,0.0,0.0,0.0,0.0,0.0,0.0,0.0,0.0,0.0,0.0,0.0,0.0,0.0,0.0,0.0,0.0,0.0,0.0,0.0,0.0,0.0,0.0,0.0,0.0,0.0,0.0,0.0,0.0,0.0,0.0,0.0,0.0,0.0,0.0,0.0,0.0,0.0,0.0,0.0,0.0,0.0,0.0,0.0,0.0,0.0,0.0,0.0,0.0,0.0,0.0,0.0,0.0,0.0,0.0,0.0,0.0,0.0,0.0,0.0,0.0,0.0,0.0,0.0,0.0,0.0,0.0,0.0,0.0,0.0,0.0,0.0,0.0,0.0,0.0,0.0,0.0,0.0,0.0,0.0,0.0,0.0,0.0,0.0,0.0,0.0,0.0,0.0,0.0,0.0,0.0,0.0,0.0,0.0,0.0,0.0,0.0,0.0,0.0,0.0,0.0,0.0,0.0,0.0,0.0,0.0,0.0,0.0,0.0,0.0,0.0,0.0,-1.5187,0.0,0.0,0.0,0.0,0.0,0.0,0.0,0.0,0.0,0.0,0.0,0.0,0.0,0.0,0.0,0.0,0.0,0.0,0.0,0.0,0.0,0.0,0.0,0.0,0.0,0.0,0.0,0.0,0.0,0.0,0.0,0.0,0.0,0.0,0.0,0.0,0.0,0.0,0.0,0.0,0.0,0.0,0.0,0.0,0.0,0.0,0.0,0.0,0.0,0.0,0.0,0.0,0.0,0.0,0.0,0.0,0.0,0.0,0.0,0.0,0.0,0.0,0.0,0.0,0.0,0.0,0.0,0.0,0.0,0.0,0.0,0.0,0.0,0.0,0.0,0.0,0.0,0.0,0.0,0.0,0.0,0.0,0.0,0.0,0.0,0.0,0.0,0.0,0.0,0.0,0.0,0.0,0.0,0.0,0.0,0.0,0.0,0.0,0.0,0.0,0.0,0.0,0.0,0.0,0.0,0.0,0.0,0.0,0.0,0.0,0.0,0.0,0.0,0.0,0.0,0.0,-1.5277,0.0,0.0,0.0,0.0,0.0,0.0,0.0,0.0,0.0,0.0,0.0,0.0,0.0,0.0,0.0,0.0,0.0,0.0,0.0,0.0,0.0,0.0,0.0,0.0,0.0,0.0,0.0,0.0,0.0,0.0,0.0,0.0,0.0,0.0,0.0,0.0,0.0,0.0,0.0,0.0,0.0,0.0,0.0,0.0,0.0,0.0,0.0,0.0,0.0,0.0,0.0,0.0,0.0,0.0,0.0,0.0,0.0,0.0,0.0,0.0,0.0,0.0,0.0,0.0,0.0,0.0,0.0,0.0,0.0,0.0,0.0,0.0,0.0,0.0,0.0,0.0,0.0,0.0,0.0,0.0,0.0,0.0,0.0,0.0,0.0,0.0,0.0,0.0,0.0,0.0,0.0,0.0,0.0,0.0,0.0,0.0,0.0,0.0,0.0,0.0,0.0,0.0,0.0,0.0,0.0,0.0,0.0,0.0,-1.7974,-1.746,-1.7653,-1.66,-1.6109,-1.6132,-1.5432,-1.5175,-1.5257,-1.5578,0.0,0.0,0.0,0.0,0.0,0.0,0.0,0.0,0.0,0.0,0.0,0.0,0.0,0.0,0.0,0.0,0.0,0.0,0.0,0.0,0.0,0.0,0.0,0.0,0.0,0.0,0.0,0.0,0.0,0.0,0.0,0.0,0.0,0.0,0.0,0.0,0.0,0.0,0.0,0.0,0.0,0.0,0.0,0.0,0.0,0.0,0.0,0.0,0.0,0.0,0.0,0.0,0.0,0.0,0.0,0.0,0.0,0.0,0.0,0.0,0.0,0.0,0.0,0.0,0.0,0.0,0.0,0.0,0.0,0.0,0.0,0.0,0.0,0.0,0.0,0.0,0.0,0.0,0.0,0.0,0.0,0.0,0.0,0.0,0.0,0.0,-2.0944,-2.0696,0.0,0.0,0.0,0.0,0.0,0.0,0.0,0.0,0.0,0.0,0.0,0.0,0.0,-1.9707,-1.9467,-1.8943,-1.8701,-1.8734,-1.7545,-1.6924,-1.6814,-1.6047,-1.5609,-1.5536,-1.5418,0.0,-1.6553,-1.6356,0.0,0.0,0.0,0.0,0.0,0.0,0.0,0.0,0.0,0.0,0.0,0.0,0.0,0.0,0.0,0.0,0.0,0.0,0.0,0.0,0.0,0.0,0.0,0.0,0.0,0.0,0.0,0.0,0.0,0.0,0.0,0.0,0.0,0.0,0.0,0.0,0.0,0.0,0.0,0.0,0.0,0.0,0.0,0.0,0.0,0.0,0.0,0.0,0.0,0.0,0.0,0.0,0.0,0.0,0.0,0.0,0.0,0.0,0.0,0.0,0.0,0.0,0.0,0.0,0.0,0.0,0.0,0.0,0.0,0.0,0.0,0.0,0.0,0.0,0.0,0.0,0.0,0.0,0.0,0.0,0.0,0.0,0.0,0.0,0.0,-2.3197,-2.2929,-2.2542,-2.2877,-2.3046,0.0,0.0,0.0,0.0,0.0,0.0,0.0,0.0,0.0,-2.0965,-2.1115,-2.1097,-2.0914,-2.0576,-2.0536,-2.0775,-1.9812,-1.9221,-1.8982,-1.8331,-1.7744,-1.7279,-1.6906,-1.7393,-1.828,-1.7082,-1.7376,-1.8528,0.0,0.0,0.0,0.0,-1.7989,-1.8201,0.0,0.0,0.0,0.0,0.0,0.0,0.0,0.0,0.0,0.0,0.0,0.0,0.0,0.0,0.0,0.0,0.0,0.0,0.0,0.0,0.0,0.0,0.0,0.0,0.0,0.0,0.0,0.0,0.0,0.0,0.0,0.0,0.0,0.0,0.0,0.0,0.0,0.0,0.0,0.0,0.0,0.0,0.0,0.0,0.0,0.0,0.0,0.0,0.0,0.0,0.0,0.0,0.0,0.0,0.0,0.0,0.0,0.0,0.0,0.0,0.0,0.0,0.0,0.0,0.0,0.0,0.0,0.0,0.0,0.0,0.0,0.0,0.0,0.0,0.0,0.0,0.0,-2.4816,-2.4486,-2.4153,-2.4173,-2.4135,0.0,0.0,0.0,0.0,0.0,0.0,-2.283,-2.2799,-2.2658,-2.23,-2.2362,-2.2493,-2.2696,-2.2422,-2.2448,-2.2789,-2.1956,-2.1422,-2.1163,-2.0502,-1.9887,-1.933,-1.8839,-1.9177,-1.994,-1.8013,-1.8069,-1.9248,-1.8738,-1.869,-1.8929,-1.8496,-1.8448,-1.8629,0.0,0.0,0.0,0.0,0.0,0.0,0.0,0.0,0.0,0.0,0.0,0.0,0.0,0.0,0.0,0.0,0.0,0.0,0.0,0.0,0.0,0.0,0.0,0.0,0.0,0.0,0.0,0.0,0.0,0.0,0.0,0.0,0.0,0.0,0.0,0.0,0.0,0.0,0.0,0.0,0.0,0.0,0.0,0.0,0.0,0.0,0.0,0.0,0.0,0.0,0.0,0.0,0.0,0.0,0.0,0.0,0.0,0.0,0.0,0.0,0.0,0.0,0.0,0.0,0.0,0.0,0.0,0.0,0.0,0.0,0.0,0.0,0.0,0.0,0.0,0.0,0.0,0.0,0.0,-2.5253,-2.4558,0.0,0.0,0.0,0.0,-2.3982,-2.3653,-2.3172,-2.2546,-2.2572,-2.2578,-2.2495,-2.2832,-2.3385,-2.4013,-2.3752,-2.3626,-2.3602,-2.2605,-2.2133,-2.2105,-2.1393,-2.0932,-2.0775,-2.0787,-2.0989,-2.1267,-1.9246,-1.9089,-2.0143,-1.9953,-1.9838,-1.9723,-1.9723,-1.962,-1.953,0.0,0.0,0.0,0.0,0.0,0.0,0.0,0.0,0.0,0.0,0.0,0.0,0.0,0.0,0.0,0.0,0.0,0.0,0.0,0.0,0.0,0.0,0.0,0.0,0.0,0.0,0.0,0.0,0.0,0.0,0.0,0.0,0.0,0.0,0.0,0.0,0.0,0.0,0.0,0.0,0.0,0.0,0.0,0.0,0.0,0.0,0.0,0.0,0.0,0.0,0.0,0.0,0.0,0.0,0.0,0.0,0.0,0.0,0.0,0.0,0.0,0.0,0.0,0.0,0.0,0.0,0.0,0.0,0.0,0.0,0.0,0.0,0.0,0.0,0.0,0.0,0.0,0.0,0.0,-2.4752,-2.4461,0.0,-2.3809,-2.3994,-2.4033,-2.3955,-2.3894,-2.3888,-2.3952,-2.3995,-2.4,-2.3971,-2.4161,-2.4457,-2.4922,-2.4693,-2.4875,-2.5429,-2.4535,-2.4027,-2.3705,-2.3096,-2.2528,-2.204,-2.1555,-2.17,-2.2133,-2.0894,-2.0598,-2.0771,-2.0627,-2.0229,-1.9798,-1.9798,-1.9747,-1.9759,0.0,0.0,0.0,0.0,0.0,0.0,0.0,0.0,0.0,0.0,0.0,0.0,0.0,0.0,0.0,0.0,0.0,0.0,0.0,0.0,0.0,0.0,0.0,0.0,0.0,0.0,0.0,0.0,0.0,0.0,0.0,0.0,0.0,0.0,0.0,0.0,0.0,0.0,0.0,0.0,0.0,0.0,3.0143,0.0,0.0,0.0,0.0,0.0,0.0,0.0,0.0,0.0,0.0,0.0,0.0,0.0,0.0,0.0,0.0,0.0,0.0,0.0,0.0,0.0,0.0,0.0,0.0,0.0,0.0,0.0,0.0,0.0,0.0,0.0,0.0,0.0,0.0,0.0,-2.4798,-2.5001,-2.4694,-2.442,-2.4282,-2.4445,-2.4448,-2.4323,-2.4414,-2.4542,-2.482,-2.5185,-2.5453,-2.5658,-2.6105,-2.651,-2.6969,-2.6723,-2.6911,-2.7458,-2.6669,-2.6103,-2.5709,-2.5244,-2.459,-2.3884,-2.3196,-2.3077,-2.3392,-2.2665,-2.2142,-2.1738,-2.1383,-2.0957,-2.0522,-2.0416,-2.0363,-2.0391,0.0,0.0,0.0,0.0,0.0,0.0,0.0,0.0,0.0,0.0,0.0,0.0,0.0,0.0,0.0,0.0,0.0,0.0,0.0,0.0,0.0,0.0,0.0,0.0,0.0,0.0,0.0,0.0,0.0,0.0,0.0,0.0,0.0,0.0,0.0,0.0,0.0,0.0,0.0,0.0,0.0,0.0,3.0028,0.0,0.0,0.0,0.0,0.0,0.0,0.0,0.0,0.0,0.0,0.0,0.0,0.0,0.0,0.0,0.0,0.0,0.0,0.0,0.0,0.0,0.0,0.0,0.0,0.0,0.0,0.0,0.0,0.0,0.0,0.0,0.0,0.0,-2.5378,-2.4974,-2.5001,-2.6061,-2.5275,-2.5018,-2.6061,-2.5725,-2.5361,-2.515,-2.5213,-2.5146,-2.495,-2.5977,-2.6862,-2.7437,-2.8556,-2.9398,-3.0007,-2.9743,-2.9651,-2.9636,-2.8887,-2.8382,-2.8025,-2.753,-2.695,-2.6268,-2.5695,-2.5289,-2.5009,-2.44,-2.3709,-2.2998,-2.2223,-2.1911,-2.1856,-2.1592,-2.1549,-2.1627,0.0,0.0,0.0,0.0,0.0,0.0,0.0,0.0,0.0,0.0,0.0,0.0,0.0,0.0,0.0,0.0,0.0,0.0,0.0,0.0,0.0,0.0,0.0,0.0,0.0,0.0,0.0,0.0,0.0,0.0,0.0,0.0,0.0,0.0,0.0,0.0,0.0,0.0,0.0,0.0,0.0,0.0,3.0101,0.0,0.0,0.0,0.0,0.0,0.0,0.0,0.0,0.0,0.0,0.0,0.0,0.0,0.0,0.0,0.0,0.0,0.0,0.0,0.0,0.0,0.0,0.0,0.0,0.0,0.0,0.0,0.0,0.0,0.0,0.0,0.0,-2.7114,-2.5926,-2.5347,-2.5244,-2.5845,-2.5622,-2.5529,-2.5601,-2.6208,-2.6527,-2.6484,-2.747,-2.7934,-2.7646,-2.854,-2.8996,-2.8836,-2.9411,-2.9944,-3.0438,-3.0335,-3.0402,-3.0608,-2.9902,-2.9243,-2.8594,-2.7938,-2.7322,-2.6627,-2.6405,-2.6142,-2.5932,-2.5651,-2.5122,-2.4327,-2.3153,-2.2395,-2.1937,-2.1703,-2.1856,-2.2242,0.0,0.0,0.0,0.0,0.0,0.0,0.0,0.0,0.0,0.0,0.0,0.0,0.0,0.0,0.0,0.0,0.0,0.0,0.0,0.0,0.0,0.0,0.0,0.0,0.0,0.0,0.0,0.0,0.0,0.0,0.0,0.0,0.0,0.0,0.0,0.0,0.0,0.0,0.0,0.0,0.0,0.0,2.9775,2.9314,2.957,3.0144,2.9962,2.8122,2.5696,2.5445,0.0,0.0,0.0,0.0,0.0,0.0,0.0,0.0,0.0,0.0,0.0,0.0,0.0,0.0,0.0,0.0,0.0,0.0,0.0,0.0,0.0,0.0,0.0,0.0,-2.804,-2.7963,-2.737,-2.6483,-2.6103,-2.6589,-2.6663,-2.6874,-2.7467,-2.8057,-2.8503,-2.8682,-2.9454,-2.9838,-2.9567,-3.0402,-3.0782,-3.0533,-3.1059,-3.1461,-3.1753,-3.1753,-3.1804,-3.1974,-3.1356,-3.0791,-3.0157,-2.9507,-2.8777,0.0,-2.7502,-2.7087,-2.664,-2.6277,-2.5862,0.0,0.0,0.0,0.0,0.0,-2.2572,-2.2916,0.0,0.0,0.0,0.0,0.0,0.0,0.0,0.0,0.0,0.0,0.0,-1.3447,0.0,0.0,0.0,0.0,0.0,0.0,0.0,0.0,0.0,0.1309,0.0,0.0,0.0,0.0,0.0,0.0,0.0,0.0,0.0,0.0,0.0,0.0,0.0,0.0,0.0,0.0,0.0,0.0,0.0,0.0,2.917,2.883,2.9259,3.0034,2.9647,2.7834,2.5561,2.5101,0.0,0.0,0.0,0.0,0.0,0.0,0.0,0.0,0.0,0.0,0.0,0.0,0.0,0.0,0.0,0.0,0.0,0.0,0.0,0.0,0.0,0.0,0.0,0.0,-2.8208,-2.8565,-2.93,-2.8338,-2.7713,-2.8183,-2.8202,-2.8758,-3.0315,-3.0552,-3.0736,-3.1108,-3.1286,-3.1234,-3.1033,0.0,0.0,0.0,0.0,-3.3487,-3.3487,-3.3487,-3.3435,-3.3398,-3.2926,-3.2501,-3.2084,-3.1549,-3.0674,-2.96,-2.8928,-2.8215,-2.7467,-2.6818,-2.6516,-2.6444,-2.5948,-2.5076,-2.4145,-2.379,-2.362,-2.3669,0.0,0.0,0.0,0.0,0.0,0.0,0.0,0.0,0.0,-1.5043,-1.5129,-1.6113,-1.9163,0.0,0.0,0.0,0.0,0.0,0.0,0.0,-0.4134,-0.429,0.5547,0.0,0.0,0.0,0.0,0.0,0.0,0.0,0.0,0.0,0.0,0.0,0.0,0.0,0.0,0.0,0.0,0.0,0.0,0.0,2.8691,2.8252,2.8857,2.973,2.8173,2.6333,2.435,2.2714,1.5984,0.8124,0.6984,0.0,0.0,0.0,0.0,0.0,0.0,0.0,0.0,0.0,0.0,0.0,0.0,0.0,0.0,0.0,0.0,0.0,0.0,0.0,0.0,-3.0135,-3.0848,-3.125,-3.0632,-3.1165,-3.1397,-3.0911,-3.0488,-3.0448,-3.0998,-3.1346,-3.1623,-3.1813,-3.286,-3.3179,-3.2388,-3.3409,-3.3891,-3.3544,-3.4252,-3.4657,-3.4657,-3.4657,-3.4448,-3.3949,0.0,0.0,-3.2084,-3.1875,-3.1304,-3.0466,-3.035,-2.9978,-2.96,-2.9332,-2.9114,-2.8663,-2.7143,-2.6376,-2.6015,-2.5333,-2.4967,-2.4824,0.0,0.0,0.0,0.0,0.0,0.0,0.0,0.0,0.0,0.0,-1.8166,-1.8717,-2.0461,-2.0761,0.0,0.0,0.0,0.0,0.0,-1.2983,-0.7784,-0.6282,0.1207,0.6466,0.0,0.0,0.0,0.0,0.0,0.0,0.0,0.0,0.0,0.0,0.0,0.0,0.0,0.0,0.0,0.0,0.0,0.0,2.6541,2.7278,2.794,2.839,2.7448,2.5895,2.4003,2.2078,1.4135,0.4504,0.1439,-0.3853,-0.9488,0.0,0.0,0.0,0.0,0.0,0.0,0.0,0.0,0.0,0.0,0.0,0.0,0.0,0.0,-3.1236,0.0,0.0,-3.1308,-3.1125,-3.1774,-3.2303,-3.2368,-3.3051,-3.3267,-3.2305,-3.1965,-3.2059,-3.2724,-3.2928,-3.3237,-3.3778,-3.4396,-3.4625,-3.4317,-3.4767,-3.4925,-3.4717,-3.4938,-3.5048,-3.4971,-3.5048,-3.483,-3.4464,-3.4431,-3.4087,-3.3463,-3.3061,-3.2454,-3.1799,-3.1347,-3.0896,-3.0406,-3.0119,-3.0081,-3.0075,-2.9018,-2.8264,-2.7513,-2.6458,-2.6149,-2.6252,0.0,0.0,0.0,0.0,0.0,0.0,0.0,0.0,0.0,0.0,0.0,-2.0265,-2.0452,-2.0958,0.0,0.0,0.0,0.0,0.0,-1.4494,-1.0444,-0.7265,-0.3262,0.033,0.348,0.0,0.0,0.0,0.0,0.0,0.0,0.0,0.0,0.0,0.0,0.0,0.0,0.0,0.0,0.0,0.0,0.0,2.3473,2.4989,2.5998,2.6536,2.6131,2.508,2.3595,2.1719,1.2559,0.1097,-0.3859,-0.9374,-1.499,-1.9654,-2.0733,0.0,0.0,0.0,0.0,0.0,0.0,0.0,0.0,0.0,-3.1511,-3.161,-3.1363,-3.1312,-3.1979,-3.1788,-3.167,-3.1984,-3.2446,-3.3077,-3.3979,-3.4547,-3.4526,-3.3716,-3.3306,-3.3519,-3.4479,-3.4464,-3.4752,-3.5588,-3.5633,-3.5688,-3.595,-3.5786,-3.5725,-3.5698,-3.5531,-3.5397,-3.5357,-3.5414,-3.5278,-3.4958,-3.5065,-3.5035,-3.4769,-3.4235,-3.3735,-3.3208,-3.236,-3.1664,-3.097,-3.0555,-3.0644,-3.097,-3.0925,-3.025,-2.9099,-2.7652,-2.729,-2.7488,0.0,0.0,0.0,0.0,0.0,0.0,0.0,0.0,0.0,0.0,0.0,0.0,0.0,0.0,0.0,0.0,0.0,0.0,0.0,-1.1838,-0.8701,-0.9249,-0.1642,0.2296,0.1703,0.363,0.0,0.0,0.0,0.0,0.0,0.0,0.0,0.0,0.0,0.0,0.0,0.0,0.0,0.0,0.0,0.0,1.9747,1.9728,2.1837,2.4553,2.2689,2.2155,2.2067,2.0254,0.8985,-0.4372,-0.4884,-1.5403,-2.7701,-2.8651,0.0,-2.851,-2.8991,-2.9213,-2.9459,-3.0071,-3.0344,-3.046,0.0,0.0,-3.1004,-3.069,-3.0543,-3.0742,-3.1871,-3.1965,-3.2235,-3.3393,-3.4057,-3.4601,-3.5094,-3.5673,-3.6187,-3.6406,-3.5245,-3.4622,-3.5165,-3.5081,-3.5215,-3.5803,-3.6197,-3.6323,-3.6172,-3.6357,-3.6474,-3.6402,-3.655,-3.6591,-3.6591,-3.6591,-3.6266,-3.561,-3.561,-3.534,-3.4769,-3.4721,-3.4609,-3.4366,-3.3582,-3.2772,-3.2007,-3.1951,-3.1853,-3.1712,-3.216,-3.1901,-3.0995,-2.958,-2.8757,-2.8225,0.0,0.0,0.0,0.0,0.0,0.0,0.0,0.0,0.0,0.0,0.0,0.0,0.0,0.0,0.0,0.0,0.0,0.0,-1.5181,-1.0267,-0.7378,-0.7203,-0.236,0.0271,0.0193,0.1014,0.2021,0.3327,0.0,0.0,0.0,0.0,0.0,0.0,0.0,0.0,0.0,0.0,0.0,0.0,0.0,0.0,1.5219,1.493,1.4437,1.4318,1.7945,1.9374,0.0,0.0,0.4405,-0.6094,-1.0869,-2.0318,-2.972,-3.0194,-3.0106,0.0,-2.978,-3.0398,0.0,0.0,-3.0794,-3.1283,-3.1287,-3.1439,-3.1514,-3.1479,-3.1823,-3.2331,-3.303,-3.3485,-3.4059,0.0,-3.5283,-3.5671,-3.6204,-3.6514,-3.6741,-3.69,-3.6323,-3.6028,-3.6207,-3.589,-3.5959,-3.6603,-3.6781,-3.686,-3.6856,-3.6952,-3.6952,-3.6788,-3.7052,-3.7206,-3.7129,-3.7431,-3.7246,-3.6586,-3.6666,-3.6381,-3.5793,-3.5464,-3.5065,-3.4576,-3.4235,-3.3633,-3.2895,-3.2788,-3.2492,-3.2094,-3.2547,-3.2477,-3.2018,-3.0919,-3.038,-3.0031,0.0,0.0,0.0,0.0,0.0,0.0,0.0,0.0,0.0,0.0,0.0,0.0,0.0,0.0,0.0,0.0,0.0,0.0,0.0,-1.0221,-0.7856,-0.6683,-0.4298,0.0,-0.1316,-0.0785,0.0337,0.2063,0.0,0.0,0.0,0.0,0.0,0.0,0.0,0.0,0.0,0.0,0.0,0.0,0.0,0.0,1.0806,1.0044,0.7377,0.5055,1.2889,1.5737,0.0,0.0,0.1077,-0.6462,-1.479,-2.3162,-3.0,-3.0711,-3.1038,-3.1,-3.0471,0.0,0.0,-3.0847,-3.1249,-3.1914,-3.1933,-3.2022,-3.2177,-3.2413,-3.2907,-3.3472,-3.4202,-3.4757,-3.542,-3.6256,-3.6379,-3.6555,-3.714,-3.7173,-3.7173,-3.734,-3.7228,-3.7268,-3.7506,-3.6907,-3.6701,-3.7246,-3.7319,-3.7354,-3.7447,-3.7466,-3.7411,-3.7243,-3.7542,-3.7685,-3.7614,-3.7948,-3.7879,-3.7377,-3.7413,-3.7167,-3.6673,-3.6182,-3.5537,-3.483,-3.483,-3.4382,-3.3582,-3.3547,-3.3145,-3.2695,-3.3161,-3.3161,-3.2826,-3.2329,-3.1931,-3.1495,0.0,0.0,0.0,0.0,0.0,0.0,0.0,0.0,0.0,0.0,0.0,0.0,0.0,0.0,0.0,0.0,0.0,0.0,0.0,-1.2061,-1.0861,-0.9512,-0.7362,-0.5114,-0.2798,-0.0673,0.0695,0.1404,0.1607,0.0,0.0,0.0,0.0,0.0,0.0,0.0,0.0,0.0,0.0,0.0,0.0,0.0,0.6871,0.4971,0.1914,-0.0289,0.7721,0.0,0.0,0.0,0.0042,-0.5956,-1.4143,-2.3103,0.0,-3.1911,-3.3056,0.0,0.0,0.0,-3.2327,-3.1714,-3.1733,-3.1933,-3.2057,-3.2415,-3.2769,-3.3105,-3.3039,-3.3432,-3.516,-3.5298,-3.5703,-3.722,-3.7305,-3.7323,-3.7703,-3.7614,-3.7721,-3.8364,-3.8099,-3.819,0.0,-3.8107,-3.7469,-3.7505,-3.7721,-3.7864,-3.7864,-3.7879,-3.7877,-3.7859,-3.808,-3.818,-3.818,-3.8117,-3.8016,-3.7859,-3.7542,-3.7301,-3.715,-3.6673,-3.6071,-3.5374,-3.5374,-3.4925,-3.4186,-3.4186,-3.3987,-3.3786,-3.4415,-3.4202,-3.3582,-3.3969,-3.3355,-3.2287,0.0,0.0,0.0,0.0,0.0,0.0,0.0,0.0,0.0,0.0,0.0,0.0,0.0,0.0,0.0,0.0,0.0,0.0,0.0,-0.9944,-0.8901,-0.7967,-0.7494,-0.6596,-0.5195,-0.3857,-0.2398,-0.0755,0.0129,0.1314,0.0,0.0,0.0,0.0,0.0,0.0,0.0,0.0,0.0,0.0,0.0,0.0,0.0839,0.0195,-0.2564,-0.5439,0.0,0.0,0.0,0.0,-0.8957,-1.2255,-2.2459,0.0,0.0,-3.224,-3.3521,-3.4111,0.0,0.0,-3.3104,-3.258,-3.2985,-3.3633,-3.4119,-3.4293,-3.4355,-3.4267,-3.4561,-3.5018,-3.5703,-3.6187,-3.6852,-3.8033,-3.8141,-3.8301,-3.8976,-3.9006,-3.9006,-3.9152,-3.9051,0.0,0.0,0.0,0.0,-3.8589,-3.8832,-3.8793,-3.8378,-3.8505,-3.8493,-3.8383,-3.8641,-3.885,-3.8984,-3.9202,-3.9066,-3.8612,-3.8026,-3.7542,-3.7188,-3.6939,-3.6539,-3.6028,-3.6028,-3.5644,-3.4988,-3.4878,-3.4528,-3.4087,-3.4577,-3.461,-3.435,-3.4415,-3.4103,-3.3511,0.0,0.0,0.0,0.0,0.0,0.0,0.0,0.0,0.0,0.0,0.0,0.0,0.0,0.0,0.0,0.0,0.0,0.0,0.0,0.0,-0.8035,-0.7379,-0.7592,-0.6956,-0.5438,-0.4793,-0.3505,-0.1503,-0.1179,-0.0063,0.0,0.0,0.0,0.0,0.0,0.0,0.0,0.0,0.0,0.0,0.0,0.0,-0.2318,-0.2649,-0.524,0.0,0.0,0.0,0.0,0.0,0.0,-1.3818,-2.5322,-2.9855,-3.1294,-3.3085,-3.4031,-3.4295,-3.3366,-3.3732,-3.4266,-3.3813,-3.4274,-3.4979,-3.5396,-3.5331,-3.5112,-3.4971,-3.5156,-3.5504,-3.6016,-3.6361,-3.688,-3.786,-3.8255,-3.8604,-3.916,-3.9447,-3.964,-3.968,-3.9679,-3.9735,0.0,0.0,0.0,-3.9354,-3.9401,-3.9313,-3.8999,-3.9108,-3.9143,-3.9087,-3.9383,-3.9607,-3.9724,-3.987,-3.969,-3.9177,-3.8644,-3.8159,-3.7724,-3.7626,-3.7345,-3.689,-3.689,-3.6493,-3.5873,-3.5786,-3.5369,-3.48,-3.5068,-3.5102,-3.5008,-3.4944,-3.4673,-3.4268,0.0,0.0,0.0,0.0,0.0,0.0,0.0,0.0,0.0,0.0,0.0,0.0,0.0,0.0,0.0,0.0,0.0,0.0,0.0,0.0,0.0,-0.7811,-0.7717,-0.6426,-0.3776,-0.3721,-0.2824,-0.0995,-0.2165,-0.1363,0.1221,0.0,0.0,0.0,0.0,0.0,0.0,0.0,0.0,0.0,0.0,0.0,-0.2983,-0.3777,0.0,0.0,0.0,0.0,0.0,0.0,0.0,0.0,0.0,0.0,-3.3118,-3.4344,-3.4625,-3.4548,-3.4506,-3.516,-3.5749,-3.5356,-3.5606,-3.5967,-3.5919,-3.5528,-3.5167,-3.5185,-3.4839,-3.4859,0.0,0.0,-3.5898,-3.6832,-3.7686,-3.8291,-3.8435,-3.9054,-3.9635,0.0,0.0,0.0,0.0,0.0,0.0,-3.9727,0.0,-3.9469,-3.9709,-3.9742,-3.9845,-4.0012,-4.0222,-4.0325,-4.0342,-4.013,-3.9869,-3.9545,-3.9415,-3.9126,-3.8727,-3.8654,-3.8405,-3.7998,-3.8016,-3.7524,-3.6729,-3.6689,-3.6374,-3.5844,-3.5817,-3.5728,-3.5577,-3.552,-3.5148,-3.4544,0.0,0.0,0.0,0.0,0.0,0.0,0.0,0.0,0.0,0.0,0.0,0.0,0.0,0.0,0.0,0.0,0.0,0.0,0.0,0.0,0.0,0.0,0.0,0.0,0.0,0.0,0.0,0.0,0.0,-0.1266,0.0312,0.0193,0.0,0.0,0.0,0.0,0.0,0.0,0.0,0.0,0.0,0.0,-0.5235,0.0,0.0,0.0,0.0,0.0,0.0,0.0,0.0,0.0,0.0,-3.1507,-3.4007,-3.4489,-3.492,-3.5335,-3.5772,-3.6033,-3.6398,-3.732,-3.7204,-3.6966,-3.7287,-3.6654,-3.5822,-3.5247,-3.4949,-3.4879,0.0,0.0,0.0,-3.6621,-3.7177,0.0,-3.911,-3.9465,0.0,0.0,0.0,-4.0597,-4.0767,-4.0766,0.0,0.0,-4.0512,-4.0368,-4.0091,-4.0208,-4.0315,-4.0374,-4.0424,-4.0526,-4.0667,-4.0427,-4.0266,-4.0176,-3.9992,-3.9642,-3.9142,-3.9133,-3.8737,-3.8077,-3.8031,-3.7751,-3.736,-3.6904,-3.6626,-3.6457,-3.5958,-3.5773,-3.5728,-3.5639,-3.5458,-3.5258,0.0,0.0,0.0,0.0,0.0,0.0,0.0,0.0,0.0,0.0,0.0,0.0,0.0,0.0,0.0,0.0,0.0,0.0,0.0,0.0,0.0,0.0,0.0,0.0,0.0,0.0,0.0,0.0,0.0,0.0,0.0,0.0,0.0,0.0,0.0,0.0,0.0,0.0,0.0,0.0,0.0,0.0,0.0,0.0,0.0,0.0,0.0,0.0,0.0,0.0,0.0,-2.7289,-2.8418,-3.1063,-3.3818,-3.4089,0.0,-3.5554,-3.6011,-3.6861,-3.7699,-3.8098,-3.7847,-3.7421,-3.7129,-3.6246,-3.5301,-3.4693,-3.4404,0.0,0.0,0.0,0.0,0.0,0.0,0.0,-3.8706,-3.9091,-3.9575,0.0,-4.0545,0.0,-4.0571,-4.0623,-4.0673,0.0,-4.0812,-4.0791,-4.0557,-4.0659,-4.0671,-4.0596,-4.0596,-4.0623,-4.0717,-4.0622,-4.0581,-4.0577,-4.0438,-4.0234,-4.0003,-3.9973,-3.9623,-3.9008,0.0,-3.849,-3.8008,-3.7648,-3.7288,-3.6964,-3.6716,-3.6405,-3.6028,-3.5985,-3.5783,-3.552,0.0,0.0,0.0,0.0,0.0,0.0,0.0,0.0,0.0,0.0,0.0,0.0,0.0,0.0,0.0,0.0,0.0,0.0,0.0,0.0,0.0,0.0,0.0,0.0,0.0,0.0,0.0,0.0,0.0,0.0,0.0,0.0,0.0,0.0,0.0,0.0,0.0,0.0,0.0,0.0,0.0,0.0,0.0,0.0,0.0,0.0,0.0,0.0,0.0,0.0,-2.2757,-2.6198,-2.6752,-2.9687,-3.2967,-3.3374,-3.435,-3.5411,-3.5866,-3.7553,-3.9002,-3.8193,-3.787,-3.7406,-3.615,-3.4994,-3.4105,-3.3746,0.0,0.0,-3.343,0.0,-3.4135,-3.4329,0.0,-3.6579,-3.7588,-3.8194,-3.8892,-3.9877,-4.0087,-4.0149,-4.0183,-4.0271,-4.0309,-4.0273,-4.0541,-4.0768,-4.0913,-4.0907,-4.0824,-4.066,-4.0643,-4.0631,-4.0555,-4.07,-4.0762,-4.0769,-4.0754,-4.0805,-4.0901,-4.0838,-4.061,-4.023,-3.9966,0.0,-3.8746,-3.8619,-3.8103,-3.7506,-3.7628,-3.7217,-3.6498,-3.6416,-3.6097,-3.5711,0.0,0.0,0.0,0.0,0.0,0.0,0.0,0.0,0.0,0.0,-1.129,0.0,0.0,0.0,0.0,0.0,0.0,0.0,0.0,0.0,0.0,0.0,0.0,0.0,0.0,0.0,0.0,0.0,0.0,0.0,0.0,0.0,0.0,0.0,0.0,0.0,0.0,0.0,0.0,0.0,0.0,0.0,0.0,0.0,0.0,0.0,0.0,0.0,0.0,0.0,-2.2345,-2.5839,-2.7695,-2.9856,-3.1864,-3.2694,-3.3771,-3.5054,-3.6549,-3.7774,-3.8607,-3.8498,-3.7697,-3.6584,-3.5431,-3.4176,0.0,0.0,0.0,-3.2339,-3.2168,-3.2571,0.0,-3.3597,0.0,0.0,0.0,0.0,-3.7438,0.0,0.0,0.0,0.0,0.0,0.0,0.0,0.0,-3.9948,-4.0406,-4.0422,-4.0408,-4.0375,-4.0375,-4.0351,-4.035,-4.0541,-4.0626,-4.0635,-4.0855,-4.0937,-4.0901,-4.0953,-4.0774,-4.0449,-4.0226,0.0,-3.9542,-3.9044,-3.8604,-3.825,-3.7866,-3.7488,-3.7079,-3.6563,-3.6333,-3.6182,0.0,0.0,0.0,0.0,0.0,0.0,0.0,0.0,0.0,0.0,-0.9636,-0.9681,0.0,0.0,0.0,0.0,0.0,0.0,0.0,0.0,0.0,0.0,0.0,0.0,0.0,0.0,0.0,0.0,0.0,0.0,0.0,0.0,0.0,0.0,0.0,0.0,0.0,0.0,0.0,0.0,0.0,0.0,0.0,0.0,0.0,0.0,0.0,0.0,0.0,0.0,-2.1664,-2.444,-2.7042,-2.916,-3.092,-3.2148,-3.3382,-3.4528,-3.5358,-3.6391,-3.7146,-3.6694,-3.6044,-3.5182,-3.3868,0.0,0.0,0.0,0.0,-3.1062,-3.0937,0.0,0.0,0.0,0.0,0.0,0.0,0.0,0.0,0.0,0.0,0.0,0.0,0.0,0.0,0.0,0.0,-3.891,-3.9829,-3.9825,-3.9783,-3.9783,-3.9925,-3.9984,-3.9984,-4.0287,-4.0439,-4.0453,-4.0674,-4.0785,-4.0805,-4.0937,-4.0918,-4.0746,-4.0436,0.0,-3.9985,-3.958,-3.9258,-3.8989,-3.8728,-3.829,-3.7769,-3.7324,-3.6981,-3.6684,0.0,0.0,0.0,0.0,0.0,0.0,0.0,-0.904,-0.9585,-0.8732,-0.848,-0.8639,-0.951,-0.8738,-0.8115,0.0,0.0,0.0,0.0,0.0,0.0,0.0,0.0,0.0,0.0,0.0,0.0,0.0,0.0,0.0,0.0,0.0,0.0,0.0,0.0,0.0,0.0,0.0,0.0,0.0,0.0,0.0,0.0,0.0,0.0,0.0,0.0,0.0,0.0,0.0,-2.0796,-2.2586,-2.5452,-2.7712,-2.9571,-3.1008,-3.2354,-3.3446,-3.3612,-3.4619,-3.5394,-3.4473,-3.4159,-3.3679,-3.2092,-3.1213,0.0,0.0,0.0,-2.9772,0.0,0.0,0.0,0.0,0.0,0.0,0.0,0.0,0.0,0.0,0.0,0.0,0.0,0.0,0.0,0.0,0.0,0.0,-3.9025,-3.9021,-3.8979,-3.8979,-3.9277,-3.9419,-3.9419,-3.9846,-4.01,-4.0156,-4.0386,-4.0529,-4.0684,-4.0862,-4.0976,-4.0991,-4.0663,0.0,0.0,-4.0118,-3.9863,-3.9595,-3.9585,-3.9133,-3.842,-3.8125,-3.7649,-3.7155,0.0,0.0,0.0,0.0,0.0,0.0,0.0,-0.8474,-0.8903,-0.8804,-0.8752,-0.8804,-0.8857,-0.8328,-0.7955,0.0,0.0,0.0,0.0,0.0,0.0,0.0,0.0,0.0,0.0,0.0,0.0,0.0,0.0,0.0,0.0,0.0,0.0,0.0,0.0,0.0,0.0,0.0,0.0,0.0,0.0,0.0,0.0,0.0,0.0,0.0,0.0,0.0,0.0,0.0,0.0,-2.0573,-2.2852,-2.5189,-2.7287,-2.8201,0.0,0.0,-3.2072,-3.3145,-3.3827,-3.2988,-3.272,-3.2265,-3.0673,0.0,0.0,0.0,-2.881,-2.8622,0.0,0.0,0.0,0.0,0.0,0.0,0.0,0.0,0.0,0.0,0.0,0.0,0.0,0.0,0.0,0.0,0.0,0.0,-3.7739,-3.7893,-3.7944,-3.7944,-3.8315,-3.8534,-3.8534,-3.9104,-3.951,-3.9775,-3.9967,-4.0254,-4.0604,-4.0738,-4.0881,-4.0996,-4.0968,0.0,0.0,-4.0597,-4.026,-3.9859,-3.9859,-3.9519,-3.898,-3.8469,-3.8056,-3.7755,0.0,0.0,0.0,0.0,0.0,0.0,0.0,-0.843,-0.8804,-0.8804,-0.8745,-0.8685,-0.8685,-0.8374,-0.8215,0.0,0.0,0.0,0.0,0.0,0.0,0.0,0.0,0.0,0.0,0.0,0.0,0.0,0.0,0.0,0.0,0.0,0.0,0.0,0.0,0.0,0.0,0.0,0.0,0.0,0.0,0.0,0.0,0.0,0.0,0.0,0.0,0.0,0.0,0.0,0.0,0.0,-2.1501,-2.3371,0.0,0.0,-2.8919,-3.0012,-3.074,-3.1332,-3.159,-3.1107,-3.1024,-3.075,-2.9565,0.0,0.0,-2.8192,-2.7963,-2.7799,-2.7784,0.0,0.0,0.0,0.0,0.0,0.0,0.0,0.0,0.0,0.0,0.0,0.0,0.0,0.0,0.0,0.0,0.0,-3.5547,-3.6496,-3.7031,-3.7031,-3.7453,-3.7765,-3.8053,-3.8504,-3.8915,-3.9282,-3.9652,-3.9929,-4.0125,-4.0517,-4.0754,-4.0877,-4.0917,0.0,0.0,-4.0781,-4.0578,-4.0358,-4.0099,-3.9865,-3.9557,-3.8998,-3.8645,-3.8431,0.0,0.0,0.0,0.0,0.0,0.0,-0.7882,-0.843,-0.8804,-0.8804,-0.8692,-0.8685,-0.8685,-0.858,-0.8533,-0.8633,0.0,0.0,0.0,0.0,0.0,0.0,0.0,0.0,0.0,0.0,0.0,0.0,0.0,0.0,0.0,0.0,0.0,0.0,0.0,0.0,0.0,0.0,0.0,0.0,0.0,0.0,0.0,0.0,0.0,0.0,0.0,0.0,0.0,0.0,0.0,0.0,0.0,0.0,0.0,0.0,-2.7926,-2.8748,-2.9257,-2.9451,-2.9553,-2.9358,-2.9448,-2.9358,0.0,0.0,0.0,-2.7282,-2.7144,-2.7041,-2.6872,0.0,0.0,0.0,0.0,0.0,0.0,0.0,0.0,0.0,0.0,0.0,0.0,0.0,0.0,0.0,0.0,0.0,-3.3566,-3.4808,-3.5701,-3.6113,-3.6579,-3.6953,-3.7234,-3.7801,-3.8277,-3.8637,-3.9133,-3.951,-3.9783,-4.0191,-4.0505,-4.0757,-4.0837,0.0,0.0,-4.0896,-4.081,-4.0703,-4.035,-4.0133,-3.9967,-3.9519,-3.9173,-3.8961,0.0,0.0,0.0,0.0,0.0,0.0,0.0,-0.843,-0.8804,-0.8804,-0.8804,-0.8804,-0.8804,-0.8804,-0.8804,-0.8804,0.0,0.0,0.0,0.0,0.0,0.0,0.0,0.0,0.0,0.0,0.0,0.0,0.0,0.0,0.0,0.0,0.0,0.0,0.0,0.0,0.0,0.0,0.0,0.0,0.0,0.0,0.0,0.0,0.0,0.0,0.0,0.0,0.0,0.0,0.0,0.0,0.0,0.0,0.0,0.0,-2.6481,-2.7401,-2.7452,-2.7645,-2.7898,-2.7898,-2.8094,-2.8192,0.0,0.0,0.0,-2.662,-2.6347,-2.6254,-2.6709,0.0,0.0,0.0,0.0,0.0,0.0,0.0,0.0,0.0,0.0,0.0,0.0,0.0,0.0,0.0,0.0,0.0,-3.2213,-3.287,-3.3869,-3.5291,-3.5705,-3.589,-3.589,-3.6829,-3.7488,-3.7821,-3.8373,-3.898,-3.9709,-3.9783,-4.0109,0.0,0.0,0.0,0.0,-4.0964,-4.0909,-4.078,-4.0578,-4.0335,-4.008,-3.9941,-3.9532,-3.911,0.0,0.0,0.0,0.0,0.0,0.0,0.0,-0.8263,-0.8584,-0.8784,-0.8804,-0.8804,-0.8804,-0.8804,-0.8804,-0.8804,0.0,0.0,0.0,0.0,0.0,0.0,0.0,0.0,0.0,0.0,0.0,0.0,0.0,0.0,0.0,0.0,0.0,0.0,0.0,0.0,0.0,0.0,0.0,0.0,0.0,0.0,0.0,0.0,0.0,0.0,0.0,0.0,0.0,0.0,0.0,0.0,0.0,0.0,0.0,0.0,0.0,0.0,-2.7342,-2.763,-2.7615,-2.6997,-2.6983,-2.6997,-2.6496,0.0,0.0,-2.6788,-2.6472,-2.6082,-2.5972,-2.5618,0.0,0.0,0.0,0.0,0.0,0.0,0.0,0.0,0.0,0.0,0.0,0.0,0.0,0.0,0.0,0.0,-3.2336,-3.2532,-3.323,-3.4448,-3.4625,-3.5065,-3.5759,-3.6215,-3.6649,-3.7061,-3.7805,-3.83,-3.8552,-3.9357,-3.9848,0.0,0.0,0.0,0.0,-4.0957,-4.0994,-4.0981,-4.0835,-4.0713,-4.0602,-4.0187,-3.9927,-3.9743,0.0,0.0,0.0,0.0,0.0,0.0,0.0,-0.7931,-0.8273,-0.8771,-0.8586,-0.8533,-0.8752,-0.8586,-0.8533,-0.8804,0.0,0.0,0.0,0.0,0.0,0.0,0.0,0.0,0.0,0.0,0.0,0.0,0.0,0.0,0.0,0.0,0.0,0.0,0.0,0.0,0.0,0.0,0.0,0.0,0.0,0.0,-1.5148,0.0,0.0,0.0,0.0,0.0,0.0,0.0,0.0,0.0,0.0,0.0,0.0,0.0,-2.4115,0.0,0.0,-2.6438,-2.6477,-2.6158,-2.624,0.0,0.0,0.0,0.0,0.0,-2.5988,-2.5701,-2.5563,-2.509,-2.4708,0.0,0.0,0.0,0.0,0.0,0.0,0.0,0.0,0.0,0.0,0.0,0.0,0.0,0.0,0.0,-3.0896,-3.1377,-3.2114,-3.3077,-3.3547,-3.4252,-3.5081,-3.5476,-3.5985,-3.6649,-3.7232,-3.7771,-3.8259,-3.8803,-3.9308,0.0,0.0,0.0,0.0,-4.0941,-4.1034,-4.1094,-4.095,-4.0909,-4.0859,-4.0405,-4.0187,-4.0061,0.0,0.0,0.0,0.0,0.0,0.0,0.0,0.0,0.0,0.0,-0.8203,-0.809,-0.8699,-0.8256,-0.8203,0.0,0.0,0.0,0.0,0.0,0.0,0.0,0.0,0.0,0.0,0.0,0.0,-0.7139,-0.7139,-0.7729,-0.8804,0.0,0.0,0.0,0.0,0.0,0.0,0.0,0.0,0.0,0.0,0.0,0.0,0.0,0.0,0.0,0.0,0.0,0.0,0.0,0.0,0.0,0.0,0.0,0.0,0.0,0.0,0.0,0.0,0.0,0.0,0.0,0.0,0.0,0.0,0.0,0.0,0.0,0.0,-2.5189,-2.5342,-2.4964,-2.4694,0.0,0.0,0.0,0.0,0.0,0.0,0.0,0.0,0.0,0.0,0.0,0.0,0.0,0.0,0.0,-2.8478,-2.9723,-3.069,-3.1332,-3.24,-3.3355,-3.405,-3.4528,-3.5301,-3.637,-3.651,-3.725,-3.8473,-3.8143,-3.8582,0.0,0.0,0.0,0.0,-4.0896,-4.1012,-4.109,-4.0957,-4.091,-4.0872,-4.0626,-4.0369,-4.017,0.0,0.0,0.0,0.0,0.0,0.0,0.0,0.0,0.0,0.0,-0.7717,-0.7925,-0.809,-0.8421,-0.8639,0.0,0.0,0.0,0.0,0.0,0.0,0.0,0.0,0.0,0.0,0.0,0.0,-0.7717,-0.7717,-0.8096,-0.8804,-0.8804,0.0,0.0,0.0,0.0,-0.9413,0.0,0.0,0.0,0.0,0.0,0.0,0.0,0.0,0.0,-1.7202,-1.7501,0.0,0.0,0.0,0.0,0.0,0.0,0.0,0.0,-2.1479,-2.2124,-2.2542,0.0,-2.4439,-2.415,-2.4279,0.0,0.0,0.0,0.0,0.0,0.0,-2.4738,-2.5048,-2.4607,0.0,0.0,0.0,0.0,0.0,0.0,0.0,0.0,0.0,0.0,0.0,0.0,0.0,0.0,0.0,-2.8158,-2.8647,-2.8979,-2.96,-3.0659,-3.0955,-3.186,-3.3423,-3.3633,-3.417,-3.4908,-3.5346,-3.6153,-3.734,-3.7789,-3.8319,0.0,0.0,0.0,-4.0193,-4.0597,-4.0877,-4.1038,-4.1053,-4.1054,-4.1023,-4.0875,-4.0768,-4.0688,0.0,0.0,0.0,0.0,0.0,0.0,0.0,0.0,0.0,0.0,0.0,0.0,0.0,0.0,0.0,0.0,0.0,0.0,0.0,0.0,0.0,0.0,0.0,0.0,0.0,0.0,0.0,0.0,0.0,-0.799,0.0,0.0,0.0,0.0,0.0,-0.9113,-0.9614,-1.0115,-1.0777,-1.1522,-1.2698,0.0,0.0,0.0,0.0,0.0,-1.681,-1.7157,0.0,-1.803,-1.8139,-1.8302,0.0,0.0,0.0,0.0,-2.0779,-2.1464,-2.1753,-2.2698,-2.3649,-2.3636,-2.3826,-2.4131,0.0,0.0,0.0,0.0,0.0,0.0,-2.4708,0.0,0.0,0.0,0.0,0.0,0.0,0.0,0.0,0.0,0.0,0.0,0.0,0.0,0.0,0.0,0.0,-2.7012,-2.7353,-2.7657,-2.8158,-2.8782,-2.9095,-3.0408,-3.2788,-3.2879,-3.3375,-3.4219,-3.4622,-3.5391,-3.6452,-3.7157,-3.7807,0.0,0.0,0.0,-3.9927,-4.0323,-4.0403,-4.0312,-4.0426,-4.024,-3.9881,-3.9769,-3.9721,-3.968,0.0,0.0,0.0,0.0,0.0,0.0,0.0,0.0,0.0,0.0,0.0,0.0,0.0,0.0,0.0,0.0,0.0,0.0,0.0,0.0,0.0,0.0,0.0,0.0,0.0,0.0,0.0,0.0,0.0,0.0,0.0,0.0,-0.8804,0.0,0.0,-0.9061,-0.9562,-1.0517,-1.0924,-1.1078,-1.3013,0.0,0.0,0.0,0.0,0.0,0.0,0.0,0.0,-1.7963,-1.8259,-1.8422,-1.8572,0.0,0.0,0.0,0.0,0.0,-2.1356,-2.197,-2.2688,-2.3339,-2.3708,-2.3956,0.0,0.0,0.0,0.0,0.0,0.0,0.0,0.0,0.0,0.0,0.0,0.0,0.0,0.0,0.0,0.0,0.0,0.0,0.0,0.0,0.0,0.0,0.0,-2.5602,-2.568,-2.6195,-2.6633,-2.6775,-2.7384,-2.8973,-3.1658,-3.1799,-3.246,-3.363,-3.3843,-3.4618,-3.5779,-3.6452,-3.7175,-3.7907,0.0,0.0,-3.9534,-3.9678,-3.9576,-3.9296,-3.9422,-3.9073,-3.8466,-3.8378,-3.8339,-3.8302,0.0,0.0,0.0,0.0,0.0,0.0,0.0,0.0,0.0,0.0,0.0,0.0,0.0,0.0,0.0,0.0,0.0,0.0,0.0,0.0,0.0,0.0,0.0,0.0,0.0,0.0,0.0,0.0,0.0,0.0,-0.8804,-0.8804,-0.8804,-0.8804,-0.8804,-0.8857,-0.8956,-0.9562,-1.0263,-1.1094,-1.2272,0.0,0.0,0.0,0.0,0.0,0.0,0.0,0.0,-1.8259,-1.8367,-1.8422,-1.8691,0.0,0.0,0.0,0.0,0.0,-2.1316,-2.1809,-2.2172,-2.2676,-2.3017,-2.3245,0.0,0.0,0.0,0.0,0.0,0.0,0.0,0.0,0.0,0.0,0.0,0.0,0.0,0.0,0.0,0.0,0.0,0.0,0.0,0.0,0.0,0.0,0.0,-2.4583,-2.5079,-2.5214,-2.5775,-2.6775,-2.6909,-2.7454,-2.8469,-2.9012,-3.0168,-3.1951,-3.2019,-3.3124,-3.5227,-3.5797,-3.6561,-3.7398,0.0,-3.7868,-3.8268,-3.7886,-3.7961,-3.8315,-3.8394,-3.8422,-3.8424,-3.845,-3.8474,-3.845,0.0,0.0,0.0,0.0,0.0,0.0,0.0,0.0,0.0,0.0,0.0,0.0,0.0,0.0,0.0,0.0,0.0,0.0,0.0,0.0,0.0,0.0,0.0,0.0,0.0,0.0,0.0,0.0,0.0,-0.8203,-0.8804,-0.8804,-0.8804,-0.8804,-0.8804,-0.8956,-0.9263,-1.0115,-1.0889,-1.1629,0.0,0.0,0.0,0.0,0.0,0.0,0.0,0.0,0.0,0.0,-1.8583,-1.8637,-1.8744,0.0,0.0,0.0,0.0,0.0,-2.0564,-2.1308,-2.1999,-2.2293,-2.2745,-2.3078,0.0,0.0,0.0,0.0,0.0,0.0,0.0,0.0,0.0,0.0,0.0,0.0,0.0,0.0,0.0,0.0,0.0,0.0,0.0,0.0,0.0,0.0,0.0,0.0,-2.4133,-2.4385,-2.48,-2.5335,-2.5335,-2.563,-2.6254,-2.6539,-2.7849,-3.0048,-3.0729,-3.1628,-3.2692,-3.3807,-3.4582,-3.5052,0.0,-3.6401,-3.6759,-3.6963,-3.6996,-3.6999,-3.7332,-3.723,-3.6895,-3.7035,-3.71,-3.7085,0.0,0.0,0.0,0.0,0.0,0.0,0.0,0.0,0.0,0.0,0.0,0.0,0.0,0.0,0.0,0.0,0.0,0.0,0.0,0.0,0.0,0.0,0.0,0.0,0.0,0.0,-0.6696,-0.7295,-0.7824,-0.8368,-0.8804,-0.8804,-0.8804,0.0,-0.8962,-0.9306,-0.9881,-1.0953,-1.1792,-1.2529,0.0,0.0,0.0,0.0,0.0,0.0,0.0,0.0,0.0,0.0,0.0,0.0,0.0,0.0,0.0,-1.8987,-1.9275,-1.9679,-1.9922,-2.0734,-2.1605,-2.1981,0.0,0.0,0.0,0.0,0.0,0.0,0.0,0.0,0.0,0.0,0.0,0.0,0.0,0.0,0.0,0.0,0.0,0.0,0.0,0.0,0.0,0.0,0.0,0.0,0.0,0.0,-2.3258,-2.3556,-2.3806,-2.3936,-2.3936,-2.4216,-2.4778,-2.4948,-2.6077,-2.8279,-2.938,-3.0084,-3.0377,-3.1892,-3.276,-3.3102,-3.4097,-3.4829,-3.5405,-3.5806,-3.5856,-3.5742,-3.617,-3.604,-3.565,-3.5801,-3.5866,-3.59,0.0,0.0,0.0,0.0,0.0,0.0,0.0,0.0,0.0,0.0,0.0,0.0,0.0,0.0,0.0,0.0,0.0,0.0,0.0,0.0,0.0,0.0,0.0,0.0,0.0,-0.6701,-0.7295,-0.7818,-0.8421,-0.8752,-0.8804,-0.8804,-0.8857,-0.9008,-0.9361,-0.9842,-1.04,-1.1562,-1.2726,-1.3914,-1.4678,0.0,0.0,0.0,0.0,0.0,0.0,0.0,0.0,0.0,0.0,0.0,0.0,0.0,-1.8987,-1.8987,-1.9011,-1.9209,-1.9855,-2.0171,-2.0588,-2.1782,0.0,0.0,0.0,0.0,0.0,0.0,0.0,0.0,0.0,0.0,0.0,0.0,0.0,0.0,0.0,0.0,0.0,0.0,0.0,0.0,0.0,0.0,0.0,0.0,0.0,0.0,-2.2665,-2.2665,-2.2932,-2.3463,-2.3463,-2.37,-2.4171,-2.4734,-2.5644,-2.6933,-2.7614,-2.8488,-2.9637,-3.0809,-3.189,-3.283,-3.2804,-3.3389,-3.4352,-3.3724,-3.3993,-3.4793,-3.4906,-3.5259,-3.5697,-3.5715,-3.5787,-3.5904,0.0,0.0,0.0,0.0,0.0,0.0,0.0,0.0,0.0,0.0,0.0,0.0,0.0,0.0,0.0,0.0,0.0,0.0,0.0,0.0,0.0,0.0,0.0,-0.6593,-0.6756,-0.6977,-0.7025,-0.6853,-0.7771,-0.8302,-0.8355,-0.8639,0.0,0.0,-0.986,-1.0524,-1.113,-1.2158,-1.3186,-1.4148,-1.4746,-1.5359,0.0,0.0,0.0,0.0,0.0,0.0,0.0,0.0,-1.8893,-1.8946,0.0,-1.8987,-1.8987,-1.8987,-1.8987,-1.9088,-1.94,-1.9799,-2.0251,-2.0915,0.0,0.0,0.0,0.0,0.0,0.0,0.0,0.0,0.0,0.0,0.0,0.0,0.0,0.0,0.0,0.0,0.0,0.0,0.0,0.0,0.0,0.0,0.0,0.0,0.0,0.0,-2.2175,-2.275,-2.3065,-2.2932,-2.3497,-2.376,-2.3641,-2.4157,-2.4669,-2.5158,-2.6092,-2.6957,-2.7762,-2.8551,-2.9325,-3.0172,-3.0967,-3.1768,-3.2546,-3.2952,-3.3524,-3.4195,-3.4579,-3.495,-3.5297,-3.554,-3.5706,-3.5787,0.0,0.0,0.0,0.0,0.0,0.0,0.0,0.0,0.0,0.0,0.0,0.0,0.0,0.0,0.0,0.0,0.0,0.0,0.0,0.0,0.0,0.0,0.0,-0.6858,-0.7085,-0.7085,-0.6972,-0.6745,-0.7765,-0.8249,-0.8355,0.0,0.0,0.0,-1.0462,-1.1319,-1.227,-1.311,-1.3858,-1.464,-1.5074,-1.5592,0.0,0.0,0.0,0.0,0.0,0.0,0.0,0.0,-1.8946,-1.8987,0.0,0.0,-1.8987,-1.8987,-1.8987,-1.8999,-1.9105,-1.9478,-1.989,0.0,0.0,0.0,0.0,0.0,0.0,0.0,0.0,0.0,0.0,0.0,0.0,0.0,0.0,0.0,0.0,0.0,0.0,0.0,0.0,0.0,0.0,0.0,0.0,0.0,0.0,0.0,0.0,-2.2137,-2.2445,-2.2237,-2.2992,-2.3378,-2.3403,-2.37,-2.3936,-2.4112,-2.4865,-2.5577,-2.619,-2.6938,-2.7585,-2.824,-2.9371,-3.0352,-3.1189,-3.2158,-3.3046,-3.3842,-3.4357,-3.4699,-3.4966,-3.5276,-3.5496,-3.566,0.0,0.0,0.0,0.0,0.0,0.0,0.0,0.0,0.0,0.0,0.0,0.0,0.0,0.0,0.0,0.0,0.0,0.0,0.0,0.0,0.0,0.0,0.0,-0.761,-0.7085,-0.7085,-0.7348,-0.7871,-0.8626,-0.891,-0.8804,-0.8962,0.0,0.0,-1.1108,-1.2218,-1.3732,-1.4326,-1.4972,-1.5594,-1.5816,-1.6425,-1.7034,0.0,0.0,0.0,0.0,0.0,0.0,0.0,-1.8893,-1.8987,0.0,0.0,0.0,-1.8987,-1.8987,-1.8987,-1.8987,-1.9198,0.0,0.0,0.0,0.0,0.0,0.0,0.0,0.0,0.0,0.0,0.0,0.0,0.0,0.0,0.0,0.0,0.0,0.0,0.0,0.0,0.0,0.0,0.0,0.0,0.0,0.0,0.0,0.0,0.0,-2.0571,-2.0828,-2.1388,-2.1765,-2.2384,-2.3403,-2.3403,-2.3641,-2.4112,-2.4112,-2.439,-2.5061,-2.619,-2.7004,-2.752,-2.8207,-2.9268,-3.0533,-3.1168,-3.2343,-3.3815,-3.4099,-3.4427,-3.4793,-3.4867,-3.5147,-3.5508,0.0,0.0,0.0,0.0,0.0,0.0,0.0,0.0,0.0,0.0,0.0,0.0,0.0,0.0,0.0,0.0,0.0,0.0,0.0,0.0,0.0,0.0,0.0,0.0,0.0,0.0,-0.7187,-0.7348,-0.7931,-0.8249,0.0,0.0,0.0,-1.0165,0.0,0.0,0.0,0.0,-1.4468,-1.4942,-1.5001,-1.5225,-1.5449,0.0,0.0,0.0,0.0,0.0,0.0,0.0,0.0,0.0,-1.8483,0.0,-1.8987,-1.8987,-1.8987,-1.8987,-1.8987,-1.9105,0.0,0.0,0.0,0.0,0.0,0.0,0.0,0.0,0.0,0.0,0.0,0.0,0.0,0.0,0.0,0.0,0.0,0.0,0.0,0.0,0.0,0.0,0.0,0.0,0.0,0.0,0.0,0.0,0.0,-2.0752,-2.0805,-2.0828,-2.1916,-2.2665,-2.2859,-2.3198,-2.3641,-2.4112,-2.376,-2.4099,-2.5005,-2.5328,-2.6014,-2.6953,-2.7535,-2.8419,-2.9551,-3.1103,-3.2276,-3.3136,-3.3716,-3.3986,-3.4152,-3.4718,-3.4971,-3.5132,0.0,0.0,0.0,0.0,0.0,0.0,0.0,0.0,0.0,0.0,0.0,0.0,0.0,0.0,0.0,0.0,0.0,0.0,0.0,0.0,0.0,0.0,0.0,0.0,0.0,-0.7456,-0.7783,0.0,0.0,0.0,0.0,0.0,0.0,-1.0486,0.0,-1.2603,0.0,0.0,-1.4529,-1.4715,-1.4715,-1.4834,-1.5001,0.0,0.0,0.0,0.0,0.0,0.0,0.0,0.0,0.0,-1.8494,0.0,0.0,-1.8934,-1.8815,-1.8709,-1.8934,0.0,0.0,0.0,0.0,0.0,0.0,0.0,0.0,0.0,0.0,0.0,0.0,0.0,0.0,0.0,0.0,0.0,0.0,0.0,0.0,0.0,0.0,0.0,0.0,0.0,0.0,0.0,0.0,0.0,0.0,-2.0302,-2.0302,-2.0183,-2.1164,-2.1779,-2.1916,-2.2506,-2.3065,-2.3484,-2.3509,-2.3865,-2.4563,-2.4892,-2.5384,-2.6082,-2.7063,-2.8117,-2.9198,-3.0774,-3.1758,-3.2415,-3.3118,-3.3476,-3.3634,-3.424,-3.454,-3.4699,0.0,0.0,0.0,0.0,0.0,0.0,0.0,0.0,0.0,0.0,0.0,0.0,0.0,0.0,0.0,0.0,0.0,0.0,0.0,0.0,0.0,0.0,0.0,0.0,0.0,0.0,0.0,0.0,0.0,0.0,0.0,0.0,-1.0123,-1.1338,0.0,-1.2932,-1.3974,-1.4597,-1.4784,-1.4656,-1.4656,-1.4951,-1.5245,-1.4734,0.0,0.0,0.0,0.0,0.0,0.0,0.0,0.0,-1.8602,-1.8429,-1.8213,-1.8762,-1.8536,-1.8201,0.0,0.0,0.0,0.0,0.0,0.0,0.0,0.0,0.0,0.0,0.0,0.0,0.0,0.0,0.0,0.0,0.0,0.0,0.0,0.0,0.0,0.0,0.0,0.0,0.0,0.0,0.0,0.0,0.0,0.0,0.0,-1.9518,-1.9539,-1.9605,-1.9911,-2.0344,-2.091,-2.1491,-2.2051,-2.2543,-2.3053,-2.3509,-2.3819,-2.4563,-2.4948,-2.5118,-2.6701,-2.8036,-2.9141,-3.0128,-3.0931,-3.1593,-3.2382,-3.2867,-3.3194,-3.3597,-3.3931,-3.4228,0.0,0.0,0.0,0.0,0.0,0.0,0.0,0.0,0.0,0.0,0.0,0.0,0.0,0.0,0.0,0.0,0.0,0.0,0.0,0.0,0.0,0.0,0.0,0.0,0.0,0.0,0.0,0.0,0.0,0.0,0.0,0.0,0.0,-1.1197,0.0,-1.2874,-1.3623,-1.3752,-1.413,-1.4565,-1.4565,-1.4616,-1.4684,-1.4575,-1.4565,0.0,0.0,0.0,0.0,0.0,0.0,0.0,-1.7146,-1.7424,-1.8147,-1.8267,-1.8201,-1.8201,0.0,0.0,0.0,0.0,0.0,0.0,0.0,0.0,0.0,0.0,0.0,0.0,0.0,0.0,0.0,0.0,0.0,0.0,0.0,0.0,0.0,0.0,0.0,0.0,0.0,0.0,0.0,0.0,0.0,0.0,-1.9052,-1.9141,-1.9341,-1.9605,-2.0031,-2.0462,-2.0921,-2.1049,-2.1353,0.0,-2.1604,-2.1978,-2.2919,-2.3734,-2.4447,-2.5061,-2.6336,-2.7268,-2.8021,-2.8989,-2.9995,-3.1009,-3.1504,-3.2194,-3.2916,-3.3299,-3.3606,-3.3956,0.0,0.0,0.0,0.0,0.0,0.0,0.0,0.0,0.0,0.0,0.0,0.0,0.0,0.0,0.0,0.0,0.0,0.0,0.0,0.0,0.0,0.0,0.0,0.0,0.0,0.0,0.0,0.0,0.0,0.0,0.0,0.0,0.0,-1.0882,0.0,-1.2212,-1.2589,-1.3321,-1.3821,-1.413,-1.4556,-1.4743,-1.4743,-1.4743,-1.4743,-1.4803,-1.5313,0.0,0.0,0.0,0.0,0.0,0.0,0.0,-1.7313,-1.7589,-1.7479,-1.7368,0.0,0.0,0.0,0.0,0.0,0.0,0.0,0.0,0.0,0.0,0.0,0.0,0.0,0.0,0.0,0.0,0.0,0.0,0.0,0.0,0.0,0.0,0.0,0.0,0.0,0.0,0.0,0.0,0.0,-1.7533,-1.7977,-1.8076,-1.8284,-1.869,-1.9137,-1.949,-1.9683,-2.0222,-2.0666,-2.0858,-2.0985,-2.1553,-2.2543,-2.3437,-2.4287,-2.5061,-2.592,-2.6625,-2.7354,-2.834,-2.9159,-2.988,-3.078,-3.1411,-3.1952,-3.2769,-3.3171,-3.3393,0.0,0.0,0.0,0.0,0.0,0.0,0.0,0.0,0.0,0.0,0.0,0.0,0.0,0.0,0.0,0.0,0.0,0.0,0.0,0.0,0.0,0.0,0.0,0.0,0.0,0.0,0.0,0.0,0.0,0.0,0.0,0.0,0.0,-1.0618,0.0,-1.1608,-1.1911,-1.3009,-1.3563,-1.3752,-1.4419,-1.4725,-1.4793,-1.4862,-1.498,-1.497,-1.497,-1.5147,-1.5439,-1.5826,0.0,0.0,0.0,0.0,-1.6415,-1.6922,-1.6698,-1.6415,0.0,0.0,0.0,0.0,0.0,0.0,0.0,0.0,0.0,0.0,0.0,0.0,0.0,0.0,0.0,0.0,0.0,0.0,0.0,0.0,0.0,0.0,0.0,0.0,0.0,0.0,0.0,0.0,0.0,-1.6321,-1.6822,-1.6954,-1.7201,-1.7678,-1.8081,-1.8268,-1.8268,-1.9212,-1.9706,-1.9846,-2.0568,-2.1313,-2.2051,-2.3185,-2.4099,-2.4835,-2.5425,-2.6,-2.664,-2.775,-2.8304,-2.8654,-2.9907,-3.059,-3.0931,-3.2074,-3.2616,-3.289,0.0,0.0,0.0,0.0,0.0,0.0,0.0,0.0,0.0,0.0,0.0,0.0,0.0,0.0,0.0,0.0,0.0,0.0,0.0,0.0,0.0,0.0,0.0,0.0,0.0,0.0,0.0,0.0,0.0,0.0,0.0,0.0,0.0,-1.0521,0.0,0.0,-1.3199,-1.2818,-1.3009,-1.3571,-1.3631,-1.3752,-1.3932,-1.4378,-1.4743,-1.497,-1.497,-1.543,-1.5941,-1.5584,-1.5864,0.0,0.0,0.0,-1.6312,-1.6425,-1.6358,0.0,0.0,0.0,0.0,0.0,0.0,0.0,0.0,0.0,0.0,0.0,0.0,0.0,0.0,0.0,0.0,0.0,0.0,0.0,0.0,0.0,0.0,0.0,0.0,0.0,0.0,0.0,0.0,0.0,-1.5303,-1.5448,-1.6335,-1.6795,-1.7201,-1.7678,-1.7792,-1.7812,-1.7812,-1.7937,-1.8218,-1.8668,-1.9706,-2.0344,-2.0643,-2.2101,-2.3233,-2.4112,-2.4778,-2.516,-2.5328,-2.6443,-2.7246,-2.7838,-2.8686,-2.9724,-3.083,-3.1142,-3.1899,-3.2827,0.0,0.0,0.0,0.0,0.0,0.0,0.0,0.0,0.0,0.0,0.0,0.0,0.0,0.0,0.0,0.0,0.0,0.0,0.0,0.0,0.0,-0.5673,-0.5673,-0.5837,0.0,0.0,0.0,0.0,0.0,0.0,0.0,-0.8089,-0.9205,0.0,0.0,0.0,0.0,0.0,-1.2512,-1.3139,-1.3614,-1.3795,-1.3923,-1.4547,-1.4666,-1.4469,-1.4843,-1.5205,-1.5488,-1.5313,-1.5478,-1.5652,-1.5468,0.0,0.0,0.0,0.0,0.0,0.0,0.0,0.0,0.0,0.0,0.0,0.0,0.0,0.0,0.0,0.0,0.0,0.0,0.0,0.0,0.0,0.0,0.0,0.0,0.0,0.0,0.0,0.0,0.0,0.0,0.0,0.0,0.0,-1.4324,-1.4423,-1.5106,-1.5578,-1.6047,-1.6547,-1.7031,-1.7286,-1.7286,-1.7544,-1.7833,-1.803,-1.8786,-1.9372,-1.9882,-2.1327,-2.2457,-2.3352,-2.4523,-2.5005,-2.5061,-2.5865,-2.6534,-2.7181,-2.7803,-2.8685,-2.962,-3.0549,-3.1202,-3.181,0.0,0.0,0.0,0.0,0.0,0.0,0.0,0.0,0.0,0.0,0.0,0.0,0.0,0.0,0.0,0.0,0.0,0.0,0.0,0.0,0.0,-0.5297,-0.5297,-0.5297,-0.5297,0.0,0.0,0.0,0.0,0.0,-0.619,-0.7588,-0.9011,0.0,-1.0491,0.0,0.0,0.0,0.0,-1.2765,-1.3183,-1.3485,0.0,0.0,-1.4103,-1.3795,-1.4291,-1.4538,-1.4725,-1.4656,-1.4725,-1.4902,-1.5001,-1.505,0.0,0.0,0.0,0.0,0.0,0.0,0.0,0.0,0.0,0.0,0.0,0.0,0.0,0.0,0.0,0.0,0.0,0.0,0.0,0.0,0.0,0.0,0.0,0.0,0.0,0.0,0.0,0.0,0.0,0.0,0.0,0.0,-1.37,-1.3692,-1.4189,-1.4538,-1.4961,-1.5498,-1.6157,-1.6505,-1.6693,-1.7265,-1.7492,-1.7503,-1.8009,-1.8459,-1.9024,-2.0478,-2.1443,-2.2141,-2.3981,-2.4778,-2.4835,-2.537,-2.5851,-2.6336,-2.7115,-2.7754,-2.8417,-2.9778,-3.0492,-3.0909,0.0,0.0,0.0,0.0,0.0,0.0,0.0,0.0,0.0,0.0,0.0,0.0,0.0,0.0,0.0,-0.5407,-0.5297,-0.5297,-0.5297,-0.5297,-0.5297,-0.5297,-0.5297,0.0,-0.5297,0.0,0.0,0.0,0.0,0.0,-0.6847,-0.7939,-0.886,-0.9582,-1.0301,-1.0933,-1.1428,0.0,0.0,0.0,-1.1849,-1.2097,0.0,0.0,0.0,0.0,0.0,0.0,-1.3974,-1.3312,-1.3554,-1.4085,-1.4094,-1.4154,-1.4273,0.0,0.0,0.0,0.0,0.0,0.0,0.0,0.0,0.0,0.0,0.0,0.0,0.0,0.0,0.0,0.0,0.0,0.0,0.0,0.0,0.0,0.0,0.0,0.0,0.0,0.0,0.0,0.0,0.0,0.0,0.0,-1.3502,-1.3692,-1.4189,-1.4189,-1.4428,-1.4951,-1.497,-1.5225,-1.577,-1.6614,-1.7018,-1.7028,-1.7482,-1.7761,-1.7843,-1.92,-1.9845,-2.0053,-2.2874,-2.4171,-2.4171,-2.4778,-2.5061,-2.5216,-2.6481,-2.7217,-2.7739,-2.8497,-2.9592,-3.0711,0.0,0.0,0.0,0.0,0.0,0.0,0.0,0.0,0.0,0.0,0.0,0.0,0.0,0.0,-0.5234,-0.5297,-0.5297,-0.5297,-0.5297,-0.5297,-0.5297,-0.5297,-0.5297,-0.5297,-0.5297,0.0,0.0,0.0,0.0,-0.6067,-0.6485,-0.7383,-0.7972,-0.8296,-0.9907,-1.0751,-1.0933,-1.0688,0.0,0.0,-1.1608,-1.167,-1.1973,0.0,0.0,0.0,0.0,0.0,0.0,-1.2887,-1.3009,-1.3252,-1.3304,-1.3364,-1.3433,0.0,0.0,0.0,0.0,0.0,0.0,0.0,0.0,0.0,0.0,0.0,0.0,0.0,0.0,0.0,0.0,0.0,0.0,0.0,0.0,0.0,0.0,0.0,0.0,0.0,0.0,0.0,0.0,0.0,0.0,0.0,0.0,-1.3571,-1.3761,-1.407,-1.4249,-1.4428,-1.4715,-1.5137,-1.5672,-1.6006,-1.6321,-1.6622,-1.6708,-1.6982,-1.7305,-1.8323,-1.8956,-1.9365,-2.1248,-2.2524,-2.3339,-2.4028,-2.4563,-2.5061,-2.5481,-2.6215,-2.7093,-2.7754,-2.8607,-2.9565,0.0,0.0,0.0,0.0,0.0,0.0,0.0,0.0,0.0,0.0,0.0,0.0,0.0,0.0,-0.4294,-0.4515,-0.4904,-0.5073,-0.4904,-0.4849,-0.4849,-0.4849,-0.468,-0.457,-0.457,0.0,0.0,0.0,0.0,0.0,0.0,-0.697,-0.7386,-0.7451,-0.939,-1.0231,0.0,0.0,0.0,-1.1483,0.0,-1.1303,-1.1545,0.0,0.0,0.0,0.0,0.0,0.0,0.0,-1.222,-1.2397,0.0,0.0,0.0,0.0,0.0,0.0,0.0,0.0,0.0,0.0,0.0,0.0,0.0,0.0,0.0,0.0,0.0,0.0,0.0,0.0,0.0,0.0,0.0,0.0,0.0,0.0,0.0,0.0,0.0,0.0,0.0,0.0,0.0,0.0,0.0,0.0,-1.3511,-1.3821,-1.3941,-1.3941,-1.4419,-1.4902,-1.5439,-1.5614,-1.5856,-1.6144,-1.6137,-1.6158,-1.6346,-1.7233,-1.7804,-1.8197,-1.9573,-2.0912,-2.2201,-2.3097,-2.378,-2.4279,-2.4751,-2.5425,-2.6229,-2.7012,-2.772,-2.8449,0.0,0.0,0.0,0.0,0.0,0.0,0.0,0.0,0.0,0.0,0.0,0.0,0.0,0.0,0.0,-0.3118,-0.4174,-0.4618,-0.4009,-0.395,-0.395,-0.395,-0.3398,-0.3118,-0.3118,-0.3677,0.0,0.0,0.0,0.0,0.0,0.0,-0.7111,0.0,-0.8737,-0.9454,-0.9518,0.0,-1.0933,-1.1421,0.0,-1.0926,-1.1421,0.0,0.0,0.0,-1.0624,-1.0996,0.0,0.0,0.0,0.0,0.0,0.0,0.0,0.0,0.0,0.0,0.0,0.0,0.0,0.0,0.0,0.0,0.0,0.0,0.0,0.0,0.0,0.0,0.0,0.0,0.0,0.0,0.0,0.0,0.0,0.0,0.0,0.0,0.0,0.0,0.0,0.0,0.0,0.0,-1.3511,-1.3511,-1.3511,-1.3511,-1.3511,-1.3511,-1.3941,-1.4419,-1.4893,-1.5371,-1.5672,-1.5672,-1.5672,-1.5381,-1.4911,-1.5859,-1.6297,-1.6377,-1.7935,-1.949,-2.0889,-2.2031,-2.2628,-2.2917,-2.4137,-2.4808,-2.5118,-2.6244,-2.699,-2.762,0.0,0.0,0.0,0.0,0.0,0.0,0.0,0.0,0.0,0.0,0.0,0.0,0.0,0.0,0.0,-0.3118,-0.3398,-0.3506,-0.334,-0.334,-0.334,-0.334,-0.3174,-0.3118,-0.3118,-0.3308,0.0,0.0,0.0,0.0,0.0,0.0,0.0,0.0,-0.7316,-0.8037,-0.8166,-0.9849,0.0,0.0,-1.0688,-1.0688,0.0,0.0,0.0,0.0,0.0,-1.0681,-1.0807,0.0,-1.0681,-1.087,0.0,0.0,0.0,0.0,0.0,0.0,-1.1122,0.0,0.0,0.0,0.0,0.0,0.0,0.0,0.0,0.0,0.0,0.0,0.0,0.0,0.0,0.0,0.0,0.0,0.0,0.0,0.0,0.0,0.0,0.0,0.0,0.0,0.0,0.0,-1.3511,-1.3511,-1.3511,-1.3511,-1.3511,-1.3511,-1.3631,-1.3941,-1.4369,-1.4547,-1.4784,-1.5128,-1.4784,-1.4725,-1.4893,-1.5183,-1.5487,-1.5939,-1.7015,-1.7694,-1.8235,-2.0387,-2.1596,-2.2216,-2.3018,-2.3904,-2.4865,-2.5314,-2.6162,-2.7129,0.0,0.0,0.0,0.0,0.0,0.0,0.0,0.0,0.0,0.0,0.0,0.0,0.0,0.0,0.0,-0.2176,-0.2621,-0.2843,-0.2565,-0.2565,-0.2565,-0.2565,-0.2343,-0.2193,-0.2166,-0.2439,0.0,0.0,0.0,0.0,0.0,0.0,0.0,0.0,0.0,0.0,0.0,0.0,0.0,0.0,-1.0491,0.0,0.0,-1.0624,-1.0624,0.0,0.0,0.0,-1.0498,-0.9913,-0.9907,0.0,0.0,0.0,0.0,0.0,0.0,0.0,0.0,0.0,0.0,0.0,0.0,0.0,-1.0225,-1.0028,0.0,0.0,0.0,0.0,0.0,0.0,0.0,0.0,0.0,0.0,0.0,0.0,0.0,0.0,0.0,0.0,0.0,-1.3511,-1.3511,-1.3511,-1.3511,-1.3511,-1.3511,-1.3511,-1.3511,-1.3511,-1.3511,-1.3752,-1.4189,-1.4189,-1.4369,-1.4597,-1.4309,-1.424,-1.435,-1.4538,-1.4784,-1.5088,-1.5812,-1.6276,-1.6573,-1.8229,-1.9718,-2.1078,-2.1979,-2.303,-2.4076,-2.467,-2.5412,-2.6215,0.0,0.0,0.0,0.0,0.0,0.0,0.0,0.0,0.0,0.0,0.0,0.0,0.0,0.0,0.0,0.0,-0.1902,-0.2291,-0.1734,-0.1679,-0.1623,-0.1623,-0.1068,-0.0743,-0.0765,-0.1303,0.0,0.0,0.0,0.0,0.0,0.0,0.0,0.0,0.0,0.0,0.0,0.0,0.0,-0.9262,-1.0168,-1.0491,0.0,0.0,-1.0364,0.0,-0.9652,-0.9779,-1.0168,-0.8941,-0.8877,0.0,0.0,0.0,0.0,0.0,-1.0364,0.0,0.0,0.0,0.0,0.0,0.0,0.0,-0.9262,-0.9326,-0.9454,0.0,0.0,0.0,0.0,0.0,0.0,0.0,0.0,0.0,0.0,0.0,0.0,0.0,0.0,0.0,-1.3511,-1.345,-1.345,-1.345,-1.339,-1.339,-1.345,-1.345,-1.345,-1.3511,-1.3511,-1.3692,-1.413,-1.413,-1.413,-1.413,-1.413,-1.3881,-1.3511,-1.4001,-1.4189,-1.4249,-1.4715,-1.5186,-1.5644,-1.6089,-1.755,-1.9726,-2.1019,-2.2048,-2.2992,-2.4116,-2.4697,-2.5118,0.0,0.0,0.0,0.0,0.0,0.0,0.0,0.0,0.0,0.0,0.0,0.0,0.0,0.0,0.0,0.0,0.0,-0.1177,-0.1065,-0.0728,-0.0504,-0.0504,-0.0058,0.0234,0.0236,-0.0247,0.0,0.0,0.0,0.0,0.0,0.0,0.0,0.0,0.0,0.0,0.0,0.0,0.0,-0.7572,-0.9064,0.0,-0.9652,-0.9134,-0.8941,-0.8877,-0.8748,-0.8812,-0.8877,0.0,-0.8619,-0.8683,0.0,0.0,0.0,0.0,0.0,0.0,0.0,0.0,0.0,0.0,0.0,0.0,-0.8431,-0.8366,-0.8431,0.0,0.0,0.0,0.0,0.0,0.0,0.0,0.0,0.0,0.0,0.0,0.0,0.0,0.0,0.0,-1.345,-1.3277,-1.3103,-1.3103,-1.285,-1.2789,-1.3103,-1.3103,-1.3216,-1.3511,-1.3511,-1.3571,-1.3631,-1.3631,-1.3631,-1.3631,-1.3631,-1.3571,-1.3511,-1.4001,-1.4189,-1.4249,-1.4715,-1.4951,-1.5079,-1.5586,-1.6853,-1.8538,-1.9715,-2.0993,-2.2214,-2.3044,-2.4023,-2.5005,0.0,0.0,0.0,0.0,0.0,0.0,0.0,0.0,0.0,0.0,0.0,0.0,0.0,0.0,0.0,0.0,0.0,0.0,0.0,0.0,-0.0059,0.0176,0.0418,0.0546,0.0554,0.0317,-0.013,0.0,0.0,0.0,0.0,0.0,0.0,0.0,0.0,0.0,0.0,0.0,-0.7116,-0.7181,-0.8345,0.0,-0.8737,-0.8355,-0.8226,-0.8226,-0.7837,-0.7577,-0.7447,-0.7842,-0.7972,0.0,0.0,-0.8231,-0.849,0.0,-0.849,-0.8425,0.0,0.0,0.0,-0.7642,0.0,0.0,0.0,-0.7531,-0.7591,-0.8032,0.0,0.0,0.0,0.0,0.0,0.0,0.0,0.0,0.0,0.0,0.0,0.0,0.0,0.0,-1.2258,-1.2081,-1.2035,-1.2158,-1.1973,-1.1973,-1.2212,-1.2589,-1.2834,-1.3009,-1.3321,-1.339,-1.3277,-1.339,-1.339,-1.3277,-1.339,-1.3511,-1.3511,-1.3761,-1.3881,-1.3881,-1.4112,-1.435,-1.4597,-1.5079,-1.5956,-1.7017,-1.8389,-1.9599,-2.0677,-2.1587,-2.268,-2.3629,0.0,0.0,0.0,0.0,0.0,0.0,0.0,0.0,0.0,0.0,0.0,0.0,0.0,0.0,0.0,0.0,0.0,0.0,0.0,0.0,0.0,0.0738,0.0805,0.0879,0.0901,0.0777,0.0525,0.0,0.0,0.0,0.0,0.0,0.0,0.0,0.0,0.0,0.0,0.0,0.0,-0.692,0.0,-0.7762,-0.7897,-0.7702,-0.7637,-0.7572,-0.6924,-0.6474,-0.628,-0.6999,0.0,-0.726,-0.7265,-0.7652,0.0,0.0,0.0,0.0,0.0,0.0,0.0,0.0,0.0,-0.6486,0.0,0.0,0.0,-0.733,0.0,0.0,0.0,0.0,0.0,0.0,0.0,0.0,0.0,0.0,0.0,0.0,0.0,0.0,0.0,-1.0954,-1.0954,-1.1017,-1.1024,-1.1142,-1.1329,-1.1896,-1.2328,-1.2389,-1.2948,-1.3147,-1.2928,-1.3086,-1.3025,-1.2789,-1.2956,-1.307,-1.3191,-1.3191,-1.3199,-1.3329,-1.3329,-1.3511,-1.3881,-1.441,-1.4893,-1.5517,-1.7248,-1.8373,-1.9123,-2.0169,-2.1178,-2.2063,0.3683,0.3516,0.0,0.0,0.0,0.0,0.0,0.0,0.0,0.0,0.0,0.0,0.0,0.0,0.0,0.0,0.0,0.0,0.0615,0.0,0.0,0.0,0.1706,0.1928,0.1934,0.1453,0.1206,0.1143,0.0,0.0,0.0,0.0,0.0,0.0,-0.228,0.0,0.0,0.0,-0.5156,0.0,-0.5811,-0.6531,0.0,-0.6671,-0.6408,-0.6342,-0.6086,-0.5954,-0.5954,0.0,-0.6346,-0.6346,0.0,-0.6548,-0.6613,0.0,0.0,0.0,0.0,0.0,0.0,0.0,-0.642,0.0,0.0,0.0,-0.6881,-0.6946,0.0,0.0,0.0,0.0,0.0,0.0,0.0,0.0,0.0,0.0,0.0,0.0,0.0,0.0,0.0,-1.0703,-1.0451,-1.0142,-1.0142,-1.0268,-1.0577,-1.1163,-1.1538,-1.1896,-1.2343,-1.2605,-1.2552,-1.2151,-1.1958,-1.1958,-1.1516,-1.1516,-1.202,-1.202,-1.2212,-1.2605,-1.2605,-1.2666,-1.2728,-1.3268,-1.3692,-1.4163,-1.64,-1.7767,-1.8498,-1.9146,-2.0165,-2.1312,0.0,0.0,0.0,0.0,0.0,0.0,0.0,0.0,0.0,0.0,0.0,0.0,0.0,0.0,0.0,0.0,0.0,0.0891,0.0,0.0,0.0,0.0,0.0,0.0,0.2443,0.2006,0.1748,0.1678,0.0671,0.0,0.0,0.0,0.0,0.0,-0.1946,0.0,-0.3082,0.0,0.0,0.0,0.0,0.0,0.0,-0.5815,-0.5484,-0.5084,-0.5156,-0.4888,-0.4553,0.0,-0.508,0.0,0.0,0.0,0.0,0.0,0.0,0.0,0.0,0.0,0.0,0.0,0.0,0.0,-0.635,0.0,-0.6618,0.0,0.0,0.0,0.0,0.0,0.0,0.0,-0.805,0.0,0.0,0.0,0.0,0.0,0.0,0.0,0.0,0.0,0.0,0.0,-0.9332,-0.9396,-0.964,-1.0218,-1.0591,-1.0766,-1.1337,-1.1531,-1.1344,-1.1329,-1.1267,-1.108,-1.1017,-1.1267,-1.1834,-1.1834,-1.2027,-1.2482,-1.2482,-1.2482,-1.2544,-1.3086,-1.339,-1.3563,-1.4836,-1.5954,-1.6843,-1.744,-1.8408,-1.9629,0.0,0.0,0.0,0.0,0.0,0.0,0.0,0.0,0.0,0.0,0.0,0.0,0.1535,0.1489,0.0,0.0,0.0,0.1381,0.0,0.0,0.1748,0.0,0.0,0.0,0.0,0.0,0.2285,0.2147,0.0,0.0,0.0,0.0,0.0,0.0,0.0,-0.1946,-0.2213,0.0,0.0,-0.4223,-0.435,-0.4348,-0.4414,-0.4755,-0.4489,-0.402,-0.4156,-0.3887,-0.3418,-0.3613,-0.4084,0.0,-0.388,0.0,0.0,0.0,0.0,0.0,-0.5951,0.0,0.0,0.0,0.0,0.0,0.0,0.0,0.0,0.0,0.0,0.0,0.0,0.0,0.0,0.0,0.0,0.0,0.0,0.0,0.0,0.0,0.0,0.0,0.0,0.0,0.0,-0.8705,-0.8705,-0.877,-0.8829,-0.9454,-0.9831,-0.9831,-1.0395,-1.0577,-1.0388,-1.0451,-1.0395,-1.0142,-1.0268,-1.0584,-1.108,-1.108,-1.1337,-1.1787,-1.1787,-1.1787,-1.1849,-1.2212,-1.2451,-1.2573,-1.3061,-1.3906,-1.4932,-1.5833,-1.6842,-1.7955,0.574,0.5069,0.0,0.0,0.0,0.0,0.0,0.0,0.0,0.0,0.0,0.0,0.0,0.0,0.0,0.0,0.0,0.2151,0.2221,0.0,0.2154,0.0,0.0,0.2686,0.0,0.0,0.0,0.0,0.0,0.0,0.0,0.0,0.0,0.0,0.0,-0.1478,-0.208,-0.2147,-0.2614,-0.3218,-0.3282,-0.3282,-0.3282,0.0,-0.3418,-0.3215,-0.3215,0.0,0.0,-0.342,-0.3553,0.0,0.0,0.0,0.0,0.0,0.0,0.0,0.0,0.0,0.0,-0.6086,0.0,0.0,0.0,0.0,-0.4882,0.0,0.0,0.0,0.0,0.0,0.0,0.0,0.0,0.0,0.0,0.0,0.0,0.0,0.0,0.0,0.0,0.0,0.0,-0.8517,-0.8517,-0.8517,-0.8511,-0.9022,-0.9338,-0.9338,-0.9767,-1.0015,-1.0015,-0.9582,-0.9338,-0.9338,-0.8829,-0.8829,-0.9402,-0.9402,-0.9646,-1.0078,-1.0078,-1.0078,-1.0078,-1.0078,-1.0332,-1.064,-1.1163,-1.1911,-1.281,-1.456,-1.5796,-1.6705,0.0,0.0,0.0,0.0,0.0,0.0,0.0,0.2672,0.0,0.0,0.0,0.0,0.0,0.2834,0.285,0.0,0.0,0.2891,0.2891,0.2891,0.0,0.0,0.0,0.3157,0.0,0.0,0.0,0.0,0.0,0.0,0.0,0.0,0.0,0.0,0.0,-0.121,0.0,0.0,0.0,0.0,0.0,-0.2213,-0.1946,0.0,0.0,-0.248,-0.248,-0.2213,0.0,-0.1879,-0.2281,-0.2683,-0.2146,-0.2746,-0.3611,-0.3015,-0.328,0.0,0.0,0.0,-0.3616,-0.4752,0.0,0.0,0.0,0.0,0.0,0.0,0.0,0.0,0.0,0.0,0.0,0.0,0.0,0.0,0.0,0.0,0.0,0.0,0.0,0.0,0.0,0.0,0.0,-0.8187,-0.8382,-0.8517,-0.8517,-0.8641,-0.877,-0.877,-0.8952,-0.9017,-0.9017,-0.8829,-0.877,-0.877,-0.8576,-0.8765,-0.9274,-0.9274,-0.9582,-1.0015,-1.0015,-1.0015,-1.0015,-1.0015,-1.0078,-1.0205,-1.073,-1.1296,-1.1911,-1.3846,-1.5031,-1.5856,0.6323,0.0,0.0,0.0,0.0,0.0,0.0,0.0,0.0,0.0,0.3182,0.0,0.322,0.0,0.3226,0.0,0.3226,0.3159,0.3023,0.3159,0.0,0.3023,0.3293,0.0,0.0,0.0,0.0,0.0,0.0,0.2348,0.0,0.0,0.0,0.0,0.0,0.0,0.0,0.0,-0.1745,0.0,0.0,-0.1478,0.0,0.0,-0.2147,-0.1745,0.0,-0.1478,-0.1076,-0.1076,-0.1478,-0.1813,-0.1277,-0.1878,-0.2679,-0.208,-0.2347,-0.2811,-0.3147,-0.2815,0.0,-0.3816,-0.3351,0.0,-0.3949,0.0,0.0,0.0,0.0,0.0,0.0,0.0,0.0,0.0,0.0,0.0,0.0,-0.4885,0.0,0.0,0.0,0.0,0.0,0.0,-0.7526,-0.7456,-0.7987,-0.8182,0.0,0.0,-0.8247,-0.7787,-0.8252,-0.8382,-0.8117,-0.8382,-0.8517,-0.8517,-0.8382,-0.8576,-0.9022,-0.8888,-0.9075,-0.9454,-0.9454,-0.9454,-0.9454,-0.9454,-0.9454,-0.9518,-1.0225,-1.0667,-1.1101,-1.2992,-1.4264,-1.5313,0.0,0.0,0.0,0.0,0.4876,0.0,0.0,0.0,0.4686,0.0,0.4213,0.3885,0.336,0.336,0.336,0.336,0.336,0.0,0.2887,0.3157,0.0,0.0,0.3556,0.3892,0.3892,0.0,0.0,0.0,0.0,0.0,0.0,0.0,0.0,0.0,0.0134,0.0,-0.1008,-0.1076,-0.1076,-0.1076,-0.1076,-0.1076,-0.1076,-0.1076,-0.1076,-0.1076,-0.1076,-0.1076,-0.1076,-0.1076,-0.1076,-0.1076,-0.1076,-0.1076,-0.1076,-0.1076,-0.1076,-0.1277,-0.2082,-0.1949,-0.188,-0.3211,0.0,0.0,0.0,0.0,-0.2087,0.0,0.0,0.0,0.0,0.0,0.0,0.0,0.0,0.0,0.0,0.0,0.0,0.0,0.0,0.0,0.0,-0.6408,-0.6539,-0.6334,-0.7321,-0.7456,0.0,0.0,-0.7787,-0.64,-0.7657,-0.8052,-0.7456,-0.8052,-0.8382,-0.8382,-0.8052,-0.8052,-0.8382,-0.8052,-0.8052,-0.8382,-0.8382,-0.8382,-0.8382,-0.8452,-0.8447,-0.8576,-0.9582,-1.0015,-1.0268,-1.2143,-1.3666,-1.508,0.8369,0.816,0.766,0.0,0.6361,0.6137,0.0,0.0,0.0,0.0,0.4989,0.5014,0.5156,0.5223,0.5223,0.5223,0.5223,0.0,0.0,0.0,0.0,0.5087,0.5289,0.5355,0.5355,0.4957,0.0,0.4755,0.0,0.0,0.3625,0.0,0.0,0.0,0.0,0.0,0.047,-0.0605,-0.1076,-0.1076,-0.1076,-0.1076,0.0,0.0,-0.1076,-0.1076,-0.1076,-0.1076,-0.1076,-0.1076,-0.1076,-0.1076,-0.1076,-0.1076,-0.1076,-0.1076,-0.1076,-0.1143,-0.1344,-0.1344,-0.1277,-0.1477,-0.1141,-0.0873,0.0,0.0,0.0,0.0,0.0,0.0,0.0,0.0,0.0,0.0,0.0,0.0,0.0,0.0,0.0,0.0,0.0,0.0,-0.508,-0.5477,-0.5606,-0.5606,-0.6133,-0.6334,-0.6067,0.0,0.0,-0.6067,-0.64,-0.6666,-0.6872,-0.6666,-0.6798,-0.7134,-0.6666,-0.6465,-0.6597,-0.6465,-0.6465,-0.6597,-0.6999,-0.7134,-0.7199,-0.7857,-0.8117,-0.8247,-0.9139,-0.9907,-1.0793,-1.2274,-1.3614,-1.4815,0.9071,0.0,0.0,0.7227,0.0,0.0,0.6634,0.0,0.0,0.5939,0.5939,0.0,0.5888,0.5888,0.5888,0.5888,0.5888,0.0,0.5617,0.0,0.0,0.5617,0.5822,0.5888,0.5888,0.5624,0.0,0.5087,0.0,0.0,0.4028,0.0,0.0,0.0,0.0,0.094,0.0,-0.0134,-0.047,-0.047,-0.0067,0.0,0.0,-0.0134,-0.0269,-0.0403,-0.0672,-0.0874,-0.1076,-0.1076,-0.1076,-0.1076,-0.1076,-0.1076,-0.1076,-0.0807,-0.0941,-0.1008,-0.0538,-0.0605,-0.0672,-0.0336,-0.0067,0.0,-0.0067,0.0067,0.0134,0.0,0.0,0.0,0.0,0.0,0.0,0.0,0.0,0.0,0.0,0.0,0.0,0.0,-0.3092,0.0,-0.402,-0.4486,-0.4686,-0.4616,-0.5276,-0.5474,0.0,0.0,0.0,-0.5014,-0.5606,-0.5873,-0.5877,-0.5873,-0.6071,-0.6338,-0.5873,-0.5738,-0.587,-0.5738,-0.5738,-0.5939,-0.6207,-0.6338,-0.6404,-0.6863,-0.706,-0.719,-0.8091,-0.9192,-1.0345,-1.1087,-1.2373,-1.3786,0.0,0.0,0.0,0.0,0.0,0.0,0.0,0.7521,0.0,0.6872,0.0,0.6618,0.6184,0.6102,0.6094,0.6117,0.0,0.5951,0.5606,0.5947,0.5951,0.5606,0.5947,0.6086,0.6086,0.602,0.0,0.0,0.0,0.0,0.0,0.0,0.0,0.0,0.0,0.0,0.0,0.0604,0.0604,0.0537,0.1274,0.1409,0.1143,0.1143,0.0941,0.0605,0.0134,-0.0403,-0.0874,-0.0941,-0.0941,-0.0874,-0.0874,-0.0874,-0.0806,-0.0336,-0.0538,-0.0672,0.0269,0.0134,-0.0067,0.047,0.0605,0.0605,0.0672,0.0739,0.0739,0.0739,0.0739,0.0672,0.0,0.0,0.0,0.0,0.0,0.0,0.0,0.0,0.0,0.0,0.0,0.0,-0.3023,-0.356,-0.3828,-0.3758,-0.455,-0.4616,0.0,0.0,0.0,-0.3758,-0.4812,-0.5209,-0.4683,0.0,-0.5404,-0.5675,-0.514,-0.514,-0.5543,-0.5209,-0.5209,-0.5543,-0.5609,-0.5675,-0.5675,-0.5804,-0.5873,-0.6001,-0.6846,-0.8016,-0.9122,-0.9192,-1.0382,-1.212,0.0,0.0,0.0,0.0,0.0,0.7521,0.7521,0.7521,0.7456,0.7391,0.733,0.7395,0.7436,0.73,0.7268,0.7436,0.7295,0.0,0.0,0.0,0.0,0.7125,0.7195,0.7195,0.7195,0.6806,0.628,0.0,0.0,0.0,0.0,0.0,0.0,0.0,0.0,0.0,0.1408,0.2211,0.0,0.1408,0.1542,0.1542,0.1543,0.1543,0.1476,0.1408,0.1274,0.0805,0.0134,-0.0269,-0.0134,0.0202,0.0202,0.0202,0.0269,0.0336,0.0269,0.0269,0.047,0.0403,0.047,0.1008,0.1143,0.1277,0.1817,0.1884,0.1884,0.1884,0.1884,0.1749,0.1277,0.0,0.0,0.0,0.0,0.0,0.0,0.0,0.0,0.0,0.0,0.0,0.0,0.0,-0.336,-0.3293,-0.3491,0.0,0.0,0.0,0.0,0.0,-0.3017,0.0,0.0,0.0,-0.2748,-0.4292,-0.3284,-0.3084,-0.3689,-0.3625,-0.3625,-0.3692,-0.4156,-0.4359,-0.4359,-0.508,-0.5606,-0.5939,-0.6067,-0.658,-0.7154,-0.7618,-0.8452,-0.9654,0.0,0.0,0.0,0.0,0.0,0.0,0.0,0.7626,0.0,0.7626,0.7626,0.7702,0.7914,0.7844,0.7825,0.7929,0.7839,0.7735,0.7631,0.7626,0.764,0.7526,0.7521,0.0,0.7521,0.726,0.6872,0.6284,0.0,0.0,0.0,0.0,0.0,0.0,0.0,0.2614,0.0,0.0,0.0,0.2345,0.2817,0.2883,0.275,0.275,0.2616,0.2417,0.2147,0.1946,0.1746,0.0739,0.0605,0.0806,0.0538,0.047,0.0538,0.0807,0.0739,0.0605,0.121,0.1143,0.1076,0.1614,0.1749,0.1817,0.2154,0.2221,0.2221,0.2221,0.2221,0.2018,0.1412,0.0941,0.0,0.0,0.0,0.0,0.0,0.0,0.0,0.0,0.0,0.0,0.0,0.0,0.0,0.0,0.0,0.0,0.0,0.0,0.0,0.0,0.0,0.0,0.0,0.0,0.0,-0.2618,-0.1743,-0.1677,-0.2353,-0.2485,-0.2551,-0.2686,-0.3291,-0.356,-0.3627,-0.4023,-0.4486,-0.4885,-0.4885,-0.5338,-0.5986,-0.6519,-0.7302,-0.8264,0.0,0.9773,0.0,0.0,0.8239,0.0,0.7879,0.7844,0.7844,0.7844,0.7844,0.7924,0.8127,0.8108,0.8099,0.8146,0.8108,0.8014,0.7853,0.7844,0.7749,0.7602,0.7593,0.7569,0.7521,0.7521,0.7265,0.0,0.0,0.0,0.0,0.0,0.0,0.0,0.0,0.0,0.0,0.0,0.3284,0.3351,0.4028,0.4164,0.3892,0.3892,0.3694,0.336,0.2954,0.309,0.3226,0.2082,0.1613,0.1479,0.1142,0.1075,0.1142,0.1613,0.1344,0.1142,0.2084,0.195,0.168,0.222,0.2356,0.2423,0.2354,0.2287,0.2287,0.2287,0.2356,0.222,0.168,0.168,0.0,0.0,0.0,0.0,0.0,0.0,0.0,0.0,0.0,0.0,0.0,0.0,0.0,0.0,0.0,0.0,0.0,0.0,0.0,0.0,0.0,-0.0604,-0.067,0.0,-0.0402,-0.1142,-0.0537,-0.0671,-0.1344,-0.1543,-0.1676,-0.1878,-0.2417,-0.2619,-0.2688,-0.2822,-0.309,-0.3491,-0.3692,-0.4154,-0.4812,-0.5543,-0.633,-0.7167,0.0,0.0,0.0,0.0,0.0,0.0,0.8159,0.8051,0.8051,0.8051,0.8051,0.8132,0.8349,0.8198,0.816,0.8354,0.8193,0.807,0.8051,0.8051,0.7962,0.7758,0.7749,0.7659,0.7526,0.7521,0.7265,0.0,0.0,0.6412,0.0,0.0,0.0,0.0,0.0,0.0,0.0,0.4164,0.4164,0.4164,0.43,0.43,0.4233,0.4233,0.4233,0.4167,0.4167,0.4167,0.4097,0.3692,0.3291,0.3025,0.2958,0.2958,0.2958,0.3025,0.2755,0.2485,0.2619,0.2619,0.2552,0.2619,0.2889,0.3025,0.2755,0.2619,0.2619,0.2619,0.2889,0.3025,0.2619,0.2822,0.2824,0.0,0.0,0.0,0.0,0.0,0.0,0.0,0.0,0.0,0.0,0.0268,0.0,0.0,0.0,0.0,0.0,0.0,0.0,-0.148,0.0,-0.0134,-0.121,0.0538,0.0738,-0.0536,0.0067,0.0067,-0.0603,-0.0603,-0.067,-0.067,-0.0737,-0.0872,-0.1075,-0.1546,-0.1748,-0.1883,-0.2552,-0.2887,-0.3086,-0.4414,-0.5143,-0.5672,0.0,0.0,0.0,0.0,0.0,0.0,0.0,0.898,0.8887,0.8513,0.8349,0.8354,0.8557,0.8505,0.8486,0.8576,0.85,0.8401,0.8283,0.8274,0.8179,0.7971,0.7844,0.774,0.7655,0.7588,0.7391,0.0,0.0,0.0,0.0,0.0,0.0,0.0,0.0,0.5093,0.4761,0.4761,0.4564,0.43,0.43,0.43,0.43,0.43,0.43,0.43,0.43,0.43,0.43,0.4164,0.3828,0.3493,0.3293,0.3226,0.3226,0.3226,0.3092,0.3023,0.3023,0.3023,0.3023,0.3023,0.3092,0.3226,0.342,0.322,0.309,0.3418,0.3618,0.3754,0.3951,0.4084,0.4087,0.0,0.0,0.0,0.0,0.0,0.0,0.0,0.0,0.0,0.0,0.0,0.0,0.0,0.0,0.0,0.0,0.0,0.0,0.047,0.0,0.1143,0.0806,0.1547,0.1479,0.0604,0.161,0.1743,0.1072,0.1403,0.1002,0.0067,-0.0335,-0.0536,-0.0604,-0.0872,-0.0939,-0.1006,-0.1612,-0.1882,-0.2014,-0.3213,-0.388,-0.4414,1.2519,0.0,1.1778,0.0,1.1197,1.0661,1.0132,1.0025,0.9791,0.9135,0.8956,0.8842,0.8685,0.8703,0.8703,0.8703,0.8703,0.8642,0.85,0.8491,0.8396,0.8184,0.7976,0.0,0.7782,0.7636,0.7521,0.7521,0.7521,0.0,0.0,0.0,0.0,0.0,0.5888,0.569,0.5355,0.5355,0.5093,0.4764,0.4764,0.4764,0.4764,0.4564,0.4631,0.4764,0.4564,0.4631,0.4764,0.4564,0.4361,0.4092,0.3694,0.3496,0.3496,0.3496,0.3426,0.336,0.336,0.336,0.3426,0.356,0.3694,0.3889,0.4281,0.4084,0.3956,0.4281,0.448,0.4616,0.4882,0.5014,0.5084,0.4815,0.0,0.0,0.0,0.0,0.0,0.0,0.4749,0.4746,0.4752,0.0,0.0,0.0,0.0,0.0,0.0,0.0,0.0,0.0,0.0,0.0,0.0,0.2287,0.2085,0.1547,0.2484,0.275,0.2414,0.3009,0.2671,0.1602,0.1069,0.0802,0.0802,0.0402,0.0268,0.0201,-0.0604,-0.0941,-0.1075,-0.221,-0.2811,-0.328,1.2519,1.2519,1.2348,1.1874,1.1779,1.1664,1.1137,1.1105,1.0812,0.9992,0.9916,0.9614,0.878,0.8703,0.8703,0.8703,0.8703,0.8703,0.8699,0.8699,0.8609,0.0,0.0,0.7981,0.7787,0.7636,0.7521,0.7521,0.0,0.0,0.7461,0.0,0.6412,0.5888,0.5888,0.5888,0.5888,0.5888,0.5888,0.5888,0.5888,0.5888,0.5822,0.5289,0.5422,0.5822,0.5289,0.5422,0.5822,0.5289,0.5087,0.5024,0.4431,0.43,0.43,0.43,0.4028,0.3825,0.3825,0.3825,0.3892,0.4425,0.4824,0.5087,0.5279,0.5276,0.5276,0.5276,0.5617,0.5752,0.5342,0.5617,0.562,0.4948,0.0,0.0,0.0,0.0,0.0,0.0,0.3956,0.382,0.4558,0.0,0.0,0.0,0.0,0.0,0.0,0.0,0.0,0.288,0.3088,0.0,0.1945,0.2417,0.2554,0.2221,0.2221,0.2554,0.3215,0.3951,0.4287,0.422,0.4015,0.3949,0.388,0.2614,0.2079,0.1945,0.0537,0.0,-0.0201,-0.1606,-0.2139,-0.2274,1.3184,1.3184,1.3142,1.2956,1.297,1.2708,1.199,1.1929,1.1632,1.0812,1.0738,1.0657,1.0565,0.9591,0.8921,0.0,0.8921,0.8859,0.0,0.8703,0.8675,0.8609,0.8411,0.8203,0.799,0.7919,0.7815,0.7678,0.0,0.0,0.0,0.7657,0.7396,0.7003,0.7003,0.6806,0.6486,0.6617,0.6463,0.6128,0.6248,0.6293,0.6282,0.5956,0.5981,0.6037,0.5726,0.5756,0.5888,0.569,0.5624,0.5624,0.5425,0.4897,0.43,0.43,0.4233,0.4164,0.4164,0.4164,0.4295,0.4824,0.5024,0.5286,0.6075,0.6272,0.6272,0.6272,0.6342,0.6544,0.6728,0.6933,0.6933,0.6666,0.6999,0.0,0.0,0.0,0.0,0.0,0.64,0.633,0.0,0.5807,0.0,0.0,0.0,0.0,0.0,0.0,0.0,0.0,0.4284,0.0,0.388,0.4015,0.4084,0.3951,0.448,0.5077,0.5745,0.5477,0.5411,0.5342,0.4812,0.448,0.4278,0.3877,0.368,0.3551,0.2676,0.2076,0.1543,0.0736,-0.0067,-0.0805,1.371,1.3637,1.3645,1.3645,1.3564,1.3346,1.282,1.2746,1.2526,1.1781,1.1632,1.1589,1.1602,1.0784,0.0,0.9886,0.987,0.9735,0.9289,0.9204,0.916,0.916,0.8951,0.8767,0.8699,0.8614,0.0,0.8378,0.8574,0.8638,0.8503,0.8503,0.8369,0.8163,0.8163,0.7961,0.7702,0.7834,0.7614,0.7133,0.7257,0.7233,0.7078,0.6748,0.6704,0.6892,0.6443,0.6451,0.6572,0.6304,0.6214,0.6152,0.5954,0.5428,0.4897,0.4897,0.4897,0.4897,0.4897,0.4897,0.503,0.555,0.5683,0.5947,0.6802,0.6999,0.6999,0.6999,0.6999,0.7129,0.7461,0.7521,0.7521,0.7521,0.7521,0.7521,0.7521,0.0,0.0,0.0,0.0,0.0,0.0,0.6474,0.6075,0.0,0.0,0.0,0.0,0.0,0.0,0.5477,0.5348,0.0,0.5011,0.5011,0.4948,0.4815,0.554,0.6141,0.6544,0.6342,0.6272,0.6276,0.5811,0.5543,0.5408,0.514,0.4945,0.4815,0.4209,0.368,0.3215,0.2676,0.1874,0.0872,1.4198,1.3996,1.3857,0.0,1.3711,0.0,1.3601,1.3601,1.3368,1.2746,1.2526,1.2324,1.2202,1.233,1.217,1.1474,0.0,0.0,0.0,1.0226,1.0089,1.0089,0.9854,0.9639,0.9696,0.9433,0.9325,0.9379,0.9379,0.9368,0.9351,0.9351,0.9351,0.9281,0.9281,0.9281,0.9281,0.9298,0.9097,0.875,0.8771,0.8558,0.8193,0.7611,0.7748,0.8075,0.732,0.7391,0.7768,0.7025,0.6824,0.6692,0.6156,0.602,0.602,0.5888,0.5888,0.5888,0.5888,0.5888,0.602,0.6544,0.6741,0.6868,0.7391,0.7521,0.7521,0.7521,0.7521,0.7521,0.7521,0.7521,0.7521,0.7521,0.7521,0.7521,0.7521,0.0,0.0,0.0,0.0,0.0,0.0,0.6207,0.6539,0.0,0.0,0.0,0.0,0.0,0.5352,0.6736,0.6284,0.5815,0.5474,0.5474,0.5276,0.5011,0.5672,0.6005,0.6005,0.6675,0.7012,0.7007,0.7073,0.7077,0.6946,0.6338,0.6005,0.5873,0.5213,0.4948,0.4812,0.4339,0.3606,0.2744,0.0,0.0,1.4759,1.4759,1.4759,1.46,1.4418,1.438,1.4207,1.3805,1.3695,1.3717,1.3792,1.4097,1.4136,1.3903,1.3088,1.2481,1.2122,1.1849,1.1624,1.1624,1.0923,1.0477,1.0275,0.99,0.981,0.9912,0.9912,0.9822,0.9712,0.9712,0.9567,0.9281,0.9281,0.9281,0.9292,0.9471,0.947,0.9419,0.9532,0.9532,0.9432,0.8817,0.8679,0.8727,0.8085,0.8154,0.8404,0.7777,0.7769,0.7865,0.7311,0.7129,0.6933,0.6152,0.5888,0.5888,0.5888,0.5888,0.602,0.6544,0.6999,0.7326,0.7456,0.7521,0.7521,0.7521,0.7521,0.7521,0.7521,0.7521,0.7521,0.7521,0.7521,0.7521,0.7521,0.7521,0.0,0.0,0.7195,0.7195,0.7195,0.7195,0.7064,0.0,0.0,0.0,0.0,0.6474,0.6539,0.726,0.7195,0.7064,0.6994,0.6994,0.6929,0.6863,0.706,0.7125,0.7125,0.7842,0.8102,0.8166,0.8683,0.849,0.7847,0.7712,0.7256,0.6679,0.6478,0.6075,0.5606,0.547,0.4942,0.4146,1.5374,1.5304,1.5235,1.5235,1.515,1.5011,1.4828,1.4797,1.4812,1.4703,1.4597,1.4618,1.4757,1.4981,1.5103,1.5196,1.4338,1.37,1.3433,1.3158,1.2929,1.2795,1.2263,1.1906,1.1623,1.1403,1.1335,1.1411,1.1411,1.119,1.0838,1.0838,1.0545,1.0107,1.0107,1.0107,1.0119,1.025,1.016,1.0024,1.0162,1.0067,0.983,0.9553,0.9426,0.9326,0.8944,0.8939,0.9035,0.85,0.8456,0.855,0.8118,0.7852,0.7591,0.7003,0.6741,0.6609,0.6609,0.6609,0.6675,0.7003,0.726,0.7521,0.7521,0.7521,0.7521,0.7521,0.7521,0.7521,0.7521,0.7521,0.7521,0.7521,0.7521,0.7521,0.7521,0.7521,0.0,0.7521,0.7521,0.7521,0.7521,0.7521,0.7391,0.7064,0.7068,0.0,0.7265,0.7134,0.7326,0.7907,0.7972,0.8102,0.8425,0.8425,0.8425,0.8425,0.8425,0.8425,0.8425,0.8812,0.8941,0.9005,0.9326,0.9262,0.8812,0.8812,0.849,0.8042,0.7722,0.7386,0.7051,0.6728,0.6137,0.5345,1.5833,1.5693,1.5623,1.5623,1.5459,1.5288,1.5234,1.5304,1.5289,1.5397,1.5304,1.5196,1.5292,1.537,1.5559,1.5753,1.5296,1.4877,1.4705,1.4432,1.4137,1.387,1.3611,1.3365,1.3117,1.2994,1.29,1.29,1.29,1.2673,1.215,1.215,1.1855,1.1335,1.1335,1.1335,1.1335,1.126,1.1037,1.0738,1.0738,1.0443,1.0067,1.0143,1.0067,0.997,0.9753,0.9677,0.9685,0.9184,0.901,0.9012,0.8641,0.8343,0.8052,0.8052,0.7857,0.7657,0.7587,0.7587,0.7587,0.7587,0.7587,0.7587,0.7657,0.7591,0.7587,0.7587,0.7521,0.7521,0.7591,0.7521,0.7526,0.7591,0.7587,0.7591,0.7521,0.0,0.7717,0.7652,0.7782,0.7847,0.7782,0.7842,0.7842,0.7842,0.7842,0.7977,0.8306,0.8042,0.8166,0.8871,0.8613,0.8807,0.9518,0.9518,0.9518,0.9518,0.9518,0.9518,0.9582,0.964,0.9703,0.9703,0.9837,0.9837,0.9703,0.9703,0.9646,0.9518,0.8935,0.8678,0.8554,0.7977,0.7256,0.6597,1.6571,1.649,1.649,1.649,1.649,1.6387,1.6087,1.6047,1.5937,1.5721,1.5605,1.5581,1.561,1.565,1.5801,1.6095,1.6047,1.611,1.6293,1.5997,1.5858,1.5803,1.4706,1.4156,1.4104,1.3321,1.29,1.29,1.29,1.2826,1.2753,1.2753,1.2673,1.2599,1.2599,1.2599,1.2599,1.2077,1.1855,1.1781,1.1781,1.1409,1.0962,1.1111,1.0887,1.0363,0.9948,1.0088,1.0261,0.9685,0.9537,0.9541,0.9018,0.8673,0.8452,0.8452,0.8382,0.8317,0.7987,0.7922,0.7922,0.7922,0.7922,0.7987,0.8252,0.8117,0.7922,0.7922,0.7722,0.7587,0.7857,0.7722,0.7587,0.7852,0.7922,0.7852,0.7521,0.0,0.8689,0.8361,0.9005,0.939,0.9198,0.9448,0.9576,0.9448,0.9454,0.9512,0.9703,0.9512,0.9824,1.0571,0.9244,0.8807,0.9518,0.9518,0.9518,0.9518,0.9646,0.9773,0.9773,1.0458,1.0766,1.0829,1.1413,1.1288,1.0584,1.0703,1.0395,0.9773,0.9767,0.9512,0.9139,0.9081,0.8947,0.8683,1.673,1.673,1.673,1.673,1.673,1.6675,1.6516,1.6492,1.6428,1.6269,1.6246,1.6174,1.5983,1.596,1.6031,1.619,1.6206,1.6357,1.6714,1.6579,1.6404,1.6214,1.5474,1.4886,1.4448,1.4068,1.384,1.384,1.384,1.3695,1.3397,1.3397,1.3185,1.29,1.29,1.29,1.29,1.2599,1.2452,1.2452,1.2452,1.2298,1.2077,1.215,1.2003,1.1781,1.1558,1.1632,1.1736,1.1291,1.0985,1.0777,1.0629,0.9988,0.9231,0.9556,0.9102,0.8452,0.8317,0.8252,0.8252,0.8252,0.8252,0.8317,0.8452,0.8382,0.8252,0.8252,0.8117,0.8117,0.8252,0.8117,0.8117,0.8252,0.8252,0.0,0.0,0.8441,0.8765,0.8947,0.9268,0.9588,0.9767,0.9894,0.9952,0.9894,0.9894,1.0021,1.0268,1.0021,1.0338,1.1288,1.0717,1.0591,1.0919,1.0919,1.0919,1.0912,1.0975,1.1045,1.1038,1.1413,1.16,1.16,1.1926,1.1864,1.1483,1.1538,1.1351,1.0982,1.0647,1.0395,1.0142,0.9837,0.9646,0.9646,1.7049,1.6968,1.6968,1.673,1.673,1.673,1.673,1.673,1.673,1.673,1.673,1.6627,1.6357,1.6333,1.6333,1.6333,1.6333,1.6444,1.6714,1.673,1.6611,1.6341,1.5912,1.5348,1.4657,1.4569,1.4569,1.4569,1.4569,1.4418,1.3977,1.3977,1.3768,1.3339,1.3339,1.3339,1.3258,1.3185,1.3112,1.3112,1.3112,1.3039,1.29,1.3039,1.3046,1.29,1.29,1.29,1.2858,1.2684,1.2267,1.1824,1.2144,1.1332,1.0396,1.0861,1.0227,0.9236,0.8674,0.8582,0.8641,0.8641,0.8641,0.8641,0.8899,0.8829,0.8829,0.8952,0.8894,0.8829,0.8829,0.8829,0.8829,0.8829,0.0,0.0,0.0,0.9087,0.9338,0.9646,0.9901,1.0155,1.0465,1.0591,1.0591,1.0521,1.0521,1.0647,1.0961,1.071,1.0912,1.1809,1.2003,1.2127,1.2127,1.2127,1.2127,1.2127,1.212,1.2127,1.2127,1.2182,1.2251,1.2251,1.2367,1.2428,1.2367,1.2421,1.2428,1.2297,1.1655,1.1274,1.1149,1.0584,1.0401,1.0401,1.8078,1.7917,1.7683,1.6812,1.673,1.673,1.673,1.673,1.673,1.673,1.673,1.6722,1.6698,1.669,1.669,1.669,1.669,1.6706,1.673,1.673,1.6722,1.669,1.6039,1.5348,1.4657,1.4569,1.4569,1.4569,1.4569,1.4569,1.4569,1.4569,1.4497,1.4497,1.4497,1.4497,1.4418,1.3905,1.376,1.376,1.376,1.3404,1.2966,1.3542,1.3397,1.29,1.29,1.29,1.2893,1.2872,1.2676,1.2438,1.2466,1.2255,1.1962,1.1955,1.1927,1.1364,0.9083,0.8705,0.8952,0.8952,0.8952,0.9145,0.9983,0.9913,0.9831,1.0268,1.0078,0.9831,0.9709,0.9837,0.9831,0.9709,0.0,0.0,0.9958,1.073,1.1233,1.0892,1.16,1.205,1.1934,1.2243,1.2305,1.2112,1.2112,1.2243,1.2436,1.2243,1.2243,1.2498,1.2251,1.2127,1.2127,1.2127,1.2127,1.2127,1.2243,1.2305,1.2305,1.2498,1.256,1.256,1.3155,1.3329,1.3208,1.3329,1.3329,1.3147,1.2674,1.2182,1.174,1.1677,1.1677,1.1677,1.8868,1.8789,1.855,1.7683,1.7529,1.7286,1.6812,1.673,1.673,1.673,1.673,1.673,1.673,1.673,1.673,1.673,1.673,1.673,1.673,1.673,1.6532,1.6103,1.5825,1.5348,1.4657,1.4569,1.4569,1.4569,1.4569,1.4569,1.4569,1.4569,1.4569,1.4569,1.4569,1.4569,1.4569,1.4346,1.4274,1.4274,1.4274,1.4129,1.3985,1.4201,1.4129,1.3912,1.3912,1.3912,1.3912,1.3912,1.3685,1.3366,1.3716,1.3278,1.2572,1.2368,1.2318,1.2096,1.1061,1.0692,1.0627,1.0627,1.0238,0.9977,1.0611,1.0421,1.0231,1.0724,1.0724,1.0598,1.0541,1.0598,1.0598,1.0541,0.0,1.0787,1.0661,1.0982,1.1303,1.1476,1.1802,1.212,1.2375,1.2498,1.256,1.2498,1.2498,1.2498,1.2621,1.256,1.2498,1.2621,1.285,1.2789,1.2436,1.2436,1.2436,1.2436,1.285,1.3025,1.3086,1.3571,1.3761,1.3752,1.3571,1.3692,1.4052,1.3623,1.3683,1.3992,1.339,1.3268,1.3442,1.3025,1.2834,1.2842,1.9737,1.9659,1.9423,1.855,1.839,1.8238,1.7602,1.7286,1.7131,1.7131,1.6894,1.673,1.673,1.673,1.673,1.673,1.673,1.673,1.673,1.673,1.6468,1.5872,1.584,1.5515,1.4824,1.4816,1.4752,1.4569,1.4569,1.4569,1.4569,1.4569,1.4569,1.4569,1.4569,1.4569,1.4569,1.4569,1.4569,1.4569,1.4569,1.4569,1.4569,1.4569,1.4569,1.4569,1.4569,1.4569,1.4569,1.4569,1.4346,1.4129,1.4489,1.4057,1.3433,1.3199,1.314,1.3104,1.2939,1.2645,1.2247,1.1888,1.1235,1.0823,1.1326,1.1059,1.0926,1.1428,1.149,1.1428,1.1296,1.1365,1.1428,1.1303,1.1365,1.149,1.149,1.149,1.1615,1.1996,1.2058,1.2182,1.256,1.2621,1.2621,1.2621,1.2621,1.2683,1.2858,1.2858,1.2981,1.3164,1.3571,1.3631,1.3216,1.3224,1.3103,1.292,1.3511,1.3692,1.3511,1.4172,1.4469,1.4469,1.4222,1.435,1.4765,1.4332,1.4392,1.4706,1.4103,1.4154,1.4519,1.4043,1.3914,1.3914,2.0702,2.0537,2.0226,1.9413,1.9344,1.9344,1.9335,1.855,1.7997,1.7997,1.7286,1.673,1.673,1.673,1.673,1.673,1.673,1.673,1.6738,1.6738,1.6579,1.6222,1.6206,1.5888,1.5205,1.5189,1.5014,1.4577,1.4577,1.4577,1.4569,1.4569,1.4569,1.4569,1.4569,1.4569,1.4569,1.4569,1.4569,1.4569,1.4569,1.4569,1.4569,1.4569,1.4569,1.4569,1.4569,1.4569,1.4569,1.4569,1.4569,1.4569,1.4569,1.4569,1.4569,1.4569,1.4569,1.4569,1.4569,1.4387,1.3754,1.2448,1.1878,1.1724,1.2173,1.2049,1.1934,1.2498,1.2621,1.2436,1.1926,1.2243,1.2436,1.1872,1.2243,1.2621,1.2621,1.2621,1.2621,1.2621,1.2621,1.2621,1.2629,1.2629,1.2621,1.2621,1.2621,1.2858,1.3511,1.3511,1.3803,1.4469,1.4469,1.4529,1.4529,1.4469,1.4172,1.3511,1.4172,1.4172,1.3571,1.4231,1.4529,1.4529,1.5118,1.541,1.541,1.5555,1.5507,1.5352,1.4914,1.4728,1.4728,1.4728,1.4787,1.4914,2.1492,2.1405,2.1165,2.0294,2.0138,1.9972,1.9423,1.9107,1.8948,1.8948,1.8709,1.855,1.855,1.7997,1.7602,1.7602,1.7049,1.682,1.7147,1.7229,1.7261,1.7468,1.6652,1.5991,1.5539,1.5531,1.5475,1.5364,1.5364,1.5253,1.5022,1.5022,1.4887,1.4569,1.4569,1.4569,1.4569,1.4569,1.4569,1.4569,1.4569,1.4569,1.4569,1.4569,1.4569,1.4569,1.4569,1.4569,1.4569,1.4569,1.4569,1.4569,1.4569,1.4569,1.4569,1.4569,1.4569,1.4569,1.4569,1.4561,1.4324,1.3692,1.2938,1.2565,1.3096,1.2645,1.2281,1.287,1.2734,1.256,1.2375,1.2498,1.256,1.2375,1.2498,1.2621,1.2621,1.2621,1.2621,1.2621,1.2621,1.2744,1.3216,1.3216,1.345,1.3881,1.3932,1.3992,1.4172,1.4231,1.4291,1.4469,1.4883,1.5167,1.5264,1.4756,1.441,1.4231,1.4824,1.5059,1.4874,1.5536,1.5894,1.5931,1.568,1.5864,1.6343,1.5989,1.6046,1.6343,1.5748,1.5806,1.6104,1.569,1.5575,1.5575,2.1807,2.1807,2.1645,2.1098,2.1011,2.0857,2.0372,1.9972,1.9737,1.9737,1.9186,1.8868,1.9036,1.8078,1.7602,1.7934,1.7538,1.7302,1.7635,1.7635,1.7716,1.7959,1.7338,1.6722,1.6431,1.6431,1.6357,1.6209,1.6209,1.6103,1.5905,1.5905,1.5782,1.556,1.556,1.556,1.5552,1.5412,1.5283,1.5266,1.5119,1.5062,1.5062,1.5062,1.5062,1.5062,1.4919,1.4919,1.5062,1.4919,1.4848,1.4848,1.4991,1.4991,1.4848,1.5062,1.5062,1.5062,1.5062,1.5062,1.5013,1.4784,1.4045,1.3377,1.3723,1.3255,1.2883,1.3217,1.3116,1.3028,1.3028,1.2861,1.2774,1.2774,1.2717,1.2621,1.2621,1.2621,1.2621,1.2621,1.2621,1.2858,1.345,1.3511,1.3803,1.451,1.4529,1.4647,1.4923,1.4923,1.505,1.5342,1.5758,1.5989,1.6083,1.5633,1.5294,1.5059,1.5642,1.5816,1.5642,1.6239,1.6591,1.6637,1.6265,1.6332,1.6751,1.6446,1.6503,1.6751,1.6446,1.6729,1.7134,1.656,1.6662,1.7101,2.1873,2.1873,2.1873,2.1873,2.1873,2.1873,2.1873,2.1175,2.0692,2.0692,1.9344,1.8559,1.8966,1.7844,1.7375,1.8184,1.8193,1.8112,1.804,1.804,1.8121,1.8193,1.8112,1.8028,1.7761,1.7596,1.7424,1.7071,1.7071,1.7063,1.7028,1.7028,1.7011,1.6977,1.6977,1.6977,1.696,1.6616,1.6469,1.6444,1.6082,1.5936,1.5936,1.5936,1.5936,1.5865,1.5509,1.5581,1.5857,1.5476,1.5325,1.5388,1.57,1.5551,1.5346,1.5692,1.5833,1.5833,1.5833,1.5833,1.5833,1.5833,1.5018,1.4226,1.4226,1.3954,1.3765,1.3699,1.3667,1.3717,1.3651,1.3403,1.3196,1.3132,1.2924,1.2717,1.2717,1.2717,1.2717,1.2833,1.2833,1.3063,1.3683,1.3769,1.4094,1.4845,1.4756,1.4991,1.5671,1.5728,1.5968,1.657,1.6751,1.6807,1.6807,1.6807,1.6513,1.5989,1.6524,1.6524,1.5989,1.6637,1.6864,1.692,1.6976,1.6976,1.692,1.7067,1.7022,1.692,1.7022,1.7457,1.7952,1.7335,1.7941,1.8934,2.2252,2.2252,2.2252,2.2252,2.2252,2.2252,2.2252,2.209,2.2014,2.2014,2.169,2.1461,2.1624,2.075,2.0197,2.044,1.9432,1.8745,1.8531,1.854,1.8922,1.9687,1.9301,1.9186,1.9634,1.8461,1.7869,1.7792,1.7792,1.7638,1.7424,1.7424,1.7261,1.6977,1.6977,1.6977,1.6968,1.6891,1.6856,1.6848,1.6762,1.6727,1.6727,1.6727,1.6727,1.6727,1.6653,1.6653,1.6684,1.6246,1.6152,1.6101,1.5857,1.5762,1.5692,1.5762,1.5833,1.5833,1.5833,1.5833,1.5833,1.5833,1.5632,1.5362,1.501,1.4947,1.4824,1.4536,1.4447,1.4387,1.4131,1.4262,1.4138,1.3613,1.3688,1.3835,1.3835,1.3566,1.3745,1.476,1.4641,1.4836,1.5817,1.6016,1.6104,1.6151,1.6285,1.6343,1.6513,1.6513,1.6637,1.6751,1.6751,1.6864,1.6955,1.6955,1.6853,1.6581,1.6751,1.6751,1.6637,1.7234,1.7567,1.7678,1.8093,1.8081,1.782,1.7831,1.782,1.7776,1.7368,1.7909,1.8857,1.8244,1.8525,1.9133,2.2402,2.2402,2.2402,2.2402,2.2402,2.2402,2.2402,2.2402,2.2402,2.2402,2.2004,2.1852,2.2101,2.1155,2.0595,2.0817,2.0362,1.9991,1.9932,1.9854,2.0167,2.0624,2.0079,1.9854,2.0157,1.945,1.9063,1.9063,1.9371,1.9418,1.9282,1.8981,1.8715,1.8506,1.8208,1.813,1.8044,1.7858,1.7787,1.7769,1.7583,1.7512,1.7512,1.7512,1.7512,1.7512,1.7345,1.7411,1.7683,1.7624,1.756,1.7378,1.737,1.7018,1.6622,1.659,1.6608,1.6564,1.6386,1.6333,1.6333,1.6333,1.6333,1.6193,1.5621,1.5477,1.548,1.5263,1.524,1.518,1.4985,1.4976,1.4857,1.4454,1.4629,1.4837,1.4837,1.4876,1.5118,1.5817,1.5762,1.5942,1.6859,1.7249,1.7477,1.7488,1.7477,1.7536,1.7605,1.7605,1.7605,1.7605,1.7653,1.7662,1.7492,1.7492,1.7326,1.7043,1.7301,1.7301,1.7043,1.7952,1.8213,1.805,1.859,1.875,1.8536,1.8536,1.8536,1.8483,1.8278,1.875,1.9527,1.8992,1.9202,1.9734,2.2478,2.2478,2.2478,2.2478,2.2478,2.2478,2.2478,2.2478,2.2478,2.2478,2.1842,2.1538,2.1949,2.1078,2.0518,2.074,2.1145,2.1318,2.1242,2.1165,2.1242,2.1318,2.0702,2.0391,2.0547,2.0547,2.0391,2.0167,2.0857,2.1165,2.1165,2.0624,2.0391,2.0313,1.9844,1.9608,1.959,1.9254,1.9114,1.9086,1.8751,1.862,1.862,1.862,1.8545,1.8395,1.8067,1.8293,1.8807,1.9027,1.8998,1.8924,1.9068,1.8599,1.787,1.776,1.774,1.7648,1.711,1.7079,1.7121,1.7056,1.7107,1.6959,1.6324,1.6044,1.5974,1.5903,1.6044,1.6105,1.6035,1.586,1.5659,1.5531,1.5628,1.5789,1.5789,1.6159,1.66,1.6792,1.6797,1.701,1.7595,1.8038,1.8323,1.8477,1.8394,1.8384,1.8538,1.8538,1.8588,1.8698,1.8808,1.874,1.8469,1.8458,1.8213,1.7712,1.8297,1.8141,1.749,1.8655,1.891,1.8471,1.9081,1.9303,1.9186,1.9198,1.9186,1.9186,1.9239,1.9631,2.0144,1.9837,1.9978,2.0497,2.2927,2.2927,2.2927,2.2927,2.2927,2.2927,2.2927,2.2927,2.2927,2.2927,2.2841,2.2767,2.2852,2.2692,2.2381,2.1939,2.1939,2.1787,2.1242,2.1165,2.1395,2.1949,2.1405,2.1328,2.1797,2.1873,2.1328,2.0167,2.0857,2.1165,2.1165,2.1088,2.1088,2.1088,2.1011,2.0934,2.0924,2.0864,2.0844,2.0834,2.0785,2.0755,2.0755,2.0755,2.0458,1.9917,1.983,1.9917,1.9937,1.963,1.9889,2.0286,1.9988,1.9795,1.9558,1.8971,1.8807,1.8575,1.7666,1.7759,1.8018,1.7665,1.7969,1.8172,1.756,1.7097,1.6621,1.6272,1.689,1.7364,1.701,1.717,1.7142,1.6531,1.6674,1.6912,1.6912,1.7107,1.7639,1.8771,1.8966,1.8985,1.8922,1.8743,1.8577,1.8538,1.8577,1.8627,1.8698,1.8698,1.8917,1.9549,1.9549,1.9808,2.0339,2.0339,2.0064,1.9471,2.0042,1.9516,1.8038,1.9307,1.9837,1.9786,2.0398,2.0385,2.0042,1.9888,1.994,1.9978,1.9527,2.0042,2.1019,2.097,2.1068,2.1215,2.3001,2.3001,2.3001,2.3001,2.3001,2.3001,2.3001,2.3001,2.3001,2.3001,2.3001,2.3001,2.3001,2.3001,2.2927,2.2628,2.2628,2.2478,2.2241,2.2241,2.2317,2.2628,2.2014,2.1863,2.2101,2.2101,2.1797,2.1252,2.1928,2.2241,2.2231,2.1863,2.1711,2.1711,2.1318,2.1165,2.1165,2.1165,2.1165,2.1165,2.1165,2.1165,2.1165,2.1165,2.1011,2.0779,2.0779,2.1011,2.1221,2.1095,2.1186,2.1391,2.1259,2.0974,2.0541,2.0068,1.9925,1.9752,1.9111,1.9066,1.9231,1.9043,1.8934,1.8813,1.8606,1.8144,1.7569,1.683,1.7166,1.7638,1.7501,1.7833,1.8037,1.7696,1.8027,1.8355,1.8355,1.8633,1.911,1.966,1.9749,1.9759,1.9694,1.9563,1.9443,1.9391,1.9443,1.9621,2.0036,2.0036,2.0385,2.1152,2.1152,2.12,2.1391,2.1391,2.0893,2.0037,2.0627,2.0126,1.875,1.9965,2.0372,2.0144,2.0686,2.0848,2.066,2.0573,2.056,2.061,2.0459,2.0772,2.1326,2.1326,2.1375,2.1375]}]]